GFSGL_prec_cthk_000.txt.gz
RH
38 41 40 57 41 44 42 47 52 51 49 39 35 35 36 30 27 21 21 25 27 30 34 36 36 41 44 44 45 42 41 42 43 40 39 39 38 39 40 36 34 32 30
45 45 51 36 59 43 46 54 56 57 51 47 39 37 35 33 30 26 26 28 31 35 39 40 39 37 36 40 44 42 43 46 49 49 49 49 50 50 47 43 40 38 33
49 55 59 55 52 53 53 58 56 60 49 50 48 42 40 34 31 29 33 39 41 42 39 37 37 37 38 39 40 41 44 47 51 52 50 51 52 55 49 44 42 39 36
47 50 58 60 59 76 60 65 55 61 55 54 54 48 47 40 35 33 42 47 47 47 46 42 41 41 39 40 42 41 44 47 52 52 51 50 54 53 51 47 46 46 41
42 41 44 52 72 81 76 78 71 61 61 56 55 53 53 53 46 39 46 55 56 54 50 46 44 43 43 41 38 40 45 50 54 57 53 53 55 54 50 49 48 44 44
40 37 45 61 67 89 93 84 79 67 64 56 61 55 58 62 55 46 51 62 65 62 54 51 45 44 44 43 39 44 46 47 55 56 53 49 50 52 51 46 45 48 53
46 48 56 62 67 78 91 73 89 75 68 55 58 58 62 68 61 58 62 67 70 66 53 45 42 40 46 49 47 50 52 57 62 62 58 50 51 51 46 48 56 61 64
39 49 64 68 68 90 77 72 84 73 65 57 61 64 67 73 67 73 79 75 73 61 49 43 41 46 51 52 49 51 57 66 67 64 60 54 54 44 41 55 64 68 65
38 40 44 58 64 76 86 73 80 74 62 64 68 73 79 79 81 79 84 79 64 52 43 43 45 50 51 52 46 54 59 65 65 61 59 61 52 37 51 65 70 75 70
44 44 49 55 63 71 76 80 76 75 69 74 74 78 82 92 92 88 87 79 54 39 41 44 46 50 49 48 46 51 54 65 63 54 54 46 36 46 61 70 77 78 79
49 54 50 53 62 69 74 82 77 73 75 76 79 78 82 88 86 88 83 63 42 41 42 41 45 48 47 47 47 56 64 68 63 51 43 41 41 49 59 60 74 84 89
51 60 59 55 62 69 74 78 78 80 80 80 86 77 76 80 85 83 63 43 44 43 42 41 47 49 48 50 55 57 63 59 54 49 48 46 45 50 54 61 83 89 96
60 63 62 66 68 74 77 77 79 83 81 80 80 71 76 76 70 56 46 47 44 44 41 42 48 49 49 55 62 63 52 46 53 59 53 50 51 52 51 64 80 91 97
63 69 72 75 76 77 77 80 86 85 82 84 78 71 69 70 65 54 49 46 45 40 42 47 50 52 55 65 66 55 52 43 46 47 49 47 48 47 47 58 80 94 95
65 64 69 75 74 73 73 74 86 82 75 59 69 67 64 60 60 53 50 47 44 43 47 51 51 55 61 67 61 53 48 54 54 52 48 45 44 42 37 51 79 92 96
57 54 67 69 68 60 57 60 62 59 57 65 71 71 64 63 62 60 56 48 47 48 53 55 54 59 59 53 48 47 53 53 53 52 49 47 43 38 31 36 73 92 96
54 54 59 57 58 67 56 47 43 50 58 64 71 68 63 63 61 61 57 52 54 55 58 56 59 55 50 49 50 47 48 50 51 49 45 40 34 28 28 38 64 86 93
51 53 52 50 49 46 44 48 54 61 66 66 64 61 63 64 62 62 61 61 60 61 62 62 60 60 59 58 57 53 50 45 40 37 33 28 23 24 27 44 58 78 87
50 50 51 51 47 45 48 55 58 66 66 62 63 65 66 66 63 62 64 63 64 63 64 65 60 58 55 51 47 44 44 40 35 32 27 23 21 22 26 41 53 67 80
57 64 65 60 56 55 53 56 60 65 65 67 64 66 67 62 62 64 64 62 61 61 58 56 53 52 50 46 43 39 31 26 27 28 25 24 22 20 20 28 47 55 63
71 71 69 59 54 54 55 56 58 65 62 62 68 68 67 70 73 71 67 66 68 67 59 53 49 47 43 37 30 23 19 19 19 20 21 19 19 17 17 20 31 46 56
81 66 63 65 63 59 62 58 58 61 65 69 64 62 62 66 66 69 71 69 67 61 55 52 48 40 31 25 19 16 15 15 16 17 16 16 15 15 15 15 18 30 40
67 68 65 59 56 55 59 62 65 64 67 64 60 61 67 69 71 67 66 61 56 55 54 49 42 32 24 18 16 16 17 17 17 16 16 15 14 13 13 13 14 14 22
74 66 59 54 56 61 62 64 62 57 54 54 61 66 67 65 66 61 60 53 46 43 41 36 30 21 17 15 15 16 16 16 16 16 16 16 15 15 14 13 13 13 14
66 53 48 53 52 53 55 54 49 49 48 51 54 55 60 62 58 57 54 51 45 40 35 26 21 19 18 16 15 15 15 16 16 18 19 19 19 18 16 15 14 14 14
49 53 59 54 50 48 46 44 43 43 42 42 43 45 47 46 48 49 45 43 41 38 31 26 22 18 17 17 15 15 15 16 17 20 22 23 22 21 20 18 17 16 16

GFSGL_prec_cthk_003.txt.gz
RH
34 37 39 39 44 47 48 52 46 46 60 53 58 53 48 41 35 26 23 23 24 27 32 35 36 43 42 34 35 36 38 41 42 36 45 45 40 41 41 42 42 40 37
43 41 44 44 43 52 57 62 56 44 53 57 61 60 53 52 45 36 27 29 31 34 38 39 39 36 34 33 32 32 40 40 40 40 35 40 42 44 44 43 47 46 40
53 52 49 53 57 52 59 55 56 58 47 56 62 62 59 56 54 47 38 34 33 41 43 46 46 45 41 39 34 35 38 41 45 41 41 41 43 44 45 46 48 48 45
50 50 56 59 62 62 56 70 54 70 67 58 60 62 61 61 57 52 48 49 40 42 49 51 50 48 46 40 35 35 35 38 42 42 43 44 48 49 45 47 49 53 52
47 52 55 61 61 64 68 75 79 76 85 75 67 66 59 61 61 59 56 59 55 49 55 56 63 50 45 42 35 33 36 39 46 46 52 51 54 53 52 49 50 51 46
45 45 48 52 54 60 67 73 82 88 86 85 70 63 59 61 60 67 68 68 62 64 64 63 70 58 48 45 38 41 46 47 47 49 59 59 56 56 52 53 50 46 40
44 45 47 50 57 64 68 74 76 76 68 70 69 66 69 60 63 69 73 74 71 72 73 79 74 65 51 44 42 44 47 48 48 51 54 57 56 51 50 50 48 41 31
38 39 43 48 56 61 69 70 68 69 68 71 71 70 68 66 71 73 80 81 82 84 84 83 73 64 52 46 46 45 46 48 50 52 56 56 56 54 51 49 36 32 42
32 36 43 49 55 59 64 60 64 64 62 75 76 68 69 71 74 73 80 80 86 89 92 82 71 52 42 42 44 45 44 46 46 49 57 56 57 53 45 41 37 45 47
38 43 49 57 62 66 67 63 64 66 72 87 77 75 75 74 75 76 82 83 88 89 92 70 52 42 42 43 42 44 45 47 49 53 57 55 54 51 48 48 44 47 49
43 49 57 61 61 58 62 65 66 67 79 81 76 76 72 73 78 78 79 81 82 90 73 55 46 46 41 41 42 44 47 50 56 55 42 44 51 51 52 50 49 50 54
53 56 58 64 64 61 63 67 74 74 77 81 83 77 74 74 76 77 78 78 78 71 59 45 46 42 40 42 46 49 50 60 60 41 39 45 51 58 53 44 41 40 49
49 52 57 58 62 61 61 65 70 74 76 76 81 82 79 82 78 73 69 62 56 58 51 44 46 43 43 48 54 53 61 61 47 44 47 48 46 44 41 38 36 29 45
51 58 57 59 62 63 61 59 68 67 67 78 84 85 70 67 62 68 62 55 56 53 51 49 45 46 51 55 59 62 64 53 43 47 49 47 47 47 44 40 31 26 48
55 57 53 50 58 55 60 66 59 62 64 69 61 61 59 58 64 67 60 55 56 57 56 50 48 52 60 62 62 60 49 45 46 48 48 48 46 45 39 31 28 37 58
54 52 46 47 50 52 55 54 52 57 63 60 59 58 56 64 64 59 60 61 60 56 55 55 59 62 64 62 55 51 51 50 48 49 47 43 41 34 28 23 32 48 57
50 50 49 49 52 54 53 52 54 53 50 49 55 61 66 66 64 60 58 61 60 60 59 60 65 68 66 61 59 63 58 53 48 47 42 38 34 26 22 24 40 51 61
53 49 51 52 49 49 49 52 53 57 60 60 61 63 64 61 59 61 62 61 59 59 60 61 66 68 68 65 63 59 51 44 41 38 36 33 30 24 22 24 39 49 55
46 46 47 49 48 53 61 63 64 65 65 62 63 63 59 57 55 58 56 54 56 56 56 57 58 61 61 57 53 49 44 37 32 28 28 27 27 24 23 24 32 44 53
43 46 47 56 63 67 64 62 60 59 62 62 63 62 61 56 58 58 57 61 64 62 59 60 62 60 55 51 47 42 32 27 23 21 22 21 21 21 20 21 28 38 48
47 60 74 70 74 67 58 59 61 62 64 61 60 56 57 59 58 52 50 55 60 64 63 63 60 53 48 43 37 27 21 19 17 16 17 18 16 18 17 17 20 33 40
79 80 84 81 73 70 70 65 60 55 54 61 61 59 61 59 55 54 55 62 62 61 59 58 55 53 46 35 26 21 18 17 18 18 17 17 17 17 16 15 16 19 29
78 78 72 66 63 65 63 61 56 61 64 62 64 59 57 55 56 59 61 62 57 57 52 48 47 43 33 24 20 17 17 19 18 16 16 15 18 15 16 15 15 16 18
68 69 71 72 71 65 55 51 54 56 60 59 55 54 53 56 62 63 59 57 54 52 47 43 39 33 24 18 16 16 17 17 17 17 17 16 19 18 18 17 16 16 16
73 71 63 58 48 43 46 53 54 52 48 46 45 44 48 51 54 57 51 47 46 44 38 35 32 24 19 18 17 16 16 17 16 17 18 20 20 20 21 20 19 18 18
55 52 53 51 51 53 54 49 42 39 37 36 36 36 38 41 44 45 42 40 40 39 37 33 27 21 18 18 18 16 17 16 15 15 17 22 25 24 22 21 20 19 18

GFSGL_prec_cthk_006.txt.gz
RH
29 31 33 38 43 40 47 48 53 57 51 53 53 56 67 57 61 58 51 46 38 29 29 36 39 48 49 52 50 47 47 47 46 40 45 42 39 38 39 43 45 44 45
36 36 39 44 46 45 48 48 52 50 52 54 56 57 50 64 63 65 60 53 49 44 38 35 45 53 53 59 59 56 49 43 48 50 41 45 45 39 41 43 46 49 49
48 48 48 48 49 55 52 44 54 53 55 54 69 75 67 63 62 65 67 59 54 51 51 51 46 57 60 60 52 49 48 47 46 45 51 52 48 44 46 47 51 48 47
49 51 57 59 58 60 58 56 52 53 50 57 65 67 72 56 55 63 73 64 57 59 59 62 59 59 61 63 60 55 50 49 47 47 54 57 52 48 54 57 59 56 55
48 52 55 58 63 65 65 56 59 57 57 56 64 64 65 60 54 68 68 65 64 67 64 67 70 70 71 66 64 58 50 44 46 50 50 52 46 53 63 61 59 57 60
44 49 52 54 55 57 55 57 57 59 62 69 63 63 64 59 57 62 64 67 71 72 73 80 80 80 80 80 77 67 54 47 46 44 46 47 46 58 62 60 56 56 55
42 42 45 48 49 49 51 59 62 70 72 67 64 63 63 63 64 59 63 70 75 77 77 79 84 85 92 92 86 77 54 39 42 43 47 49 57 56 54 54 54 54 48
38 40 43 45 45 43 45 47 51 61 64 64 62 61 64 73 64 66 72 72 73 73 74 76 78 87 90 90 83 69 48 41 44 46 46 44 47 46 46 49 51 51 45
36 40 38 38 43 44 46 50 59 65 67 65 66 66 69 75 65 74 78 79 73 72 76 80 82 80 92 87 69 50 44 42 44 42 42 43 48 47 43 39 46 54 51
32 35 37 40 43 46 52 56 65 71 65 64 68 70 72 70 74 75 76 78 77 77 78 82 83 88 85 79 59 49 46 44 46 44 48 54 50 43 36 40 49 55 55
35 37 40 42 47 53 53 56 62 64 66 69 72 76 77 74 73 79 72 72 74 75 78 80 82 81 74 62 50 45 44 41 43 44 57 49 38 43 48 52 54 57 53
37 41 47 51 55 57 58 54 58 65 70 72 70 78 80 79 77 74 71 75 76 76 74 79 68 58 51 48 45 44 44 43 48 55 55 44 43 50 54 50 48 45 44
39 45 51 57 63 59 56 58 59 67 73 73 70 81 82 78 71 69 71 74 75 76 73 64 55 48 48 48 47 47 47 52 59 57 47 41 39 44 48 48 46 41 37
45 50 54 57 57 54 58 57 61 67 67 70 78 79 76 77 80 81 74 75 74 70 66 59 51 54 53 52 52 53 57 58 52 41 46 47 43 44 46 44 37 31 34
51 54 53 52 52 52 50 55 62 60 60 65 61 61 70 73 80 75 77 71 73 68 64 61 60 59 59 60 62 63 61 51 53 56 53 50 47 45 39 35 31 30 40
50 49 45 43 44 49 51 56 58 56 57 53 55 57 61 64 66 69 69 70 70 65 62 63 62 62 60 62 62 64 61 58 61 56 53 47 42 40 35 30 27 33 45
45 42 41 44 48 52 56 55 51 51 52 52 51 52 56 64 66 68 68 67 60 60 57 56 57 60 61 63 65 65 65 62 52 47 45 40 36 34 32 30 27 31 42
44 41 44 46 52 53 52 49 54 56 54 55 59 63 64 63 62 65 61 54 53 55 54 56 57 58 58 58 59 60 58 53 49 44 40 35 31 29 30 28 28 31 38
40 42 47 51 50 49 43 45 53 61 64 66 65 69 69 63 62 59 56 56 56 53 54 58 58 57 57 58 57 52 48 44 38 34 32 29 25 24 24 24 25 29 37
40 42 48 48 44 42 45 53 60 67 65 67 63 64 64 58 56 56 55 56 51 48 50 52 54 57 59 57 51 45 39 38 35 30 26 23 22 22 21 21 21 24 36
43 42 42 42 44 52 63 72 65 64 65 66 65 64 57 56 57 56 58 52 49 50 53 54 56 58 55 50 46 40 34 31 27 25 23 22 23 22 20 20 20 22 25
42 41 46 54 69 74 75 70 67 67 63 64 63 60 60 56 57 57 53 52 53 55 54 52 52 50 44 44 40 33 32 29 26 22 21 22 22 21 20 19 19 22 22
51 55 64 74 76 73 68 69 69 68 68 63 66 65 56 54 52 52 51 52 53 52 52 50 46 43 37 33 29 24 24 23 20 21 20 19 22 21 20 19 19 19 20
67 71 71 71 71 68 67 69 67 59 53 58 59 61 55 47 47 47 48 52 51 51 46 41 40 36 31 26 23 20 19 20 19 20 20 21 23 24 23 22 21 21 20
64 66 65 65 68 69 67 61 56 49 55 60 56 49 45 44 43 46 49 48 47 44 37 35 32 30 25 18 17 17 16 16 17 16 18 20 22 24 25 24 23 23 22
61 61 61 59 56 55 56 55 54 56 54 47 42 40 41 44 46 48 47 46 43 40 39 37 33 28 23 17 17 15 15 15 15 15 14 19 24 26 23 24 23 22 22

GFSGL_prec_cthk_009.txt.gz
RH
29 31 32 36 37 39 39 43 47 45 48 52 54 56 59 64 70 71 63 59 67 57 51 46 47 40 42 50 53 59 56 54 48 38 41 47 48 43 42 44 48 46 42
29 29 31 33 38 38 42 43 44 44 46 48 48 47 56 61 68 65 58 64 68 61 56 51 53 59 62 51 52 58 58 49 46 45 43 42 43 44 45 41 41 45 46
34 36 37 37 36 39 44 44 44 48 48 46 46 51 52 51 59 58 62 60 67 66 66 61 62 67 70 68 63 55 57 58 56 52 51 46 56 49 50 45 42 51 52
37 40 41 42 41 42 45 48 49 53 53 43 43 47 52 53 51 53 59 58 55 70 75 67 66 72 76 77 77 77 72 71 66 66 59 52 50 46 59 53 47 53 56
38 41 41 44 43 44 46 48 53 55 51 49 48 53 59 53 54 52 57 64 52 70 72 68 70 73 80 83 85 84 89 88 85 73 59 50 52 55 52 54 55 58 58
38 37 41 43 45 49 51 55 56 57 59 61 58 59 58 57 58 61 64 63 58 67 73 74 75 82 81 78 80 86 92 93 88 75 62 51 50 49 52 53 52 52 46
34 36 40 41 43 49 52 54 54 57 63 60 53 56 62 63 65 63 68 63 67 71 77 78 75 79 76 76 80 86 86 89 87 70 58 50 47 43 44 43 45 47 43
32 36 41 46 50 52 52 52 52 54 56 61 62 60 65 67 64 65 70 70 70 70 75 78 77 78 81 81 86 87 86 88 82 69 56 44 42 43 42 45 45 43 36
35 37 41 44 46 47 46 48 49 55 59 56 63 65 64 67 67 70 77 72 75 78 75 77 78 76 79 80 80 82 80 78 73 61 47 44 43 44 49 40 36 37 41
39 39 38 38 41 45 47 48 54 58 62 62 63 66 68 69 72 75 77 72 75 80 86 81 77 74 73 75 78 73 70 63 59 52 50 46 46 50 41 45 49 55 52
37 37 39 40 40 45 46 51 55 60 66 66 65 63 66 70 74 76 75 75 81 85 77 78 79 80 79 69 65 59 50 48 46 45 48 51 56 56 48 54 50 49 51
37 40 41 41 44 44 46 51 54 60 67 69 64 68 67 69 71 75 79 75 76 74 74 81 84 82 74 67 57 48 47 47 48 53 57 60 58 49 49 48 42 42 43
43 43 44 43 45 46 51 54 60 63 60 60 59 64 66 68 80 84 80 76 73 73 80 80 81 74 67 62 56 53 48 50 55 61 61 55 47 50 48 50 51 49 42
45 42 44 46 49 53 57 57 54 48 53 55 59 57 62 67 67 68 72 81 74 86 84 75 70 67 62 56 53 54 55 58 59 56 48 57 54 54 55 48 42 38 33
45 47 48 51 53 51 53 53 54 53 51 54 58 57 60 58 55 63 72 83 81 79 76 73 66 65 64 62 60 60 59 63 60 55 56 59 53 50 46 39 33 32 36
49 52 53 52 53 53 55 54 54 48 51 54 49 48 47 48 54 54 59 66 70 69 67 65 64 60 62 60 59 60 61 61 61 63 60 52 50 46 40 33 34 36 37
53 57 53 56 57 54 53 50 48 47 44 43 42 41 42 43 53 59 61 65 65 63 61 57 57 60 58 57 58 60 62 61 59 55 49 49 45 40 35 33 33 34 37
54 54 54 53 51 52 51 47 45 44 43 42 42 42 50 55 59 62 66 62 60 55 55 57 56 51 53 54 53 53 56 55 52 49 47 42 39 34 32 32 30 30 31
54 55 54 48 48 45 43 43 47 54 52 47 49 54 58 60 60 60 57 52 55 57 55 49 46 45 47 48 53 58 58 51 46 39 37 33 31 29 29 27 27 26 26
46 48 47 45 46 44 44 44 46 49 57 62 66 61 61 60 58 55 50 50 52 51 49 43 43 45 46 51 55 54 49 44 39 34 31 27 28 25 27 26 26 25 26
40 38 40 46 46 44 43 45 53 66 74 74 66 66 67 61 56 59 58 51 51 49 46 45 47 47 44 45 44 44 43 39 38 33 28 27 26 26 28 27 25 24 24
48 44 42 47 52 48 50 58 68 69 70 68 73 67 64 61 59 60 54 50 48 45 47 47 49 45 42 40 38 35 33 32 30 26 25 25 24 25 24 25 24 23 23
49 46 47 48 52 54 68 76 71 66 69 70 66 60 55 57 58 53 47 48 49 47 46 47 48 40 38 34 29 27 27 29 26 24 24 25 24 26 25 27 25 24 25
57 55 59 62 63 69 69 68 66 65 65 68 63 49 50 57 51 52 48 50 47 44 47 45 40 33 32 27 23 21 22 21 18 21 22 22 26 25 26 27 26 26 26
58 53 57 65 76 65 62 59 63 65 61 56 54 50 49 50 48 50 48 42 43 46 44 42 34 33 31 26 20 18 16 15 15 15 15 20 23 24 27 26 27 27 27
60 59 58 58 57 57 58 57 56 58 58 59 58 56 53 44 37 38 39 39 40 41 41 41 39 37 33 26 21 15 12 12 14 14 13 14 22 24 25 24 27 27 27

GFSGL_prec_cthk_012.txt.gz
RH
36 27 27 29 27 28 31 37 41 44 50 49 50 50 51 48 51 55 58 57 55 57 58 58 62 54 52 56 61 61 57 52 51 51 48 43 42 43 41 46 48 45 40
34 28 24 23 24 26 31 35 39 43 47 48 53 49 50 49 49 51 53 52 53 53 57 57 58 57 58 67 65 65 67 66 61 54 55 57 53 47 47 47 43 43 44
32 26 23 22 26 28 31 32 39 40 43 47 50 51 49 49 50 51 55 53 55 53 53 60 54 61 70 72 74 76 77 73 74 75 70 61 57 54 48 45 46 46 53
31 27 25 26 28 30 30 34 34 39 44 47 51 50 50 50 50 48 52 55 55 56 58 62 58 63 70 67 69 74 77 79 79 85 83 87 80 66 58 55 50 51 48
30 30 28 30 33 33 33 36 39 43 48 52 55 57 58 57 52 51 52 53 58 60 64 65 60 63 65 68 72 78 82 77 76 79 82 84 77 63 59 51 50 46 41
31 29 31 32 36 36 37 40 46 50 53 58 61 64 64 60 54 55 56 58 63 63 65 66 62 66 64 75 82 77 76 76 80 82 83 81 78 66 60 58 52 44 37
37 33 31 33 37 40 45 50 53 55 61 62 66 69 70 71 62 57 62 66 68 67 71 71 65 68 74 76 78 78 75 77 82 80 81 77 69 68 67 58 45 40 41
39 37 33 35 37 41 45 49 53 56 58 61 63 65 69 70 72 66 65 63 66 72 75 78 70 74 83 79 79 79 74 76 77 72 67 66 64 57 50 48 44 41 35
39 36 37 40 42 43 45 51 53 55 55 57 60 63 65 68 73 69 64 70 72 74 82 76 71 77 80 81 81 82 84 76 68 63 57 54 50 49 51 50 48 43 42
36 37 42 46 44 46 50 51 48 49 51 53 54 58 62 67 68 67 73 74 75 77 78 80 75 75 79 81 85 84 74 65 61 57 53 51 50 50 55 58 51 50 51
40 42 44 47 50 53 50 46 46 47 51 54 57 61 65 60 63 70 72 70 73 77 77 78 92 81 77 80 86 79 69 64 62 60 54 50 50 57 64 60 51 53 51
44 44 47 50 50 47 47 48 47 49 53 56 62 61 58 61 64 66 67 65 71 73 78 78 80 77 81 81 84 75 70 62 57 53 50 54 61 64 55 53 54 54 49
46 46 45 44 46 48 50 49 52 53 55 55 57 56 60 63 64 62 67 69 63 63 70 72 73 81 78 83 75 68 63 60 55 53 56 60 56 49 50 52 54 49 45
43 44 45 47 48 51 53 53 54 54 56 55 59 63 64 58 57 58 59 58 58 57 66 66 85 79 77 71 66 63 61 56 53 54 56 54 52 54 51 47 47 43 38
45 47 49 49 49 51 51 55 57 54 55 57 59 57 55 51 50 49 48 46 50 57 67 72 75 67 65 62 61 59 56 52 51 56 57 58 58 52 49 48 44 38 35
43 45 48 49 51 55 57 56 56 55 57 55 51 47 44 42 42 40 38 44 54 57 59 63 65 64 64 64 59 58 56 59 56 55 56 57 51 49 47 44 39 34 30
47 50 52 53 56 55 55 54 53 52 49 45 43 39 40 39 38 37 47 51 55 60 63 60 58 57 57 55 51 51 52 53 51 53 51 49 47 44 42 36 31 30 29
56 54 56 58 60 57 55 52 48 41 39 36 40 41 38 38 40 48 49 54 57 53 50 51 50 52 48 45 43 45 45 48 52 49 44 40 37 37 33 29 29 26 25
63 62 62 64 70 61 65 56 49 42 43 38 41 38 38 45 48 50 53 53 51 50 52 53 48 44 40 39 39 39 43 49 46 42 40 36 33 29 28 27 26 27 26
63 63 64 64 66 63 56 45 44 51 55 53 45 46 53 52 51 51 52 49 46 47 48 47 45 39 38 39 37 38 40 39 39 39 37 31 29 28 27 28 27 27 26
58 60 60 64 58 47 45 43 49 50 47 50 54 65 51 56 51 50 49 50 46 43 45 41 40 41 40 40 36 32 31 31 32 33 31 27 25 25 27 27 26 25 24
62 53 47 45 56 52 46 51 53 48 52 61 64 57 56 59 53 52 51 50 47 39 41 40 40 42 43 39 32 30 28 24 26 28 25 23 25 25 27 26 28 27 26
66 60 48 49 57 57 57 63 50 52 63 83 68 60 60 61 55 50 53 49 46 42 41 43 41 41 39 30 27 23 20 21 23 23 20 20 23 25 26 26 27 26 26
58 58 56 65 54 49 56 55 71 80 73 66 63 59 61 62 54 45 50 47 40 38 40 40 38 41 36 29 27 23 19 19 18 16 16 18 21 25 23 24 26 25 27
62 59 57 77 67 54 72 65 62 78 64 58 65 66 64 50 49 46 45 40 40 43 41 40 39 39 31 31 27 22 18 16 15 14 14 14 16 21 23 23 24 25 27
52 61 58 58 64 68 58 76 63 58 65 65 55 55 55 56 54 47 38 35 35 33 34 34 35 37 35 31 27 22 19 14 11 12 13 14 17 23 23 20 23 23 26

GFSGL_prec_cthk_015.txt.gz
RH
32 30 25 22 28 30 27 30 36 43 43 46 46 49 48 51 53 48 47 52 54 54 55 54 54 55 54 58 66 69 70 71 68 67 64 61 56 49 42 39 42 46 45
31 31 27 23 25 26 27 30 33 38 43 44 48 48 52 51 51 50 45 47 51 52 54 56 58 57 55 51 62 71 78 75 73 72 75 72 73 73 70 59 52 49 50
31 28 27 23 23 22 27 31 32 33 36 41 43 47 50 52 55 59 54 47 50 52 55 54 57 56 61 53 61 66 67 71 74 76 74 76 77 76 78 77 64 58 59
31 27 26 22 21 24 26 27 31 32 36 41 44 48 51 53 57 62 59 51 49 50 54 55 60 61 66 58 63 68 69 74 75 75 74 74 75 78 76 76 65 60 55
33 27 23 22 23 26 28 28 30 33 37 42 44 48 52 58 60 60 64 61 57 51 54 56 62 68 69 63 64 67 71 78 77 76 75 75 76 79 77 74 64 58 55
35 30 24 23 26 29 30 30 32 35 38 42 47 53 58 62 65 68 70 64 61 54 54 60 67 75 73 67 65 68 81 80 75 79 76 77 76 72 65 62 57 55 49
34 32 30 24 25 30 34 36 39 41 44 48 52 60 64 67 71 70 66 65 60 53 59 66 69 77 77 72 73 78 87 84 83 80 82 80 73 62 60 52 45 44 42
35 34 35 29 26 32 36 38 43 46 51 55 61 69 67 66 64 64 67 63 57 60 67 68 73 78 84 77 80 85 87 88 88 83 82 72 61 59 55 52 49 47 46
32 37 36 32 27 32 37 44 48 51 56 60 65 66 59 60 63 65 67 65 63 63 65 67 75 81 82 82 82 90 89 84 87 81 71 64 61 59 54 53 51 53 49
32 38 38 36 32 32 41 48 50 55 67 71 60 58 61 62 63 66 62 62 62 65 67 65 72 78 78 81 87 91 86 88 81 73 68 66 65 57 54 55 54 58 52
35 42 44 41 37 40 46 51 59 73 69 60 59 56 58 61 62 59 59 63 60 60 63 69 73 73 79 78 82 88 86 87 79 74 68 63 58 54 55 56 57 55 53
41 48 47 45 44 47 51 65 69 65 57 55 55 55 59 60 57 58 62 65 62 61 62 67 64 72 76 77 80 83 84 79 75 68 61 54 52 55 53 53 53 53 54
50 53 51 50 52 56 62 66 65 54 53 55 55 59 59 58 55 57 56 57 57 58 55 54 56 64 69 71 81 85 77 66 63 56 52 50 52 52 52 53 55 55 45
54 55 56 56 58 62 63 58 53 52 52 56 58 58 56 54 55 54 50 51 52 52 51 49 56 63 65 70 64 62 61 59 55 49 48 52 54 54 55 54 50 47 46
56 62 64 67 63 54 53 52 51 51 53 56 56 53 54 52 47 46 43 41 43 46 53 59 63 61 57 58 58 57 55 52 45 46 49 51 55 53 50 47 44 44 41
67 68 59 52 51 54 52 52 52 57 57 57 56 56 52 44 40 36 36 34 37 47 50 53 55 56 54 54 52 49 44 43 47 48 50 51 51 47 42 40 38 36 32
52 52 52 52 52 53 54 56 58 60 57 59 59 55 49 41 37 37 33 37 45 47 49 52 53 49 48 44 44 43 42 43 45 46 47 50 47 41 37 34 31 29 27
52 53 54 54 53 54 55 56 57 58 60 59 54 50 43 38 36 34 39 44 47 50 52 50 45 44 44 45 40 38 38 38 38 43 46 43 37 37 33 29 27 26 26
55 57 56 58 61 62 65 64 62 59 63 53 46 41 36 34 37 43 46 46 46 44 46 46 44 41 40 39 34 34 35 34 36 38 33 35 34 30 26 25 26 26 26
68 66 64 64 72 73 69 64 59 53 46 41 43 40 35 38 45 50 47 46 46 44 43 41 42 40 39 37 36 36 31 31 30 27 28 29 27 24 23 24 25 25 26
66 76 74 74 75 79 65 66 61 59 49 51 46 40 43 48 46 47 46 46 43 43 41 38 38 37 34 33 34 34 27 25 24 22 22 24 20 20 22 23 24 25 25
66 63 68 72 70 81 80 61 55 50 58 54 54 55 54 60 55 53 53 47 40 41 43 39 36 35 37 33 33 30 27 24 21 21 22 20 18 20 22 23 24 23 24
67 72 70 72 74 71 67 57 62 59 57 58 50 60 64 73 65 56 54 46 37 44 48 39 36 36 38 34 34 31 26 21 19 21 21 20 17 20 21 22 21 22 25
75 81 77 65 61 71 74 72 60 59 62 63 73 70 75 69 60 59 56 49 47 47 49 41 34 36 38 35 32 30 27 20 18 18 16 13 14 19 21 20 21 21 24
59 54 70 78 64 64 66 71 65 61 60 67 73 72 69 62 60 58 53 46 44 40 37 35 34 35 37 38 32 28 25 21 18 16 14 13 13 19 20 20 19 20 21
65 62 62 58 70 67 70 73 76 65 79 74 73 69 64 57 51 49 49 45 36 35 33 33 33 33 33 32 32 30 25 20 17 12 10 11 13 18 19 21 19 19 20

GFSGL_prec_cthk_018.txt.gz
RH
34 31 27 24 23 25 30 28 29 39 41 42 43 43 45 48 50 51 53 47 48 51 50 50 47 48 57 59 55 55 60 64 70 72 75 73 72 68 68 66 65 62 54
34 35 31 26 22 25 29 25 31 39 40 41 43 46 48 49 50 52 54 53 48 48 51 52 52 51 54 56 58 57 61 67 71 71 72 74 73 74 75 74 75 72 66
34 34 34 28 21 23 24 27 30 35 37 40 42 47 51 50 50 52 54 57 56 51 50 50 52 53 54 58 58 56 58 67 71 71 75 75 75 77 77 77 79 78 76
34 33 32 28 20 20 23 26 30 29 31 37 42 48 49 51 54 56 61 61 62 60 52 47 49 52 55 62 64 59 61 64 69 72 77 79 77 78 80 76 77 77 74
33 30 29 27 22 19 22 25 27 29 31 35 39 41 45 50 53 56 60 62 67 68 63 53 50 55 58 63 69 62 61 64 68 74 87 85 82 76 77 76 72 69 64
35 29 29 28 24 20 22 25 25 28 32 34 36 39 43 48 55 59 62 69 70 67 64 60 54 58 58 64 76 72 66 70 78 90 91 90 84 82 80 74 66 63 55
33 31 30 30 24 21 22 27 27 28 32 36 39 44 48 56 63 67 69 69 68 68 68 62 56 57 61 70 82 76 78 79 85 89 88 92 91 83 76 65 64 62 57
32 32 33 32 30 24 24 27 30 33 36 39 43 48 57 66 76 72 66 64 67 69 69 64 55 55 64 75 78 78 82 83 83 91 93 92 86 78 69 65 65 60 56
33 30 35 38 36 32 26 26 31 36 38 43 50 59 67 49 69 64 68 70 69 68 62 61 61 66 69 74 76 81 81 82 87 92 92 89 79 74 71 67 62 57 55
31 27 27 34 40 38 31 26 33 40 45 50 51 58 61 65 60 68 71 71 65 61 55 58 63 63 65 72 74 79 82 79 84 85 87 83 76 72 67 60 55 53 57
33 30 30 32 41 43 40 35 36 43 52 56 58 70 76 65 63 64 63 63 63 58 52 56 60 62 61 69 75 75 79 86 85 84 81 75 66 59 56 51 49 50 50
34 35 33 31 43 46 46 43 44 51 55 62 80 68 70 65 60 61 63 57 56 53 53 57 58 57 58 61 74 81 80 80 80 73 65 58 52 50 48 49 51 52 53
38 37 36 33 41 45 47 51 54 57 63 71 71 64 62 60 58 57 59 58 55 52 52 51 49 46 46 57 62 66 66 65 61 59 54 49 43 45 46 49 52 55 54
41 36 36 34 37 43 51 54 57 62 67 67 64 59 54 56 57 58 58 57 53 51 47 46 42 46 54 56 58 58 56 54 53 49 41 41 42 43 46 49 50 46 41
48 46 47 44 46 51 61 65 65 68 67 67 57 53 54 57 59 58 55 52 45 40 39 43 50 52 50 54 52 51 50 47 45 40 40 42 43 47 49 48 42 37 36
49 46 77 63 69 78 72 85 85 78 59 57 54 53 57 57 54 50 46 40 33 31 38 45 48 47 46 45 44 43 42 41 40 40 38 42 43 44 46 45 36 31 28
56 58 57 59 67 86 71 72 70 58 56 54 53 54 53 53 50 45 44 36 27 32 37 41 42 41 38 36 37 38 36 34 35 35 37 39 39 42 42 34 28 27 28
78 92 68 62 51 53 50 62 59 54 53 56 62 65 63 59 52 51 46 29 32 39 41 41 39 37 35 35 36 35 32 31 33 34 35 36 34 32 29 26 23 24 25
67 67 61 52 50 58 60 59 64 64 63 64 65 66 60 47 38 32 29 33 40 42 38 36 36 37 33 34 35 35 32 31 32 31 31 28 25 23 22 20 20 22 23
63 64 59 54 57 60 55 54 61 62 62 61 59 54 51 41 38 36 36 42 43 40 37 37 39 37 32 34 34 34 31 29 24 22 21 20 21 22 20 18 20 22 23
59 63 63 63 63 58 60 65 65 66 68 72 63 56 48 43 39 44 42 43 45 40 37 36 39 36 35 36 33 31 31 30 22 19 19 20 21 20 18 19 21 23 21
75 76 74 73 73 73 69 65 77 77 71 69 58 50 47 49 47 48 50 50 49 44 37 35 39 40 36 34 34 32 29 26 23 19 18 19 20 19 17 19 21 21 21
76 81 77 70 70 72 70 75 84 80 67 66 84 83 69 62 51 59 61 59 58 51 44 40 39 48 36 34 32 34 30 28 25 20 18 19 18 15 17 19 20 20 20
76 72 68 71 73 77 80 79 70 75 83 81 72 80 75 68 69 66 72 71 55 56 51 46 50 46 37 34 34 36 33 27 25 18 15 15 13 11 15 18 20 21 20
77 75 80 78 80 80 78 79 70 79 83 80 72 68 65 63 66 68 69 63 53 50 50 50 43 37 35 33 33 36 32 26 23 18 16 14 12 11 13 17 19 20 20
75 82 84 72 78 85 84 78 69 72 72 71 70 74 74 68 70 72 65 53 50 50 48 43 39 35 34 33 32 32 30 27 21 17 14 11 10 11 14 16 18 19 19

GFSGL_prec_cthk_021.txt.gz
RH
36 37 38 31 27 27 29 28 28 29 32 37 40 43 46 49 46 48 50 53 48 46 48 47 47 46 45 49 59 59 57 56 61 64 65 69 68 72 72 72 71 73 74
36 36 37 36 28 26 26 29 25 27 31 36 41 42 45 48 49 50 50 54 57 54 47 49 48 48 49 47 53 60 60 60 58 65 68 70 73 73 72 74 73 73 76
37 35 34 36 31 24 23 28 24 26 32 35 39 41 43 47 49 49 51 55 59 63 63 58 59 54 54 53 52 59 61 63 57 63 66 72 72 77 77 75 76 78 75
37 35 32 33 33 25 21 27 25 26 31 33 38 41 44 50 51 52 55 58 61 66 70 71 63 58 56 55 54 56 59 61 56 60 66 73 79 81 79 79 78 77 74
36 35 32 34 35 30 22 24 25 27 30 34 37 40 43 47 49 51 53 55 61 67 71 73 69 64 55 54 53 56 63 67 60 64 73 77 82 87 88 87 88 81 74
39 34 34 35 35 32 25 21 25 27 28 30 33 37 38 41 43 45 51 55 59 67 69 73 71 67 59 52 53 55 65 74 68 69 73 76 75 89 89 92 91 82 68
37 35 35 35 35 31 31 23 22 25 28 29 31 34 34 37 39 44 54 62 64 69 72 70 69 66 62 54 55 58 66 74 74 86 79 74 79 91 93 95 87 76 72
37 37 39 36 33 32 31 28 24 25 26 27 30 33 36 37 41 50 61 67 72 68 70 72 67 63 61 56 54 59 64 70 75 81 79 80 88 93 92 90 79 74 70
37 38 36 35 35 34 31 31 29 29 29 28 30 36 38 42 52 62 66 71 71 68 73 70 65 59 54 55 56 63 66 72 76 84 83 83 84 87 81 73 70 72 62
37 37 35 34 37 37 36 35 35 31 32 33 36 39 43 55 64 65 66 73 69 70 70 65 61 54 54 56 59 61 65 70 82 78 76 80 78 76 69 62 59 53 50
38 33 37 38 35 36 41 42 37 35 35 38 41 44 54 62 59 50 52 65 69 73 63 61 57 51 51 55 57 57 59 66 71 70 72 70 66 58 53 45 42 43 45
43 39 41 42 39 37 39 44 47 46 41 40 48 55 59 59 55 57 51 64 67 61 58 56 57 53 51 52 50 51 57 66 68 65 61 56 50 43 38 39 41 43 45
39 43 41 41 42 43 42 47 51 54 51 50 51 57 58 60 63 66 56 59 62 59 56 57 58 50 45 42 41 50 56 60 61 56 47 41 38 33 33 35 39 41 41
37 35 36 40 43 35 42 59 48 57 62 59 64 65 66 63 64 63 53 59 58 56 56 55 51 45 36 41 46 49 52 53 47 41 36 34 33 35 34 37 42 41 38
30 36 36 39 42 50 56 58 55 65 72 72 77 83 77 65 52 55 54 53 52 55 51 52 49 40 42 44 43 45 44 40 38 36 33 34 32 33 36 38 37 38 33
33 32 37 43 47 51 50 56 73 76 79 90 93 95 83 74 55 57 55 60 57 53 44 54 55 41 44 42 41 39 39 38 35 35 32 32 32 33 33 34 35 31 25
45 50 46 54 56 66 74 72 64 89 96 91 67 64 64 56 55 59 62 58 51 43 40 38 38 40 39 36 35 34 34 33 30 28 28 30 30 30 30 30 25 23 19
51 56 57 62 79 87 81 68 65 55 81 88 79 67 63 58 63 60 59 51 46 38 31 30 37 36 34 32 32 33 33 29 28 26 27 28 28 27 24 21 21 19 18
62 74 85 88 94 96 93 80 72 62 79 75 56 57 59 61 58 53 54 48 44 42 43 34 36 33 31 31 31 32 30 28 27 26 26 23 22 20 19 20 19 18 20
76 71 91 94 69 71 82 75 72 72 66 62 66 63 61 58 52 57 55 55 44 39 37 33 34 32 32 32 32 31 29 27 24 23 21 18 18 18 19 20 17 18 20
86 80 79 67 70 71 69 69 72 68 72 72 69 67 64 65 65 67 56 46 42 37 37 36 34 34 34 34 33 31 29 27 25 24 19 17 17 18 18 17 17 18 20
83 76 60 58 63 63 62 64 64 66 72 71 70 66 62 58 59 55 51 51 45 41 43 44 36 34 34 36 36 31 31 29 26 25 21 17 17 18 18 17 16 18 19
67 68 69 71 76 78 79 78 76 76 80 80 73 67 60 62 59 61 61 55 52 51 56 53 50 45 41 38 37 34 31 28 27 25 22 16 16 17 16 13 15 17 18
83 76 77 77 79 80 80 81 89 89 86 79 80 77 80 76 74 73 62 60 63 59 59 57 53 50 52 48 39 34 33 28 25 23 19 17 15 14 12 11 14 17 18
78 76 78 77 77 79 81 82 85 85 83 79 81 83 81 78 74 69 64 60 62 64 62 57 50 48 51 40 38 35 33 27 21 20 19 17 15 15 13 12 13 17 18
82 86 79 79 80 85 87 87 86 83 83 83 79 83 85 78 77 71 69 71 69 66 64 50 47 45 41 40 35 33 29 30 27 22 18 16 14 10 10 11 15 16 19

GFSGL_prec_cthk_024.txt.gz
RH
37 35 35 35 36 35 32 32 29 30 28 30 36 40 41 46 49 49 47 48 48 44 46 49 51 53 51 51 49 51 58 57 56 56 58 63 66 70 72 75 75 76 76
36 38 36 36 37 36 31 29 27 31 29 31 35 40 41 43 47 48 49 51 54 56 56 56 55 56 56 51 49 47 51 57 59 60 56 62 67 70 74 75 76 76 76
35 36 37 36 36 37 33 28 25 29 29 29 33 38 38 41 46 47 49 48 53 55 61 67 66 57 62 57 51 47 46 50 57 60 59 59 65 71 74 76 79 81 79
38 35 33 34 32 34 34 27 24 27 28 30 33 37 38 43 46 46 46 49 55 60 64 70 71 67 65 56 53 52 48 48 54 57 62 56 65 70 73 72 73 84 81
40 36 32 33 35 35 35 31 21 24 25 26 32 36 38 39 42 46 47 49 56 58 62 68 72 76 72 61 50 53 53 51 52 56 64 58 63 72 72 67 66 74 83
40 35 36 36 38 38 35 35 27 22 27 27 32 34 36 37 42 47 48 47 52 58 64 68 71 75 71 64 57 50 50 53 53 55 63 66 66 78 74 71 74 82 86
39 39 38 38 37 37 38 36 32 22 24 25 30 33 35 40 44 46 47 44 47 54 63 67 73 71 65 68 62 50 45 52 55 58 65 73 72 77 72 74 83 89 89
41 42 39 38 38 39 41 38 33 31 23 23 27 31 35 38 41 43 42 41 45 54 61 68 70 67 66 67 61 52 47 53 57 57 68 71 69 74 72 74 75 76 68
34 34 36 36 38 40 42 37 33 35 31 24 25 29 32 34 35 38 40 41 46 52 63 66 67 65 68 67 58 51 50 54 63 65 67 67 73 68 66 69 67 63 55
35 35 39 39 42 39 40 40 38 38 37 33 29 29 31 31 32 34 40 43 47 52 56 64 62 61 63 60 52 47 51 58 61 60 59 63 66 63 62 56 47 41 37
31 33 38 44 45 45 48 49 49 47 43 41 34 31 36 37 33 33 39 48 52 51 56 60 62 60 60 56 50 48 51 55 56 55 59 62 64 58 46 37 33 32 31
37 37 36 37 43 49 43 46 44 54 53 49 46 41 35 36 38 37 50 57 57 59 64 63 60 56 49 48 49 49 44 49 53 55 59 59 52 41 34 31 29 30 32
44 43 43 47 55 57 45 43 49 43 61 63 58 55 50 41 38 45 54 55 58 64 67 64 55 50 44 46 53 49 43 49 52 52 51 44 36 32 30 29 31 32 33
40 43 45 45 53 57 53 59 55 49 47 41 58 73 58 47 53 67 63 68 66 69 65 61 53 50 47 45 44 47 44 45 48 45 37 32 30 31 30 30 32 32 32
29 34 37 41 42 45 51 53 66 51 60 70 65 72 68 82 78 78 86 83 71 67 62 58 53 52 44 38 40 42 44 43 42 33 31 30 30 30 30 30 29 30 28
26 27 28 30 35 41 48 53 55 59 65 77 76 61 80 78 99 98 81 95 76 62 65 57 53 43 41 43 44 39 41 37 33 32 31 30 28 28 29 28 26 25 21
27 27 29 30 31 32 41 48 57 62 67 71 76 78 71 62 70 86 83 81 67 73 65 53 48 48 44 54 44 39 35 32 31 29 26 23 26 27 26 24 21 18 17
27 26 26 28 33 41 44 50 58 60 68 75 73 73 70 69 66 67 84 79 76 68 56 52 52 48 49 46 38 34 31 29 28 28 23 22 25 24 21 19 16 16 16
37 40 48 47 42 38 51 58 62 71 79 84 90 86 74 62 65 66 77 74 63 53 52 54 50 49 41 38 36 32 28 27 27 24 22 22 23 19 15 15 15 15 14
47 60 67 78 93 89 74 66 62 59 68 74 85 96 79 71 69 77 67 62 59 59 58 56 47 42 36 35 33 32 28 27 25 21 21 20 17 14 15 15 14 12 14
53 61 68 78 97 95 83 60 54 61 65 74 74 93 84 71 53 53 59 61 62 60 62 51 43 46 36 35 35 32 30 29 25 24 22 19 16 14 14 15 14 13 14
56 62 67 77 80 82 76 68 59 56 63 66 77 82 72 59 66 66 67 68 65 60 51 48 50 47 40 41 38 34 30 31 28 26 23 22 18 15 15 16 15 13 14
59 65 67 70 76 73 74 73 63 79 79 79 79 72 72 72 71 65 60 55 54 56 57 58 53 54 55 50 47 40 33 33 31 25 23 21 17 14 14 14 12 12 14
69 73 80 75 75 78 79 74 75 81 79 80 83 83 75 70 68 67 66 68 70 72 75 62 58 56 53 57 52 43 39 35 31 26 22 19 16 16 14 12 10 11 13
76 78 79 81 83 84 93 89 88 87 88 90 88 85 86 82 79 82 79 81 84 82 76 67 63 59 56 56 55 43 38 34 30 22 18 17 15 15 15 14 11 10 12
85 88 84 82 85 83 89 97 97 95 93 92 90 90 91 90 91 92 90 88 87 87 84 72 67 65 63 56 47 38 35 33 28 23 20 16 14 14 11 10 10 12 13

GFSGL_prec_cthk_027.txt.gz
RH
37 35 31 30 33 36 35 31 30 30 32 32 30 36 40 43 45 48 50 48 47 44 44 46 50 50 48 53 49 46 41 43 48 54 51 54 56 60 63 65 66 67 69
36 38 37 34 35 34 34 35 35 27 30 34 30 33 38 40 42 45 47 47 46 44 46 47 51 50 51 52 50 48 45 43 45 48 52 52 53 57 61 65 68 68 70
37 37 39 39 35 35 36 36 35 29 25 29 32 31 35 37 39 41 45 47 45 47 49 52 56 58 56 55 51 49 48 47 45 45 50 51 54 52 60 66 67 69 68
33 34 36 36 34 34 35 36 36 31 25 25 28 29 32 36 38 39 42 46 45 44 47 52 57 60 62 62 53 54 50 48 46 45 48 50 55 61 57 63 67 66 67
34 34 34 35 35 35 34 34 36 35 26 22 26 27 29 34 36 37 40 44 44 43 45 51 55 59 63 65 61 58 54 49 45 46 48 50 53 57 57 63 64 67 62
35 35 36 35 35 34 35 37 38 38 35 23 24 25 25 28 32 35 38 40 41 41 45 49 54 58 67 69 69 65 57 51 44 47 49 52 53 57 65 60 66 76 71
38 40 39 37 37 36 36 39 40 39 39 29 23 24 24 29 30 34 36 37 38 39 43 46 49 57 67 73 70 64 64 57 47 43 48 52 53 58 69 66 69 67 68
40 39 41 41 39 41 42 40 39 40 39 35 27 25 22 25 30 32 36 38 36 38 42 45 48 57 66 71 69 66 65 65 51 44 46 51 53 58 61 67 68 63 65
36 36 35 40 41 40 42 42 42 44 43 36 32 29 25 22 26 33 38 38 37 38 41 43 48 56 66 71 69 68 68 67 55 47 45 46 51 52 56 61 59 58 52
31 28 33 37 42 43 43 46 49 44 43 43 36 33 29 28 28 31 37 39 39 40 42 43 50 55 66 68 70 69 67 66 58 50 45 46 47 49 55 56 56 44 39
33 35 38 39 40 44 49 55 57 55 59 48 45 39 35 30 30 32 37 41 38 37 40 46 56 59 67 71 70 71 66 58 55 57 46 43 46 48 53 48 39 33 30
30 32 33 34 37 39 42 52 42 57 70 69 64 56 49 41 39 30 31 38 42 42 40 52 63 65 67 69 69 68 60 53 57 56 40 40 44 48 43 37 30 25 23
33 36 36 37 37 39 39 45 52 67 64 68 70 69 63 64 55 50 47 45 45 47 48 63 76 73 75 75 69 65 58 54 53 43 39 42 47 43 34 30 28 24 24
25 27 35 38 40 42 44 47 47 52 51 47 55 66 60 52 66 56 59 56 57 49 55 75 82 87 76 72 70 64 60 52 46 38 40 40 41 31 29 29 28 26 26
24 25 29 34 36 39 40 44 45 42 46 40 50 58 54 46 56 71 70 71 73 88 84 91 85 79 73 70 68 65 54 44 41 38 38 36 31 26 29 29 26 26 24
22 22 22 25 28 34 36 35 39 40 43 48 54 58 48 46 49 55 71 78 66 71 91 98 91 81 72 70 66 62 48 43 44 36 34 31 28 28 31 25 25 24 23
26 26 28 27 31 33 31 32 33 37 42 49 48 50 52 62 64 76 80 83 78 83 95 87 75 66 70 66 63 58 50 43 40 31 31 31 29 28 23 23 23 21 19
28 24 24 30 34 38 39 42 41 43 44 49 51 56 63 70 74 78 72 71 74 84 77 72 71 72 61 62 59 55 44 41 32 32 30 27 23 22 22 22 20 17 16
32 31 32 33 37 42 45 50 51 51 51 52 56 62 67 66 66 67 66 68 76 79 89 77 74 59 64 61 56 50 46 35 34 29 27 23 20 20 20 18 16 15 15
37 36 38 43 46 52 58 60 65 73 85 77 65 60 64 68 68 63 59 62 63 89 87 83 65 63 61 62 50 43 39 36 32 28 26 22 19 19 17 15 14 17 17
45 44 45 42 47 54 55 62 73 87 96 95 99 89 85 72 67 67 67 82 73 79 74 65 57 59 62 60 50 41 41 35 32 28 25 22 19 16 14 15 16 18 18
52 53 54 52 54 53 58 62 71 81 90 92 88 82 80 85 78 84 79 79 69 69 62 58 56 58 52 46 43 44 39 39 35 30 27 23 19 17 16 15 16 18 18
57 61 60 61 67 61 60 71 77 78 80 78 78 83 89 89 88 83 71 60 63 65 64 59 52 50 48 48 49 49 50 46 42 36 28 23 20 20 17 16 17 18 17
64 67 66 64 69 74 76 80 80 79 83 91 91 89 84 80 77 72 69 67 68 63 58 53 53 54 57 55 52 52 54 50 47 40 30 24 22 20 17 15 17 14 15
63 70 73 77 81 77 76 83 86 82 83 87 92 88 84 81 81 76 71 66 62 60 59 65 68 69 66 63 54 51 52 52 48 36 31 23 21 19 17 15 15 14 14
71 74 81 84 84 81 81 85 86 89 93 94 91 89 90 91 87 81 80 76 75 75 78 80 79 76 70 67 61 57 55 51 38 35 30 21 19 18 16 14 13 13 14

GFSGL_prec_cthk_030.txt.gz
RH
30 24 22 22 23 25 27 26 26 27 28 32 29 25 30 37 36 38 42 44 41 41 41 43 44 47 50 52 52 51 47 46 45 48 47 45 40 42 50 48 52 56 63
33 32 28 26 23 24 25 27 29 28 27 27 29 27 28 36 38 36 41 44 41 41 41 41 42 45 47 51 50 50 49 52 48 47 48 46 43 45 41 43 51 58 60
38 35 32 31 30 29 29 32 33 32 28 26 26 26 25 30 36 34 37 40 40 39 40 41 43 47 49 53 51 53 54 53 52 50 48 47 45 48 50 48 51 53 57
41 38 34 30 31 32 34 34 34 35 34 28 25 23 23 25 33 33 33 35 38 38 39 42 44 50 52 55 56 54 54 57 58 55 52 46 47 47 49 53 59 55 61
41 41 35 32 33 34 35 35 35 35 39 39 32 24 22 25 27 29 29 31 35 37 38 40 42 47 51 55 61 63 65 65 62 63 60 50 48 51 53 54 51 55 63
39 37 37 36 37 35 36 35 37 38 40 42 40 34 24 21 23 26 28 29 32 33 35 38 43 45 48 51 59 65 65 70 69 66 66 59 54 49 54 54 53 61 60
37 40 42 39 37 38 40 41 37 38 41 40 41 40 31 22 20 19 24 27 28 32 35 40 42 44 45 48 56 63 65 69 70 67 67 62 61 57 55 49 53 58 63
34 38 39 38 42 44 43 42 42 40 40 42 42 42 38 29 24 21 23 30 30 32 34 37 40 42 44 48 52 58 66 69 68 69 69 65 63 59 51 46 51 52 58
31 37 37 40 44 47 45 43 46 53 54 53 54 56 47 36 32 26 24 28 29 31 33 36 39 41 45 46 52 58 66 71 68 75 75 67 61 55 51 50 51 54 60
28 34 39 41 45 43 43 49 50 51 54 55 56 55 55 47 40 39 31 30 34 35 36 38 39 41 45 47 52 62 66 72 71 73 74 62 58 54 54 48 50 51 51
35 39 39 35 36 39 42 45 47 49 53 52 54 53 52 53 46 39 37 33 31 35 40 42 43 42 44 45 49 61 72 80 78 74 68 65 58 51 49 47 47 45 40
26 28 29 30 35 36 39 41 42 43 42 44 51 52 41 45 47 44 39 36 39 42 37 37 40 40 43 47 49 58 75 79 78 77 69 64 61 51 48 45 42 35 27
25 27 29 32 32 31 33 36 38 40 43 43 43 48 46 41 48 46 44 54 45 46 55 54 48 46 47 51 54 67 70 75 79 77 71 65 64 50 46 43 33 24 21
20 22 26 33 35 37 40 42 42 45 45 43 44 43 42 47 48 49 49 58 63 62 63 63 65 68 70 67 66 78 85 78 74 77 70 67 62 53 44 39 28 24 25
21 23 25 27 32 34 34 36 37 43 44 46 46 48 50 47 50 50 49 53 56 66 69 78 87 82 86 80 87 91 88 81 73 72 68 70 54 55 43 34 27 26 26
26 24 24 27 30 28 29 31 32 34 35 38 39 41 44 46 47 47 48 57 62 61 72 81 86 95 86 80 93 95 94 84 73 69 64 67 59 49 37 32 23 26 25
24 25 27 28 28 33 34 36 36 35 31 32 34 38 38 35 37 42 53 69 71 74 78 79 74 77 75 81 84 98 94 84 71 60 73 68 54 41 35 30 24 24 22
28 28 32 32 33 34 34 34 35 34 33 33 37 39 41 44 45 54 60 60 63 71 66 68 75 72 73 77 82 81 96 78 65 66 62 54 43 39 34 26 23 23 21
36 37 36 36 33 32 33 34 36 37 39 41 41 46 53 58 62 62 67 67 65 68 69 74 78 72 75 78 81 80 79 66 64 64 59 51 41 36 28 23 22 22 18
42 39 40 40 37 39 41 40 42 45 48 52 54 55 60 67 72 69 74 75 80 69 72 80 74 72 74 83 89 79 68 64 66 64 56 45 38 30 24 21 20 19 16
49 48 42 44 43 43 44 44 46 50 53 53 56 60 65 72 94 99 98 96 80 80 79 79 75 70 80 82 78 63 63 67 71 60 50 45 33 27 23 22 19 17 15
48 49 51 54 55 50 53 53 54 55 56 55 59 63 69 74 80 86 96 97 92 85 80 77 85 88 88 71 56 62 70 69 63 56 49 38 31 26 23 20 18 16 16
56 55 57 60 65 61 57 57 61 60 54 60 68 72 76 84 89 92 97 98 94 89 88 89 93 80 74 66 63 65 62 55 51 50 45 38 34 29 24 21 20 18 18
67 68 67 68 69 69 65 64 62 65 71 69 78 82 84 86 91 97 99 99 99 98 90 83 79 73 69 63 58 53 54 58 59 54 47 45 41 33 25 22 19 17 18
67 67 70 79 80 78 71 68 69 74 82 85 85 88 90 84 88 88 86 80 75 71 73 69 67 66 60 56 58 62 66 62 56 52 50 48 44 37 28 24 21 19 17
75 74 73 78 81 81 78 79 82 84 83 91 93 93 91 87 83 82 80 79 79 80 77 73 69 64 63 63 65 69 67 58 52 52 47 42 38 31 27 24 21 20 19

GFSGL_prec_cthk_033.txt.gz
RH
16 15 18 18 18 20 23 24 24 24 25 25 28 28 25 23 28 36 36 42 39 39 41 42 42 44 47 51 49 50 53 52 50 51 54 50 42 36 39 39 42 46 48
31 29 23 21 20 20 23 26 26 28 27 27 28 28 29 25 27 34 37 36 40 41 41 39 39 40 41 46 51 49 52 54 54 53 55 57 48 43 36 38 40 49 53
38 36 33 28 22 20 20 20 21 23 26 26 26 27 26 25 24 28 34 31 36 39 38 38 37 39 40 41 44 50 50 49 56 56 56 56 56 50 46 43 43 49 51
46 45 40 37 28 25 25 24 24 25 26 26 27 26 24 21 23 21 26 30 30 34 36 36 37 39 39 38 43 47 51 53 56 64 66 62 61 58 57 56 55 54 52
47 47 43 41 38 35 35 31 30 28 28 34 37 37 33 27 22 20 20 25 26 28 33 35 38 40 41 41 43 46 50 55 59 62 69 67 65 61 60 64 63 57 53
39 41 46 46 43 39 39 37 34 31 32 35 36 38 39 37 31 23 21 22 26 29 31 35 35 38 40 40 40 46 50 54 60 66 67 69 66 63 67 68 69 63 62
35 39 42 45 44 43 41 42 40 37 35 34 36 39 41 43 39 32 23 24 23 25 29 31 33 37 38 41 40 43 46 49 54 60 67 72 68 67 67 69 62 58 56
31 36 37 40 42 45 44 43 43 46 45 42 40 41 41 41 43 38 32 27 25 24 25 27 31 34 35 37 40 42 44 47 52 60 65 70 69 70 64 65 55 52 55
31 30 33 35 41 44 39 41 44 47 48 45 46 47 46 43 45 45 39 35 30 26 25 31 33 33 33 33 38 43 44 48 51 54 67 72 68 72 65 64 63 53 55
28 29 34 35 36 42 42 41 45 46 45 50 50 47 44 42 44 46 47 40 36 36 30 31 33 33 34 34 38 45 46 47 54 51 60 72 72 71 66 61 62 59 55
30 29 30 33 32 39 42 39 44 46 48 48 49 48 45 41 40 45 49 50 42 39 38 38 32 30 34 39 40 45 48 54 55 58 65 76 78 76 64 59 58 61 56
21 24 29 32 32 40 42 43 44 47 47 49 49 48 45 42 40 43 45 49 47 49 48 45 46 42 42 45 47 51 56 58 61 61 69 80 80 72 67 64 60 60 56
15 18 23 31 32 36 41 42 44 45 41 42 44 43 41 42 45 46 45 47 46 51 56 52 53 56 54 54 58 59 62 64 64 64 82 76 86 74 75 72 61 60 51
17 19 23 27 31 35 35 38 42 44 43 40 44 41 38 42 45 46 47 51 54 56 55 65 65 58 59 64 67 68 68 76 71 73 81 86 97 81 79 73 63 54 49
21 21 24 27 30 33 34 38 42 44 47 46 47 49 48 48 43 47 52 53 54 58 67 74 70 68 68 69 70 68 74 75 89 82 76 80 98 93 81 60 65 67 54
26 28 28 28 29 29 32 33 34 36 40 45 46 42 41 45 45 48 49 52 52 58 66 73 75 72 69 69 75 80 86 83 86 86 86 89 97 95 75 70 71 67 43
32 30 31 29 33 34 35 35 37 39 40 41 40 38 36 36 39 45 46 48 48 56 60 63 66 63 67 72 80 89 87 84 89 90 88 92 91 93 74 66 68 56 40
27 26 29 28 30 32 34 35 36 37 38 41 39 38 36 35 37 39 44 52 52 53 58 61 59 63 69 78 88 94 91 91 91 94 90 92 96 79 67 62 63 51 37
36 36 35 34 33 33 31 31 32 34 35 37 36 35 38 38 38 40 41 47 51 50 54 57 63 65 69 78 85 89 89 82 98 94 90 90 80 70 62 61 62 48 34
39 38 41 42 42 42 41 40 40 39 39 38 37 35 34 35 36 38 44 57 63 63 63 69 77 73 82 83 90 90 90 83 89 93 87 79 69 64 61 64 54 38 28
47 48 46 48 44 43 47 48 45 44 43 44 42 39 38 39 43 44 44 50 64 72 88 99 99 96 94 89 92 88 86 84 85 86 72 67 69 65 61 51 44 34 27
53 54 55 56 52 51 50 48 48 46 45 46 49 50 49 49 50 55 56 59 66 78 87 92 97 98 97 95 88 85 87 89 87 70 68 68 72 64 58 46 39 29 24
63 62 63 62 61 59 56 54 52 53 52 54 55 58 60 62 65 65 64 68 72 83 88 89 88 96 96 95 91 90 91 82 68 70 75 69 61 56 47 39 31 27 24
72 73 76 73 70 69 67 62 59 59 58 61 65 68 71 70 71 73 73 80 85 89 93 99 97 95 95 94 93 84 77 76 76 74 63 54 52 50 44 37 36 32 28
76 75 81 80 80 72 68 67 67 67 69 72 74 75 77 79 81 78 79 85 90 89 92 98 98 93 90 83 78 74 70 67 63 56 55 56 58 53 46 43 41 37 31
81 83 81 79 75 73 71 71 73 73 76 81 82 81 86 89 85 83 84 88 89 85 82 80 81 81 77 74 70 66 62 57 57 61 63 60 55 50 44 41 42 38 32

GFSGL_prec_cthk_036.txt.gz
RH
12 10 10 11 12 15 16 18 20 24 26 25 33 26 27 28 25 24 32 36 35 38 37 36 36 39 41 46 48 49 50 49 51 50 54 54 55 54 50 48 45 45 43
17 16 15 16 17 17 17 18 21 24 27 27 30 32 27 26 24 23 23 31 36 35 35 35 36 35 38 42 47 48 50 52 53 55 56 56 56 58 54 52 50 48 52
33 30 27 21 20 19 18 18 18 20 23 26 28 30 26 24 24 23 20 22 30 34 36 37 37 38 38 39 41 43 46 48 49 50 53 57 58 56 58 56 55 55 55
38 38 38 37 32 24 21 22 21 21 21 22 23 26 29 26 23 23 25 23 25 31 35 35 36 35 36 39 40 39 41 44 46 47 49 56 60 61 58 59 56 57 55
42 44 44 42 41 38 31 28 26 23 23 21 24 27 30 32 29 23 21 22 21 21 27 33 35 34 34 35 37 38 40 39 44 46 47 50 59 65 62 62 61 61 62
43 42 44 44 45 42 42 37 36 32 28 28 28 28 31 35 34 30 26 21 21 21 21 23 28 30 30 31 32 35 36 39 42 44 48 48 51 64 70 68 65 63 65
38 38 40 42 43 44 44 43 40 39 38 33 31 31 31 33 37 37 35 31 25 22 20 20 22 24 28 30 32 35 38 37 40 45 48 54 51 56 67 70 70 64 63
36 36 36 40 42 43 41 43 44 42 41 41 42 39 34 32 34 39 42 41 39 33 30 27 26 24 25 25 26 29 32 33 33 38 44 51 57 57 62 67 73 74 68
33 33 34 34 38 38 36 41 44 45 44 43 43 44 43 41 41 41 44 46 45 43 42 39 35 33 29 28 29 28 30 31 36 41 46 52 56 57 66 71 72 72 71
33 32 33 34 34 36 37 38 42 46 45 46 45 44 44 43 45 47 50 55 51 50 54 50 46 45 43 37 41 38 35 36 41 43 48 52 60 60 64 73 76 74 68
31 33 33 32 32 33 39 39 40 44 47 42 41 45 44 43 44 46 47 50 47 49 51 50 52 47 46 50 51 46 43 43 38 43 49 58 61 67 66 76 81 77 72
23 29 31 33 33 33 36 41 42 39 43 43 41 43 42 43 48 46 46 49 53 58 55 55 57 59 58 52 47 51 53 54 52 51 52 55 59 62 64 81 89 88 84
16 17 20 25 28 31 35 42 43 41 45 48 44 44 50 49 46 47 49 50 51 56 56 56 60 63 65 64 64 62 59 59 60 69 65 57 60 67 76 77 87 94 91
16 17 16 18 20 23 29 37 40 40 41 46 47 50 53 53 51 50 49 49 51 52 54 56 61 63 62 64 66 68 74 75 68 74 79 75 78 79 82 84 89 91 90
19 20 20 21 24 27 30 34 42 43 44 48 48 47 48 51 54 53 51 49 46 44 49 52 53 59 66 61 60 66 72 76 81 83 83 88 92 93 84 91 94 92 88
25 25 24 27 30 31 34 34 34 40 42 43 42 43 43 42 43 44 43 44 48 42 40 41 42 45 49 52 58 60 68 72 79 85 92 95 99 93 91 89 96 92 87
31 31 31 31 39 38 38 37 37 38 37 38 37 35 35 35 35 36 38 40 43 49 48 46 43 42 43 51 52 54 63 73 78 93 96 89 88 86 96 96 95 88 89
35 36 34 35 37 38 40 39 39 38 38 37 35 36 37 38 39 40 39 39 39 41 43 48 46 48 52 52 51 59 64 72 78 84 88 90 95 88 96 96 94 93 78
35 35 33 33 34 35 35 35 35 35 35 35 35 36 37 38 37 33 31 32 32 35 38 44 49 55 60 58 63 64 70 69 77 82 90 90 98 87 92 96 92 81 67
35 36 36 34 34 34 35 35 36 36 37 38 37 35 34 34 34 34 34 33 34 38 40 44 51 55 61 67 69 77 91 99 86 98 99 84 92 95 92 86 74 68 63
42 41 42 41 42 44 45 45 44 44 44 42 40 41 39 38 41 42 43 43 43 45 47 49 52 54 59 65 76 88 99 99 96 98 98 91 94 96 88 80 68 62 63
54 53 53 50 48 49 49 49 48 45 46 47 48 47 45 47 49 49 48 47 47 52 56 56 61 69 72 76 89 98 96 98 99 97 94 94 90 78 69 65 64 68 63
60 60 61 58 55 54 52 52 52 53 53 53 56 57 55 54 53 55 54 54 55 58 62 66 69 69 72 76 76 79 83 91 94 92 94 91 80 72 73 72 70 63 53
68 67 65 65 63 61 61 60 60 60 62 61 59 59 60 60 59 60 61 62 65 65 67 73 76 79 81 82 86 89 89 93 94 93 84 78 77 80 78 67 55 49 43
80 81 76 75 74 72 69 69 68 68 69 69 72 71 68 66 68 67 64 67 68 70 72 80 79 80 84 89 89 91 90 87 86 84 80 82 78 68 59 54 51 50 47
82 81 79 79 80 78 75 73 74 75 76 77 77 75 73 72 73 72 71 73 75 75 79 83 77 81 80 86 87 87 87 88 81 76 72 68 63 59 61 62 58 53 48

GFSGL_prec_cthk_039.txt.gz
RH
19 17 15 13 13 13 14 15 17 18 19 22 25 26 26 28 29 27 23 29 34 36 36 36 36 35 42 45 47 49 48 47 47 49 54 56 55 54 55 54 53 51 49
15 15 15 14 14 18 18 17 17 18 20 22 23 25 26 27 31 32 24 21 29 34 34 35 36 37 36 40 45 45 45 46 47 47 46 49 54 57 60 59 59 55 50
13 15 16 19 20 18 18 17 16 16 17 21 27 27 27 27 26 25 25 20 17 25 31 33 35 37 36 32 36 40 42 43 44 44 45 43 45 51 57 62 62 59 50
23 23 22 19 20 21 18 17 18 16 15 17 21 25 25 24 24 25 24 24 24 19 22 26 28 31 32 33 32 34 38 40 43 42 44 45 44 43 50 60 64 61 61
30 29 31 30 30 28 24 21 22 21 20 19 20 24 27 30 30 29 26 22 21 22 22 20 22 24 26 29 32 32 32 33 36 39 39 42 47 47 45 48 57 57 61
34 34 37 37 38 38 32 29 26 25 25 24 25 25 27 28 31 32 31 30 26 22 20 20 19 20 23 25 27 30 32 32 31 33 34 38 43 47 50 51 56 62 65
35 38 41 41 41 40 40 39 36 32 30 27 29 29 27 28 31 34 37 37 38 37 32 28 28 27 25 24 25 28 30 32 32 33 31 34 39 44 49 51 53 62 66
32 38 40 39 38 41 42 41 41 40 37 36 35 35 35 34 34 35 38 40 40 41 41 43 41 40 40 38 34 34 34 33 34 36 36 37 41 47 52 55 60 67 71
37 39 37 38 38 39 40 39 42 44 44 39 38 37 37 40 42 42 47 50 48 47 51 50 51 52 51 50 50 48 43 38 37 40 39 42 44 50 54 60 66 69 73
38 36 39 39 38 36 37 38 40 41 42 45 45 42 39 38 40 45 52 54 53 53 56 54 53 52 53 59 63 57 49 46 46 45 44 45 43 48 58 65 70 72 73
34 35 35 36 37 35 35 37 39 41 42 42 42 44 42 39 43 49 53 54 53 54 53 51 53 54 57 61 65 68 59 63 60 58 55 54 53 56 60 62 69 76 77
30 33 33 34 34 36 37 39 39 41 42 41 43 42 39 40 40 46 47 51 53 52 49 48 49 50 53 56 58 58 63 69 70 66 67 61 62 66 66 66 67 73 80
25 28 30 29 31 32 34 36 40 42 42 43 47 44 42 44 42 42 46 48 49 52 49 47 49 51 55 56 56 57 62 65 66 67 64 67 70 75 74 77 77 85 83
19 17 14 16 20 23 26 27 31 34 37 43 46 45 46 45 44 44 46 49 52 52 54 54 55 54 53 53 53 52 50 54 60 64 65 68 68 73 88 93 94 95 94
15 16 16 17 17 18 20 23 26 31 36 41 42 44 44 44 46 46 48 52 52 52 53 50 48 47 47 45 45 46 46 53 54 58 66 71 69 74 85 94 98 98 85
23 21 20 22 23 22 22 26 30 35 40 43 43 47 51 50 50 49 47 45 43 42 39 39 39 41 43 43 45 43 44 49 58 65 73 73 74 74 83 92 97 95 83
31 29 30 29 28 25 27 30 31 33 36 38 41 43 44 42 40 40 41 40 39 40 40 40 39 40 43 43 48 47 46 48 55 61 68 80 83 67 78 93 91 96 88
39 37 34 34 32 33 35 33 36 38 38 37 38 39 40 40 38 37 36 37 39 39 40 39 37 37 39 42 46 47 50 48 52 54 60 68 75 70 90 86 94 85 98
44 41 40 40 41 40 42 43 44 46 47 45 44 42 42 40 38 37 36 34 31 29 29 31 33 34 34 34 37 42 47 50 55 58 62 75 80 87 97 94 95 88 94
44 44 47 46 45 46 47 46 46 44 43 41 40 37 34 33 32 32 32 33 33 34 34 35 37 40 42 42 43 45 47 48 54 63 82 91 95 99 99 99 87 99 92
45 43 42 42 44 42 42 42 41 38 37 38 37 37 36 36 37 38 39 40 40 40 40 40 43 44 45 48 49 52 52 51 57 70 85 97 99 99 97 97 99 93 87
50 50 47 44 43 43 44 43 43 44 43 43 44 45 46 45 46 47 47 47 47 47 47 47 47 49 51 51 54 59 61 63 70 75 85 91 87 89 93 96 92 87 83
60 55 53 50 52 50 50 49 49 49 50 50 51 51 52 53 52 52 51 51 53 54 55 52 53 54 56 59 60 62 63 63 68 69 72 77 85 87 87 85 75 74 75
70 69 67 60 63 56 55 57 57 58 59 59 59 59 60 59 57 57 58 58 60 60 60 56 57 60 62 65 67 68 68 68 70 71 72 71 74 77 77 75 78 84 79
65 68 68 67 69 65 64 65 66 67 68 69 68 67 67 67 67 66 65 65 64 67 68 64 64 65 68 71 72 71 70 67 70 71 70 74 80 82 81 81 78 69 62
85 80 77 71 72 71 73 74 75 76 76 75 74 73 74 73 70 67 66 68 70 71 71 70 68 71 73 75 76 73 75 74 79 79 77 80 80 80 81 77 70 66 61

GFSGL_prec_cthk_042.txt.gz
RH
19 20 22 23 20 19 18 16 16 17 17 19 23 25 30 33 36 32 28 32 35 35 36 34 32 34 36 40 42 43 43 43 43 45 47 48 48 52 54 58 60 60 56
17 17 18 20 19 18 16 16 17 18 18 19 20 24 28 30 30 30 29 25 27 33 33 34 33 34 33 34 38 41 42 44 43 39 40 41 41 43 49 54 58 61 59
17 16 16 17 17 18 18 18 18 18 19 21 22 23 23 24 26 27 28 27 23 20 27 31 30 30 33 35 34 38 40 41 42 41 40 40 41 41 44 46 52 57 59
17 14 14 15 18 18 18 18 18 17 18 19 20 21 21 23 24 24 25 25 24 23 19 21 26 27 29 32 34 34 34 36 38 39 41 42 42 44 47 48 49 52 59
17 17 16 17 17 18 19 19 19 18 17 17 17 18 20 23 25 27 26 24 23 23 23 22 21 23 25 27 30 32 34 34 33 34 36 38 40 41 45 47 50 54 59
24 27 25 24 26 28 23 20 22 20 19 18 18 20 22 26 29 31 33 33 32 31 29 27 26 27 27 29 30 32 35 36 36 36 34 35 36 39 41 45 48 52 53
31 33 32 33 35 35 35 32 29 25 24 22 22 24 25 27 28 30 34 36 39 39 39 39 39 38 35 33 31 32 35 35 36 38 37 39 39 37 39 40 45 52 57
34 36 39 44 44 42 41 40 37 36 34 30 27 27 28 29 30 32 34 37 39 40 43 44 47 48 49 52 53 50 47 42 41 37 36 32 32 38 42 43 46 55 60
37 34 40 42 40 41 41 42 44 44 41 39 36 34 34 36 41 44 44 43 43 45 49 49 50 49 52 56 56 56 54 52 60 61 59 55 53 49 49 53 49 52 54
29 30 41 44 40 37 38 40 40 43 44 46 43 40 39 40 41 43 47 49 46 48 50 48 49 51 55 58 60 63 60 55 63 63 65 68 68 67 66 64 60 55 56
37 38 45 43 42 41 38 38 38 39 40 41 41 44 43 43 42 44 45 46 46 50 51 51 53 54 55 56 57 56 51 57 62 63 63 65 67 69 69 79 79 72 68
41 44 43 42 41 43 42 39 39 39 38 38 39 40 42 45 48 46 45 44 47 50 49 48 48 50 48 49 51 50 54 63 64 65 62 57 60 56 61 72 79 84 86
37 39 41 40 41 41 41 40 41 42 42 41 40 40 41 44 47 49 48 45 44 46 43 43 48 50 52 55 57 57 60 60 58 58 53 53 49 52 53 57 67 78 85
27 29 31 31 35 38 38 38 38 37 39 39 43 44 42 44 46 46 47 48 49 48 47 48 51 55 57 56 53 52 49 49 50 53 52 53 55 52 53 56 66 77 83
21 20 20 21 23 25 26 28 29 27 26 26 29 33 37 39 43 46 46 48 49 48 48 50 50 49 45 44 43 42 43 45 50 52 55 54 58 64 62 63 63 69 79
27 25 21 19 20 21 22 22 24 25 24 25 26 30 33 38 42 43 46 49 49 50 49 46 44 42 41 40 41 40 41 39 38 41 46 49 49 55 60 63 62 68 70
27 27 24 24 22 21 23 25 26 26 26 27 31 34 36 38 40 46 47 46 44 43 41 41 40 38 36 34 34 36 36 37 41 42 40 48 52 51 63 65 68 73 83
31 28 28 30 30 31 31 29 30 32 35 36 36 39 40 40 40 40 41 41 40 39 38 37 35 34 31 29 28 30 32 35 38 40 39 44 49 59 60 71 90 89 90
36 34 32 34 37 36 37 40 43 43 42 43 42 42 42 42 41 41 40 39 38 36 32 30 30 30 31 32 33 34 36 38 41 39 40 44 47 56 67 80 95 99 99
40 39 45 44 45 47 46 47 49 51 51 51 48 46 46 46 44 42 39 34 32 32 33 34 35 35 36 37 38 39 40 43 43 44 42 45 54 64 74 83 99 97 91
42 44 44 46 46 47 49 51 53 55 57 56 54 52 48 45 41 37 36 36 36 36 38 38 38 39 42 43 43 43 45 46 47 49 46 46 56 66 73 75 80 87 89
47 44 43 43 45 46 50 54 58 59 59 57 55 51 46 42 42 41 41 42 43 43 43 43 45 45 46 48 50 52 52 50 51 54 53 53 59 63 68 72 79 80 88
51 51 51 49 51 51 50 51 52 52 52 51 49 47 47 47 47 48 49 49 48 48 49 48 49 49 51 54 57 59 61 59 55 55 57 62 67 66 68 72 82 89 86
55 55 48 57 54 56 57 56 55 54 53 53 53 53 53 53 54 55 56 56 55 55 55 57 56 57 58 60 62 63 64 64 60 58 58 58 62 66 68 67 69 73 70
52 59 65 63 63 61 62 59 61 62 63 62 62 62 61 60 61 62 63 63 63 62 62 62 63 64 66 66 65 64 62 62 63 59 60 64 66 70 71 71 71 73 76
70 72 79 81 80 78 78 71 68 67 67 67 66 67 68 68 68 67 67 67 67 66 68 67 67 68 68 69 72 72 66 68 68 67 68 66 67 70 74 78 77 77 76

GFSGL_prec_cthk_045.txt.gz
RH
28 25 25 25 25 26 24 22 20 21 23 24 26 29 29 33 33 29 29 35 36 36 37 34 31 35 38 38 41 42 42 43 43 40 41 41 41 41 43 47 50 53 54
28 24 23 26 25 25 22 19 19 18 20 21 22 26 27 29 31 31 29 29 35 37 36 36 34 33 33 34 37 39 39 39 41 41 40 40 40 41 43 43 44 45 52
32 24 23 25 24 21 19 17 18 19 20 21 21 20 21 24 27 28 30 31 29 30 34 34 33 33 33 33 35 35 36 38 40 41 40 40 40 41 40 41 42 44 47
30 26 22 20 19 18 17 18 18 18 19 19 19 19 20 22 24 26 26 26 26 25 24 26 30 30 29 31 33 35 37 37 36 36 36 36 36 38 38 40 40 42 45
24 24 19 17 17 17 19 20 20 19 18 18 19 18 18 21 21 22 23 24 24 24 24 24 23 22 25 28 30 30 31 33 36 38 37 36 38 40 42 42 43 43 44
22 18 17 16 16 18 19 21 20 19 18 17 16 16 17 17 20 24 27 28 27 26 24 25 26 28 29 30 31 32 34 36 37 37 38 39 38 37 39 42 45 49 48
23 22 21 20 21 21 22 21 22 20 18 17 16 17 19 21 24 26 29 29 32 35 37 38 36 34 34 35 35 38 40 39 37 39 38 41 39 39 41 41 42 40 42
32 35 34 31 34 37 35 31 31 30 28 23 20 21 23 25 26 28 29 31 36 38 39 41 44 48 50 52 54 55 58 58 62 64 64 63 63 64 65 65 63 61 55
30 37 36 44 46 44 44 42 39 37 37 35 33 31 31 31 31 32 34 35 34 37 40 42 46 49 52 54 55 54 54 54 61 63 61 60 64 66 67 74 73 80 73
33 30 37 50 50 48 48 49 49 47 45 43 40 38 37 38 40 42 45 44 44 44 47 48 51 54 58 62 60 62 58 57 61 58 57 60 65 67 72 75 77 81 79
51 36 42 51 51 48 48 47 45 43 45 47 47 48 46 43 44 46 48 46 45 43 41 44 47 51 54 57 59 58 55 60 63 60 58 56 56 58 62 69 73 74 73
53 42 44 44 51 48 45 44 43 40 38 39 41 42 43 46 48 50 51 50 51 47 43 43 42 44 46 51 53 53 53 58 59 58 58 53 50 47 46 44 45 53 62
45 44 38 36 41 49 47 46 41 42 41 39 39 39 40 41 42 44 48 50 54 54 51 49 50 50 51 52 53 54 57 57 54 53 47 43 43 46 52 52 50 53 60
46 47 49 47 43 49 51 50 49 49 44 40 40 39 41 40 39 43 46 49 51 56 56 53 53 54 56 54 53 52 48 49 47 45 46 40 41 46 48 52 51 49 48
32 33 36 38 42 45 48 46 46 45 45 43 42 43 44 42 39 46 49 48 55 59 60 60 56 55 57 53 48 46 44 40 38 39 39 38 37 40 40 42 49 55 54
24 25 24 25 28 30 33 34 35 35 36 38 39 39 40 37 37 39 42 44 48 52 54 52 54 51 49 48 45 40 37 34 32 30 31 33 34 35 37 40 42 51 56
24 24 23 24 24 22 21 22 23 26 30 33 34 34 32 29 32 36 38 40 48 51 54 50 47 46 44 40 36 31 28 29 31 30 31 33 35 35 37 40 46 54 55
27 26 25 24 26 25 25 25 24 25 27 29 30 32 32 31 34 39 42 47 46 43 42 42 40 37 33 31 30 30 30 32 32 33 35 37 37 38 40 43 47 50 51
32 31 30 29 29 31 32 33 33 34 35 35 35 37 38 38 39 40 41 42 40 39 39 37 35 34 33 33 33 34 34 34 34 36 37 39 38 42 45 47 48 46 50
35 35 35 35 33 33 36 40 41 45 46 48 47 45 44 44 44 44 44 44 44 42 38 36 36 35 35 36 36 36 37 37 37 39 41 44 43 46 50 52 50 49 53
38 34 33 36 37 37 40 45 52 50 57 54 52 51 52 51 50 50 51 49 46 41 39 39 38 38 39 39 40 40 40 40 41 43 47 49 50 52 54 54 54 59 61
42 37 35 34 35 37 42 49 50 54 59 59 60 59 58 57 55 54 52 47 44 44 43 43 43 43 43 44 44 45 45 45 46 48 51 53 55 56 58 59 61 64 64
46 39 34 32 34 36 38 41 44 48 52 55 57 57 57 55 53 51 48 46 47 47 46 46 47 48 48 49 50 50 49 51 52 55 51 53 59 61 60 60 66 71 73
50 43 41 41 38 37 36 40 47 50 50 51 52 52 51 51 51 51 52 52 51 51 50 51 51 51 52 54 55 55 56 56 59 61 59 58 60 60 55 54 56 57 65
44 42 44 45 46 52 51 50 52 54 57 56 56 58 58 59 58 58 58 57 57 57 57 57 58 58 57 57 58 60 62 63 61 63 66 68 73 70 66 64 63 64 62
55 53 53 51 47 52 49 69 64 64 64 65 66 67 66 66 64 62 62 62 62 62 62 63 62 61 61 62 62 64 71 73 73 74 73 73 73 75 76 74 71 69 70

GFSGL_prec_cthk_048.txt.gz
RH
27 27 28 28 28 29 28 29 29 27 25 25 29 30 28 28 29 32 35 35 37 35 38 39 37 36 37 39 40 42 42 42 40 37 37 36 36 36 37 38 40 42 45
27 27 26 27 27 28 27 28 29 26 24 24 25 27 27 25 30 30 29 34 36 36 36 35 34 34 33 34 35 36 39 40 39 38 38 37 37 38 38 39 40 41 44
29 29 28 27 25 26 27 27 27 25 22 20 20 20 21 24 26 29 29 30 32 36 35 35 34 34 31 32 33 33 33 33 33 33 35 36 37 39 41 41 43 46 46
33 30 28 26 26 26 26 26 24 24 24 21 19 18 18 19 22 25 28 30 29 26 28 31 33 33 31 30 30 31 32 34 35 36 36 37 39 40 40 39 41 44 48
29 31 28 26 28 26 25 23 21 23 22 20 18 17 18 19 20 20 21 22 23 24 24 23 22 23 26 29 31 30 32 34 36 35 35 35 36 38 40 42 44 44 42
27 29 29 27 24 22 21 20 21 21 21 21 19 18 17 17 16 16 17 19 20 20 20 20 22 23 24 26 29 30 34 38 41 45 44 42 42 43 45 40 42 43 41
20 22 23 23 20 19 18 18 20 21 21 20 19 18 16 15 15 17 21 23 24 25 26 27 29 30 32 33 35 36 38 43 45 47 47 51 53 55 55 58 63 64 62
19 21 21 19 17 18 19 20 21 22 21 20 19 17 17 16 19 22 24 26 26 29 32 34 36 38 40 45 49 51 52 51 54 57 57 56 59 60 63 63 65 67 65
23 25 25 22 23 24 25 26 25 26 25 24 22 21 21 22 25 26 27 28 28 31 33 34 36 41 47 49 51 51 52 56 60 59 58 57 58 60 66 68 65 66 62
23 29 34 36 38 38 42 43 41 41 40 39 39 35 33 34 37 37 37 36 35 36 37 38 42 45 53 56 54 56 53 59 62 62 56 55 58 60 64 66 64 64 61
40 35 37 41 47 51 52 52 51 51 52 49 46 44 44 42 42 45 46 45 43 43 43 44 45 46 49 50 51 52 51 54 55 55 56 57 59 53 47 45 47 56 60
48 44 41 40 50 55 55 56 54 53 51 49 51 51 51 51 49 48 48 47 49 47 46 49 50 50 49 50 51 51 54 58 59 61 59 53 49 45 42 40 40 39 41
54 52 52 42 47 47 54 53 49 47 46 44 43 42 41 42 43 44 47 49 51 51 53 53 55 57 57 55 56 58 59 62 68 65 54 48 44 40 39 39 38 39 37
57 56 57 56 46 48 51 49 52 49 46 43 41 40 40 40 41 42 43 44 46 48 48 48 50 55 62 64 65 64 66 69 67 55 48 43 38 33 28 30 31 32 35
62 58 58 56 55 50 48 51 51 52 51 48 46 46 45 43 42 43 43 45 49 48 48 52 57 58 59 59 59 60 61 54 51 45 40 31 28 28 28 28 29 32 36
53 51 48 46 45 45 46 45 47 48 47 51 51 47 47 46 46 45 45 46 50 52 53 50 53 54 55 55 52 51 49 45 39 31 30 31 30 30 29 28 29 32 36
36 36 36 34 32 35 35 35 35 35 37 42 49 46 47 45 46 47 48 49 50 50 47 51 52 52 51 49 46 43 38 30 29 31 32 31 31 30 29 29 33 36 38
34 28 24 22 23 25 26 27 28 32 35 36 37 39 42 43 43 45 46 44 47 46 48 46 43 43 42 39 35 29 28 31 34 33 33 32 32 31 30 33 35 36 37
38 36 35 33 31 30 31 33 32 32 31 32 33 34 35 36 37 38 41 45 46 46 44 43 42 40 36 31 31 33 35 36 36 35 34 34 34 33 34 37 38 39 39
40 38 40 39 38 37 38 41 40 38 37 37 34 33 36 36 40 42 42 43 44 44 44 43 41 38 35 36 39 40 41 40 38 38 37 36 36 38 40 41 44 45 44
44 40 40 39 41 44 44 47 49 45 46 47 46 46 47 47 48 49 50 49 48 48 46 45 43 43 46 46 47 45 43 42 41 40 40 39 41 42 46 47 48 48 53
47 43 44 42 40 42 45 48 47 49 52 53 51 54 61 59 53 53 52 50 50 51 51 50 49 48 48 48 46 45 45 45 44 43 43 42 43 47 49 51 51 53 59
47 45 47 47 43 45 45 43 40 39 41 43 45 48 51 53 54 54 55 54 54 54 53 52 51 50 49 49 49 48 47 47 46 48 48 48 46 47 47 47 47 52 61
51 53 53 52 48 46 46 46 43 40 39 40 44 45 47 48 48 50 50 50 51 51 51 51 52 52 51 52 51 50 49 50 51 52 54 54 57 56 52 54 53 57 59
62 60 58 54 51 50 54 56 53 47 46 46 44 44 45 47 49 50 51 52 53 54 54 54 55 55 55 55 54 53 53 57 58 57 55 58 63 63 64 66 65 65 61
69 63 59 57 63 62 65 70 59 60 54 56 53 50 52 51 53 55 56 58 59 60 60 60 60 59 57 57 58 59 59 61 63 68 69 66 65 70 71 72 74 73 78

GFSGL_prec_cthk_051.txt.gz
RH
27 28 29 29 29 30 29 28 27 29 29 26 22 23 25 25 28 32 33 34 36 38 39 39 36 35 35 36 36 37 38 38 38 38 35 34 34 35 36 38 40 42 43
26 27 28 28 29 29 28 28 27 28 28 27 25 24 26 25 25 25 29 31 32 35 37 37 36 34 34 34 33 32 33 34 35 34 34 35 37 39 39 38 39 42 44
31 29 28 28 28 27 27 27 27 28 28 28 26 24 24 24 23 26 26 26 29 33 34 35 34 35 33 33 32 32 32 33 33 34 35 37 38 37 38 36 39 42 43
28 28 28 26 25 26 26 27 26 27 27 26 23 20 20 21 22 23 26 26 25 27 30 31 32 32 32 32 32 31 31 31 32 32 33 36 37 34 43 40 41 39 41
30 27 25 26 26 25 24 25 25 25 24 23 22 21 19 19 17 18 21 23 23 23 22 22 25 27 28 29 31 31 32 34 36 40 42 42 42 45 47 44 42 42 43
32 30 28 28 27 26 25 26 25 23 21 22 23 22 20 19 17 15 16 18 17 17 19 19 19 20 20 21 22 25 31 32 36 39 42 46 48 50 50 48 53 53 50
35 36 31 29 27 25 27 26 23 20 20 21 22 22 21 19 18 17 16 15 16 16 16 17 18 19 20 23 26 30 34 39 43 45 46 48 46 53 55 55 58 56 53
41 41 30 28 29 26 24 22 20 19 20 22 22 22 21 18 17 16 16 19 21 22 23 24 26 30 33 34 36 38 41 43 45 47 48 50 53 55 56 56 59 59 48
43 34 24 19 24 23 20 18 17 18 21 22 22 21 20 18 17 17 21 24 25 23 23 26 29 32 33 35 37 40 44 46 47 48 50 52 56 61 63 63 63 58 46
38 20 19 22 23 18 16 15 17 20 21 22 22 21 19 19 19 20 24 27 27 26 26 28 30 32 36 39 40 41 40 46 49 53 56 56 59 60 67 66 61 57 53
35 26 29 27 25 21 22 24 25 28 30 31 32 33 31 31 30 32 34 34 34 34 33 35 38 41 45 47 48 48 48 53 54 53 51 54 61 65 64 57 50 49 45
32 31 35 38 39 37 36 38 42 45 44 46 46 44 42 41 40 40 39 39 41 42 43 44 45 47 51 54 56 57 57 59 58 58 55 55 63 65 56 47 43 40 32
41 37 36 38 38 41 41 45 48 52 52 51 52 51 52 53 53 52 50 49 48 47 48 51 54 53 55 55 57 59 61 62 65 63 64 60 65 50 44 39 31 28 27
51 50 46 39 41 42 43 45 50 55 53 52 52 49 48 45 43 42 42 42 42 43 45 47 49 50 50 47 47 56 61 59 60 60 58 57 47 41 34 32 30 31 30
55 53 55 53 52 52 51 53 51 53 54 54 53 53 48 42 41 43 42 40 42 42 43 44 48 48 48 50 57 55 56 57 57 56 50 46 37 27 29 31 30 31 29
60 58 64 67 68 72 68 60 57 55 54 56 55 52 50 50 50 49 47 45 45 46 47 45 47 49 57 60 59 56 56 53 48 46 41 30 27 29 31 30 30 29 27
62 60 69 72 56 67 76 64 58 55 60 60 55 53 51 50 50 48 49 50 49 49 48 49 50 52 56 56 56 53 49 44 41 32 27 27 30 33 33 32 30 29 29
60 54 71 64 67 58 53 45 38 37 45 48 49 50 49 46 44 46 48 51 52 53 50 49 49 50 55 50 45 41 41 35 28 28 30 34 37 36 36 34 34 32 31
55 56 53 47 42 36 31 30 33 35 36 36 39 40 41 42 45 48 51 52 48 45 42 47 48 47 46 43 41 38 32 31 33 35 38 39 40 38 36 35 36 36 34
50 47 45 44 43 38 34 35 38 38 37 37 37 37 38 42 44 45 42 40 42 42 45 46 45 46 44 44 40 35 35 38 40 41 42 42 41 40 38 38 38 39 39
51 50 50 50 51 48 43 45 47 44 43 42 42 43 43 42 40 43 44 45 46 47 47 47 49 49 46 41 39 40 42 43 43 44 43 42 41 40 41 41 39 40 42
56 56 53 55 54 52 49 50 50 48 52 51 49 50 53 52 53 52 52 52 51 51 51 50 47 45 46 46 46 46 46 46 45 43 42 42 41 41 41 40 39 39 42
49 52 55 57 58 54 49 47 49 49 49 51 53 52 52 52 56 56 55 54 52 51 51 51 50 50 50 50 48 46 45 45 45 45 44 44 45 47 47 46 46 46 49
57 59 59 60 62 56 52 48 47 46 44 45 47 49 51 51 50 48 48 49 48 48 48 48 48 47 47 46 46 46 46 46 47 46 46 47 49 53 56 56 57 55 53
66 71 73 69 69 65 59 54 49 51 50 50 47 48 52 53 51 49 48 48 47 46 46 47 48 48 48 49 49 49 49 49 50 50 52 54 55 57 58 63 64 62 62
78 77 82 81 79 75 71 66 60 56 51 56 57 55 57 59 60 57 54 53 53 53 51 50 50 52 52 52 52 52 53 53 55 56 57 59 61 64 66 67 66 69 72

GFSGL_prec_cthk_054.txt.gz
RH
30 32 31 29 30 31 31 29 29 31 30 28 25 22 24 28 28 28 32 38 39 41 42 39 35 35 37 40 38 37 37 37 37 37 37 38 36 35 35 34 36 38 39
25 26 28 29 29 32 28 27 27 28 29 28 25 23 20 25 27 24 27 32 34 37 39 40 37 34 31 31 34 35 34 34 35 34 34 35 35 35 33 34 37 38 40
32 26 27 27 28 28 25 26 26 27 27 27 26 24 23 26 27 24 23 26 32 33 35 37 36 36 31 32 33 33 36 35 35 35 36 37 36 37 40 42 40 41 41
38 32 26 23 23 25 23 25 26 26 27 26 26 26 24 23 25 24 24 24 26 30 32 33 34 35 35 30 31 33 32 32 33 34 36 40 39 40 43 43 43 45 47
38 35 30 23 23 24 24 24 26 26 26 25 26 25 23 22 23 24 23 25 26 25 26 28 29 30 29 29 33 33 33 34 38 44 44 45 46 46 47 45 46 50 52
35 31 32 28 25 23 24 25 26 26 24 24 24 23 20 21 20 18 17 22 23 23 24 23 21 23 22 24 25 27 30 34 35 37 39 43 46 48 52 55 53 52 46
38 35 33 28 24 24 24 25 24 23 23 22 22 20 19 19 18 17 15 16 21 21 18 18 19 20 20 20 20 22 25 29 33 35 39 42 44 52 51 51 50 51 55
45 36 34 32 27 24 24 23 23 23 23 22 20 18 20 19 18 18 17 17 16 16 18 18 17 17 21 27 32 34 34 36 36 37 39 40 42 47 51 54 57 54 56
48 39 32 31 31 29 29 26 24 25 24 22 18 18 20 19 17 17 17 17 17 18 20 21 24 25 27 30 30 31 33 35 40 38 37 38 43 49 56 58 61 60 52
47 44 41 38 34 31 29 28 24 25 22 20 18 19 19 18 18 17 18 19 24 25 25 23 23 25 28 29 30 31 32 36 39 39 43 47 51 56 60 62 64 60 55
53 51 47 43 35 31 29 32 30 25 21 17 20 20 19 19 17 16 17 22 27 30 30 29 30 30 29 30 32 34 37 43 47 53 56 58 61 62 63 64 67 64 50
53 51 48 40 29 25 24 24 20 19 17 21 20 21 24 20 18 18 18 23 26 30 32 34 36 37 39 41 45 48 51 56 59 60 59 59 57 55 58 59 59 49 42
54 52 55 32 27 30 27 22 23 24 26 27 30 33 36 38 36 34 33 32 33 35 37 41 44 46 49 51 55 55 54 52 50 50 51 52 55 55 53 52 44 36 33
56 57 47 42 42 41 41 40 39 38 42 47 50 51 54 53 52 51 45 44 44 45 48 49 49 49 52 51 51 50 52 53 53 56 58 59 56 53 51 43 34 31 33
59 60 47 44 46 49 52 57 57 60 61 65 64 61 58 56 54 49 49 47 45 42 43 44 45 48 48 49 51 53 54 56 59 62 60 57 52 48 42 33 32 33 36
63 60 54 56 56 55 56 55 61 62 65 66 70 69 66 63 60 53 51 50 47 45 44 47 46 46 47 50 52 52 56 59 58 56 56 50 45 39 32 32 35 35 36
70 66 62 61 68 69 67 63 59 60 65 73 71 69 67 64 59 55 52 51 49 49 49 47 47 48 50 53 56 56 58 55 54 52 46 43 36 32 32 35 37 40 42
67 73 73 70 69 67 66 66 64 60 66 75 79 72 67 63 61 56 54 54 52 50 47 47 46 48 53 54 57 52 52 50 45 43 42 34 34 36 36 37 40 44 39
72 82 75 66 63 63 61 68 62 61 76 67 63 65 65 64 63 59 57 55 51 48 48 48 48 47 46 47 49 49 48 45 43 42 36 35 38 37 38 39 41 40 39
65 69 72 72 66 61 59 55 51 53 56 56 46 41 41 46 49 51 53 53 49 47 46 44 40 41 43 45 46 47 46 45 43 37 37 37 37 39 41 42 41 40 40
61 66 62 62 63 62 57 49 47 52 63 58 50 41 40 43 42 43 45 49 51 50 47 42 46 47 50 52 46 48 49 46 41 41 41 41 41 42 44 42 41 40 39
57 56 58 62 59 58 58 58 60 65 60 52 47 45 44 45 47 47 45 46 47 47 48 50 51 52 53 53 53 51 46 46 46 46 45 44 42 42 42 41 42 42 42
56 54 57 60 64 62 60 62 65 65 65 61 59 57 54 51 51 51 51 52 56 58 58 58 57 56 55 54 53 52 50 49 46 43 42 43 44 45 45 45 48 50 50
64 62 58 55 60 65 64 62 60 63 68 68 64 61 59 55 53 52 52 58 56 53 52 52 52 54 53 51 50 50 47 45 43 43 43 43 45 47 46 51 53 56 56
64 66 63 61 58 63 67 64 61 62 62 62 60 56 52 49 49 48 48 48 48 48 48 47 46 46 47 47 46 46 45 45 45 46 46 46 48 50 51 55 60 62 61
69 66 64 66 64 65 66 70 70 66 63 67 64 63 61 58 54 52 52 52 50 49 48 47 47 47 49 51 51 50 50 50 51 50 50 52 53 53 58 61 64 63 65

GFSGL_prec_cthk_057.txt.gz
RH
32 31 28 28 28 26 30 31 32 31 35 30 30 27 26 26 28 31 31 43 39 40 42 41 40 35 40 43 40 39 39 39 37 37 38 38 38 35 34 36 40 37 40
27 30 29 27 28 26 24 29 30 30 30 30 28 28 26 24 25 27 29 34 36 38 40 40 39 38 33 32 36 38 38 37 35 32 31 32 33 35 38 37 36 39 38
35 29 30 29 28 25 26 26 27 26 25 27 28 26 26 26 24 25 25 27 33 33 35 37 37 37 34 34 34 33 37 35 35 35 35 36 37 38 40 40 41 41 43
40 37 30 26 27 28 27 25 25 24 22 22 23 22 23 25 25 26 25 24 26 27 28 30 31 33 34 33 31 30 30 30 31 32 35 38 39 39 41 43 46 48 48
41 39 33 26 24 26 27 26 23 22 20 21 22 22 22 26 26 24 25 24 25 26 25 26 27 28 30 31 31 32 33 33 38 38 39 43 42 42 43 42 45 50 55
43 37 37 35 30 24 24 25 24 21 20 21 22 22 23 25 27 23 23 23 24 23 23 24 23 24 24 26 27 26 27 30 32 35 36 37 37 39 43 50 48 45 47
54 47 39 35 33 28 24 23 22 20 20 22 22 23 22 21 22 21 19 20 22 21 20 19 20 25 23 22 22 21 22 24 27 28 30 34 36 38 38 40 46 47 50
52 50 42 37 31 31 28 23 21 20 21 22 22 22 22 20 17 19 19 20 21 19 20 18 14 14 17 23 22 24 26 27 28 32 36 36 34 35 40 42 44 50 55
52 48 47 41 35 33 28 25 24 22 22 22 21 21 21 18 16 18 20 21 22 19 16 14 14 14 12 14 21 29 30 32 36 37 37 36 38 42 45 46 50 53 54
45 45 52 49 41 36 34 31 25 23 22 22 19 20 19 16 16 18 19 20 23 20 17 16 17 20 22 24 27 29 29 30 30 32 34 40 45 48 54 57 57 55 55
43 53 55 49 51 43 40 37 34 29 30 25 27 24 21 18 17 18 18 19 20 21 22 25 28 26 25 25 27 29 30 33 35 37 41 51 53 57 57 57 55 55 54
44 47 52 54 55 52 46 42 40 37 36 34 31 30 26 20 20 20 19 17 18 21 25 31 32 32 31 30 30 32 35 39 42 49 55 55 56 57 53 52 58 53 54
45 48 50 60 61 58 51 46 41 39 38 37 34 30 28 28 26 23 18 17 19 22 25 31 31 33 35 35 37 42 52 55 56 55 54 55 55 53 56 55 53 49 43
48 48 48 56 62 55 54 43 33 30 30 31 31 31 30 29 29 30 24 22 21 24 27 30 33 37 40 46 52 52 52 53 54 56 58 54 56 58 56 52 48 41 33
50 49 49 55 61 56 55 34 29 33 30 30 31 30 34 38 40 44 47 44 40 38 40 42 46 50 52 49 49 51 53 53 55 58 56 55 57 56 53 47 40 33 31
52 52 53 56 60 58 53 38 35 35 35 37 41 47 59 58 61 63 59 55 54 53 52 50 47 46 47 50 51 52 50 53 56 56 58 58 55 54 48 41 34 32 34
60 58 61 62 63 60 54 46 47 45 47 48 53 65 66 64 65 66 65 65 61 56 52 51 52 54 50 51 50 51 53 54 56 55 57 52 51 47 42 36 34 36 38
61 57 68 70 70 71 63 60 57 54 56 57 61 61 68 70 71 71 70 69 64 60 58 55 52 50 50 49 49 47 49 52 56 54 49 48 44 42 38 36 37 38 42
72 74 75 79 81 74 76 59 59 57 54 51 50 58 68 72 73 75 72 68 71 69 61 59 56 53 53 50 50 50 51 50 48 46 48 47 45 40 38 39 39 39 40
71 79 79 73 74 75 69 62 65 73 65 62 56 58 57 60 73 75 71 72 75 73 64 64 63 58 54 53 47 47 45 44 48 50 50 49 46 40 42 41 41 41 41
78 80 82 90 81 75 75 66 68 62 63 66 53 44 54 59 58 50 53 60 61 63 64 59 54 52 49 46 45 47 50 51 56 53 50 48 45 44 44 44 46 43 42
78 74 84 85 86 89 83 70 65 73 61 57 44 50 50 51 48 45 49 51 57 58 54 53 53 53 52 48 48 53 54 56 55 54 53 51 50 48 46 44 43 44 45
70 75 76 81 72 75 73 71 78 77 63 57 53 58 59 56 53 55 55 57 61 63 60 56 56 52 52 52 54 56 56 54 54 53 51 50 50 51 46 44 44 47 50
80 72 72 79 76 71 70 72 72 73 65 66 69 66 64 64 65 63 64 67 67 65 63 61 63 67 66 60 57 55 54 53 52 49 47 46 46 45 48 49 48 48 50
77 81 78 76 72 66 65 62 64 65 72 76 73 71 69 69 71 75 76 72 67 66 67 68 63 56 53 51 50 48 45 43 42 41 41 42 44 45 48 48 50 53 53
77 72 70 67 66 67 70 74 76 74 71 72 82 82 77 78 76 72 69 68 67 63 61 58 56 53 51 50 49 46 45 45 47 48 49 50 52 52 53 54 54 55 58

GFSGL_prec_cthk_060.txt.gz
RH
31 30 27 24 23 21 23 26 28 31 32 37 37 31 27 23 24 29 29 37 38 39 38 38 33 31 32 37 41 40 39 39 39 36 37 38 38 35 37 40 39 40 39
27 31 30 28 25 23 22 24 26 26 30 28 30 29 26 24 22 24 25 27 35 36 34 37 37 34 31 32 36 37 39 39 37 32 30 29 33 34 38 40 42 40 44
37 31 31 30 28 24 23 22 23 24 25 26 24 24 24 23 21 20 21 22 26 31 32 31 33 31 31 31 30 31 31 33 36 35 32 32 32 38 38 39 43 44 49
46 37 29 26 26 25 22 22 24 23 21 24 23 22 23 22 21 19 20 22 21 23 26 26 28 29 29 30 28 28 29 28 29 30 29 31 38 38 38 41 43 44 44
54 44 33 28 26 28 27 24 22 22 21 21 21 21 22 22 21 21 20 21 23 21 22 24 24 26 25 27 28 26 27 29 30 32 36 41 40 31 32 32 36 41 45
53 46 42 39 36 29 27 27 27 24 21 21 20 20 21 21 20 23 22 21 23 23 21 21 24 25 23 23 24 26 25 26 27 29 29 30 26 28 31 34 37 36 39
51 52 46 40 38 36 32 28 29 28 27 22 19 19 19 19 20 24 23 22 22 22 22 21 21 21 21 20 20 22 23 23 23 24 27 25 29 32 33 34 36 38 40
52 51 53 46 41 37 37 32 28 29 28 26 22 19 18 18 19 22 24 23 22 22 20 18 20 18 18 21 21 20 20 22 24 27 30 35 35 33 35 36 37 41 47
49 49 49 48 47 38 34 32 32 29 26 25 22 19 17 17 18 20 23 23 23 22 21 20 19 19 13 13 15 19 21 25 27 29 31 32 34 38 41 39 41 51 50
45 45 49 52 50 46 38 34 32 30 27 24 21 20 19 19 19 21 22 23 23 22 22 19 18 15 14 14 15 16 25 27 26 28 29 30 34 36 43 50 55 51 51
47 48 48 50 51 51 50 43 37 33 31 29 27 25 24 20 19 21 21 21 23 24 21 19 16 15 16 18 22 25 27 29 30 30 32 35 40 51 55 55 55 53 52
51 48 47 49 53 58 54 53 46 40 36 32 30 29 27 24 22 22 19 21 22 24 23 21 21 24 26 27 29 29 30 31 32 35 41 48 55 55 56 56 54 53 55
47 48 44 47 50 54 56 57 56 48 45 38 35 33 32 31 29 25 22 23 25 24 21 21 24 30 33 34 32 31 33 36 41 48 54 54 57 55 54 54 55 55 52
43 48 48 45 47 51 54 57 58 55 49 44 38 36 35 37 35 30 26 24 21 22 21 21 22 27 28 29 29 31 35 43 50 53 52 51 52 52 53 56 56 51 45
42 46 50 49 48 49 51 55 59 57 50 44 35 35 37 35 31 34 30 22 21 22 21 23 23 26 28 32 36 41 49 50 48 51 50 52 53 53 55 58 53 48 39
52 49 53 52 50 51 50 57 60 60 56 46 32 36 32 28 27 28 29 29 34 40 41 40 38 38 39 43 50 54 52 48 48 51 54 55 56 55 59 53 48 43 38
49 56 60 59 56 55 56 57 61 61 61 44 32 35 31 30 28 32 40 47 54 58 56 58 57 57 57 57 54 53 53 55 57 57 56 55 55 58 54 50 44 39 32
52 47 58 63 62 60 61 62 64 62 57 42 35 38 40 41 45 51 55 58 60 62 62 61 64 63 58 57 55 55 55 54 53 54 51 50 55 52 50 44 42 39 35
64 58 56 56 61 70 73 69 67 67 67 58 51 51 53 57 57 63 67 70 69 68 68 62 64 64 66 63 59 59 60 60 57 56 55 46 49 45 47 46 44 37 39
82 77 68 66 68 69 75 78 77 78 76 69 65 64 61 64 70 69 70 75 80 82 78 68 60 66 72 73 68 69 67 65 59 54 52 48 42 48 50 49 43 42 42
98 84 83 79 75 82 88 80 88 91 78 72 64 64 63 62 71 73 72 70 72 68 78 78 80 76 76 74 69 69 64 61 57 51 51 57 51 58 51 46 47 46 45
85 86 91 91 84 83 78 82 92 89 89 81 70 68 59 59 61 64 60 60 68 70 68 71 66 67 67 68 65 61 62 60 58 53 58 59 57 57 53 49 46 46 46
85 84 90 94 91 90 83 94 88 90 86 87 84 81 72 69 60 63 65 64 68 63 61 59 54 59 58 58 59 56 56 55 60 64 63 63 62 61 57 54 52 48 47
82 83 83 89 89 85 83 87 87 93 82 91 85 83 86 73 66 73 74 67 66 69 64 62 66 67 64 59 57 60 59 68 67 65 63 60 56 57 58 55 50 50 47
79 80 81 77 78 79 76 76 82 85 96 95 96 90 86 77 74 70 67 62 72 67 73 72 69 71 68 70 70 77 74 65 59 57 54 52 51 50 52 50 52 52 54
80 83 83 83 83 80 80 79 78 78 79 80 82 86 82 77 75 79 78 75 76 75 73 79 80 75 74 70 72 67 62 59 56 55 52 52 53 54 53 53 54 56 58

GFSGL_prec_cthk_063.txt.gz
RH
33 26 20 19 21 22 26 28 31 31 34 32 34 33 30 27 22 22 26 29 34 37 32 27 26 28 30 36 37 39 38 38 36 35 36 37 38 36 39 39 44 45 45
27 31 27 21 19 20 19 24 26 27 28 33 32 33 30 27 23 20 22 24 30 34 36 34 34 32 31 33 38 39 39 38 36 34 33 33 35 34 38 42 44 45 49
31 26 28 29 22 20 20 19 22 23 25 28 33 31 29 26 23 19 19 20 23 26 30 34 32 33 31 30 31 34 36 36 34 30 30 30 29 32 38 40 41 44 45
44 36 29 25 26 24 21 21 20 20 22 24 26 26 26 24 22 20 19 18 18 21 22 24 27 30 31 31 30 30 30 30 29 28 28 28 30 33 33 35 33 33 35
54 49 40 30 25 27 27 22 22 22 21 20 21 24 22 23 22 21 20 20 19 19 19 20 21 23 25 27 28 28 30 30 29 28 29 31 31 30 28 28 31 34 37
58 58 56 40 30 22 25 26 23 22 20 20 20 20 21 20 20 20 20 21 21 20 19 18 18 18 19 22 24 26 26 26 27 27 26 28 25 24 27 29 31 32 34
58 59 58 51 39 31 25 25 25 25 24 21 21 21 20 19 19 18 19 21 23 21 20 19 19 18 19 19 20 20 21 23 24 24 26 24 27 29 32 32 32 34 36
71 60 57 53 51 42 35 31 27 25 26 25 24 22 19 18 18 19 19 21 22 22 21 21 20 18 17 17 17 19 19 20 22 24 27 28 32 32 34 33 35 39 46
62 64 60 55 54 49 43 35 33 30 24 23 25 24 23 20 19 20 21 22 22 22 21 22 22 18 16 18 18 16 16 16 18 22 26 31 33 33 31 34 43 52 48
56 59 61 57 56 52 51 40 37 35 32 28 24 23 23 22 22 21 21 22 23 23 22 22 23 21 20 19 18 16 16 14 18 24 28 31 32 33 36 48 55 51 50
61 62 63 58 56 53 54 52 43 40 36 33 29 25 24 22 21 21 20 22 22 23 22 22 22 21 20 19 19 18 16 17 27 33 32 33 32 41 51 55 53 58 57
64 62 61 62 59 55 51 54 51 48 42 38 33 30 27 23 21 20 21 23 22 24 22 22 21 21 21 20 20 20 25 32 34 32 32 36 42 53 54 53 55 56 57
53 54 59 60 61 56 52 55 56 54 49 48 40 35 27 24 23 22 21 21 23 25 23 23 22 22 21 22 25 28 30 31 31 32 35 41 52 54 52 54 56 58 59
36 44 48 54 56 56 54 53 54 53 51 50 48 43 39 29 26 24 24 25 27 26 26 26 25 26 26 28 30 30 29 29 31 34 41 50 51 52 52 55 56 55 58
37 40 44 47 53 54 52 51 51 51 50 51 50 50 48 38 28 28 27 29 30 26 28 27 26 26 24 26 28 29 29 30 34 40 47 50 47 51 56 57 54 56 54
39 41 44 45 49 53 54 52 52 52 53 53 59 55 51 45 34 36 33 29 29 29 28 28 25 23 22 21 25 28 32 36 41 48 51 48 51 54 57 59 53 49 51
42 46 45 48 52 56 57 54 51 52 53 56 62 64 62 53 38 36 33 26 25 32 34 32 32 33 36 37 37 40 42 44 53 55 53 53 55 57 55 55 54 47 51
52 50 53 58 56 59 59 57 55 52 53 62 61 68 65 62 38 34 33 31 36 40 40 41 44 46 48 48 48 49 51 55 55 54 55 56 59 59 59 53 49 48 48
57 60 60 62 56 60 64 64 61 58 60 60 68 70 75 67 41 38 35 37 41 47 52 59 63 63 63 64 66 68 61 58 59 60 60 59 63 65 60 52 48 51 48
66 59 57 59 58 58 53 66 74 69 66 65 70 76 79 68 55 50 46 47 49 57 67 70 73 82 79 69 64 68 71 63 64 63 68 68 66 62 56 52 50 51 49
71 73 67 65 60 56 57 56 72 76 78 79 76 74 86 80 69 62 56 59 59 63 68 69 74 96 98 95 85 76 75 76 73 72 70 71 65 59 56 54 50 52 53
79 76 76 75 85 78 79 72 69 75 74 77 79 81 85 80 73 69 66 65 64 65 66 62 58 58 68 75 94 84 72 75 72 68 64 60 59 56 58 58 56 52 49
87 88 88 89 92 95 96 89 89 86 83 86 89 92 92 84 80 76 69 64 68 73 73 77 74 72 71 74 68 71 72 70 64 62 64 62 59 63 61 59 57 57 54
87 98 99 99 93 91 92 94 96 96 95 96 96 95 98 93 87 88 77 75 75 76 70 79 78 79 79 75 66 76 73 68 67 64 63 63 72 70 63 59 57 57 56
87 87 94 99 99 97 95 98 97 97 93 91 91 92 89 97 98 92 83 79 78 71 70 73 71 75 74 76 72 78 78 68 67 67 67 71 68 63 56 54 53 52 54
89 94 93 88 84 83 80 81 82 87 91 92 90 92 96 99 94 96 83 90 83 78 76 76 78 76 73 71 72 74 77 74 75 75 78 73 64 58 58 58 59 60 62

GFSGL_prec_cthk_066.txt.gz
RH
35 32 26 22 25 27 31 34 35 36 38 33 33 34 33 31 31 26 27 31 35 33 27 24 23 29 30 33 36 36 39 39 38 39 37 37 36 35 38 39 46 43 39
32 37 33 26 22 26 27 30 33 35 35 35 34 33 33 31 29 24 22 26 27 31 30 28 23 23 26 31 34 35 37 38 36 34 31 30 32 33 33 40 41 36 42
31 34 37 34 27 21 25 27 31 34 33 33 34 32 31 31 29 24 21 21 24 26 31 30 29 29 28 29 30 33 35 36 35 33 32 31 30 31 33 36 34 35 40
36 34 34 34 35 29 23 24 26 29 31 31 29 30 31 30 28 27 23 19 19 22 25 29 31 31 29 30 30 30 31 32 31 30 29 28 27 29 35 31 29 33 35
49 43 40 33 31 35 34 28 24 24 26 28 28 27 27 29 27 25 25 23 20 19 18 21 23 25 28 30 31 30 29 29 29 28 26 26 26 26 26 25 30 36 36
61 54 53 48 39 29 31 35 33 27 24 24 26 24 25 26 25 24 24 22 21 21 21 19 17 18 20 22 25 27 27 28 27 27 25 24 22 25 24 28 31 34 35
65 64 63 61 52 41 31 31 32 31 28 24 23 23 22 23 24 24 24 23 21 20 20 21 21 18 17 18 18 20 22 22 23 23 24 22 25 25 28 31 35 35 37
66 70 67 67 64 54 44 34 30 30 30 28 25 23 22 21 22 21 21 23 22 19 19 20 19 20 20 19 19 19 19 18 19 22 22 20 27 24 30 34 35 37 46
67 67 67 68 69 63 54 49 41 36 29 27 27 27 24 22 22 23 22 21 21 19 19 20 20 20 21 21 22 20 18 16 15 16 18 21 24 29 33 35 35 44 54
69 71 69 74 73 66 61 57 57 48 42 35 27 25 26 25 24 23 23 22 20 20 19 19 19 20 21 23 23 21 19 15 14 16 18 23 28 30 35 41 45 50 53
62 66 65 69 72 67 64 62 62 54 51 44 39 32 26 24 24 24 25 26 24 21 19 18 17 18 20 22 23 22 18 17 15 17 20 27 31 34 41 46 53 53 52
63 70 67 67 72 71 66 62 64 62 54 49 43 37 33 29 24 23 23 25 24 23 19 16 18 18 22 24 25 22 20 20 19 20 24 30 32 38 44 49 54 53 55
65 65 57 67 73 74 70 62 61 65 60 55 51 42 33 32 29 25 22 22 22 23 20 18 20 21 22 24 26 26 25 23 24 27 27 31 34 42 46 51 53 55 57
73 61 65 61 66 73 70 66 63 62 62 59 52 51 47 42 34 26 24 23 22 23 23 22 24 24 25 25 26 26 25 26 29 31 32 33 39 45 48 53 53 57 57
53 55 56 63 64 69 68 65 63 59 60 56 52 53 52 49 44 44 30 23 22 22 25 29 31 28 28 28 27 26 24 28 30 32 33 38 44 48 49 51 54 56 56
58 56 58 62 63 63 62 60 59 58 59 56 57 53 52 50 53 49 44 32 29 35 41 40 37 33 30 29 26 26 25 29 31 33 35 39 48 52 51 54 56 59 56
62 57 62 59 57 54 59 58 56 56 60 58 57 56 54 56 59 56 54 49 41 44 44 44 42 40 30 30 29 26 21 24 30 33 39 44 50 46 49 53 57 61 59
65 56 49 49 49 48 52 57 56 57 58 59 59 58 55 55 60 64 67 66 48 41 41 35 35 31 30 36 39 39 38 39 41 43 47 53 54 52 56 56 58 59 57
57 50 43 41 45 52 54 57 59 59 58 60 59 58 58 57 59 65 72 70 60 41 40 38 40 43 46 52 54 59 58 57 56 56 57 55 59 62 61 65 65 61 61
57 55 43 45 43 46 50 48 55 61 60 61 61 61 61 61 69 67 71 74 68 45 39 42 48 53 56 60 59 64 69 74 92 87 77 69 66 66 71 71 69 67 63
57 57 57 52 46 48 47 47 49 64 62 60 65 65 69 68 68 76 78 79 74 61 59 59 62 62 65 71 73 72 80 70 91 93 98 93 82 83 79 75 70 65 61
59 64 62 51 48 52 52 47 48 51 55 58 62 71 76 77 75 76 78 80 77 72 67 68 69 69 67 67 68 69 72 76 81 76 95 92 92 87 80 71 65 61 58
56 73 64 62 60 58 60 58 56 58 58 59 69 75 76 80 85 85 85 85 78 75 73 72 75 73 70 66 61 60 59 59 66 69 84 87 83 73 65 62 60 61 58
68 79 74 68 64 63 66 64 66 93 98 89 75 73 79 87 89 89 90 94 89 82 82 80 87 83 81 79 75 74 79 76 78 83 81 79 69 67 71 65 67 70 64
80 83 77 80 74 81 82 79 79 84 89 89 88 90 95 96 97 96 93 95 88 87 94 89 92 85 87 85 85 80 84 86 86 88 87 87 86 78 73 75 73 68 64
87 89 87 83 76 94 98 94 89 96 99 96 98 96 94 88 91 94 93 95 89 97 99 99 92 92 94 96 89 87 88 87 83 80 78 78 78 79 80 76 74 71 66

GFSGL_prec_cthk_069.txt.gz
RH
38 32 26 25 24 27 31 35 38 41 39 39 40 39 40 40 42 40 38 39 37 30 28 30 31 34 35 38 38 38 38 37 35 35 34 34 34 33 34 38 38 41 39
39 38 31 27 24 23 25 29 34 36 39 41 38 37 39 38 38 36 36 33 35 35 31 27 26 28 28 32 34 35 38 38 36 34 32 31 31 30 33 32 34 35 34
45 39 38 34 29 24 22 24 29 33 35 39 39 37 35 35 35 32 32 30 27 30 34 34 31 29 26 28 30 32 34 36 37 35 32 29 29 30 27 29 33 27 31
57 46 39 38 35 31 28 22 24 28 32 34 36 37 36 35 34 33 30 29 25 24 27 30 32 31 30 29 30 32 33 33 32 31 30 28 27 27 28 28 25 26 28
60 54 42 40 39 37 35 32 27 22 25 29 33 34 34 35 36 34 30 27 25 23 23 24 25 29 31 31 31 30 32 33 32 31 29 27 25 25 25 26 26 29 28
63 58 52 45 41 39 39 38 36 34 25 22 25 29 30 31 31 32 32 31 28 25 22 21 22 22 23 25 27 29 29 30 30 29 28 26 24 23 23 26 26 30 33
64 63 58 54 47 41 41 42 39 36 37 33 25 23 23 25 26 26 28 29 29 26 24 23 23 22 22 21 21 23 24 25 26 26 25 24 23 22 23 26 26 31 34
65 64 62 64 62 54 47 42 42 40 36 35 35 32 26 22 21 24 25 26 26 26 25 23 23 23 24 23 22 21 20 21 21 20 20 18 20 19 24 28 30 33 39
65 67 70 72 71 68 56 50 48 47 42 35 32 31 30 28 26 24 23 23 22 21 21 21 22 22 22 24 26 24 23 21 21 20 19 17 18 19 24 28 31 37 45
69 67 73 76 77 75 68 58 54 54 50 46 38 31 26 25 28 27 27 26 23 22 20 19 19 20 21 22 25 27 26 21 22 21 20 20 20 21 25 30 37 45 51
71 70 73 73 75 76 74 70 63 56 55 51 46 44 37 29 24 26 29 29 26 24 21 20 18 18 20 21 22 23 22 23 24 24 21 20 19 19 25 33 40 47 54
79 77 77 73 73 73 71 71 67 63 58 54 50 44 40 39 36 30 27 28 29 28 24 22 21 21 21 22 22 22 24 28 29 26 22 18 17 19 28 38 43 47 50
70 79 72 72 69 70 71 70 71 69 62 56 52 47 42 39 38 38 38 33 29 28 27 26 26 24 23 22 22 23 26 28 27 26 20 17 18 24 31 40 46 49 50
68 63 66 64 66 65 65 71 73 69 64 61 56 52 49 47 40 40 40 40 37 32 28 27 26 25 25 23 23 25 25 26 27 25 21 19 23 28 32 41 45 49 48
62 60 54 53 58 65 65 68 72 68 63 61 57 61 61 56 49 50 53 50 44 38 39 34 27 24 25 24 23 23 24 27 29 26 23 24 27 31 34 42 48 51 49
62 57 56 55 55 64 69 66 67 69 63 62 58 63 62 59 60 56 57 60 60 59 51 37 30 28 27 26 26 27 28 29 29 30 26 27 30 33 38 46 53 53 51
55 50 56 49 51 54 69 69 67 65 67 59 56 55 59 58 61 61 64 68 70 69 56 50 37 31 30 35 36 38 34 33 31 28 28 30 34 37 40 46 57 58 54
40 46 55 62 56 59 61 64 61 59 63 62 60 54 52 54 60 63 67 74 76 72 65 62 62 47 44 45 45 48 45 37 35 38 38 37 36 38 45 51 61 59 60
38 40 48 59 60 53 51 56 57 58 57 58 56 57 53 56 60 64 66 66 68 68 75 67 67 67 51 42 39 37 36 37 42 44 44 45 44 45 54 65 72 71 70
38 40 49 56 57 53 52 52 47 45 52 55 59 56 59 64 65 68 69 68 66 67 72 75 73 73 63 44 43 43 43 47 51 53 54 56 58 52 55 64 73 91 86
37 37 44 51 59 58 53 49 47 43 41 45 52 58 61 66 64 67 72 75 73 71 74 75 76 72 70 56 52 50 53 58 64 69 74 75 74 73 66 62 62 73 97
38 39 43 56 65 60 57 52 41 39 36 41 44 45 53 61 64 66 73 76 78 74 72 80 80 76 75 67 66 67 66 65 67 69 71 72 72 67 68 79 94 95 96
42 41 43 49 69 62 52 49 43 41 39 43 44 43 43 50 57 64 70 76 76 80 83 80 77 83 80 79 77 73 67 62 61 61 63 66 64 63 73 77 84 91 89
51 49 46 48 53 63 64 58 51 51 49 48 48 48 49 51 55 60 71 80 79 77 79 84 83 83 81 82 76 73 74 70 67 62 58 60 67 75 86 92 85 82 77
61 58 57 58 60 66 65 61 56 55 53 54 54 55 59 67 79 86 83 81 85 85 85 90 92 96 94 90 88 81 86 84 83 81 75 78 83 84 95 92 87 80 76
68 64 64 68 81 81 72 68 65 64 60 68 61 65 74 80 83 92 96 89 84 90 94 95 96 97 84 95 94 97 95 92 95 96 86 87 84 97 97 95 92 85 83

GFSGL_prec_cthk_072.txt.gz
RH
46 45 41 36 32 31 33 38 39 38 42 45 43 44 48 51 51 51 47 41 37 35 31 33 35 37 40 41 42 42 41 41 40 37 36 35 35 36 35 33 34 36 38
52 48 45 40 34 30 29 30 34 36 39 39 39 36 37 42 48 45 44 43 37 34 34 29 29 31 34 36 37 39 40 39 38 35 33 33 33 33 32 31 33 34 33
51 54 54 47 40 33 30 27 27 29 32 36 37 36 36 37 40 40 39 39 37 33 31 32 32 30 29 31 31 33 35 37 39 37 36 34 32 30 28 29 30 29 27
57 53 52 52 47 41 35 31 27 25 28 29 32 35 36 36 36 36 36 36 34 32 29 28 30 32 33 33 32 33 34 34 36 36 34 32 30 28 29 28 26 27 24
62 58 49 48 50 50 44 38 34 31 25 26 29 30 33 33 32 31 31 31 33 33 31 30 29 28 29 33 34 33 34 35 35 33 31 30 28 28 28 28 29 28 22
66 62 60 54 46 49 49 46 41 37 34 28 23 25 27 29 29 30 29 28 28 28 28 29 29 28 28 28 26 27 30 30 30 30 29 28 27 27 25 26 27 29 25
69 69 68 60 55 45 47 47 45 42 41 38 34 26 22 23 24 25 26 27 26 25 24 24 24 24 25 26 27 27 25 26 26 26 25 24 23 24 23 24 23 26 27
71 69 69 67 60 55 49 47 46 46 44 43 41 38 34 29 25 23 23 23 23 21 20 20 21 22 22 24 24 24 24 24 23 24 23 20 19 19 20 22 21 23 26
78 73 71 69 66 61 55 51 51 50 46 43 43 41 38 36 34 33 30 23 21 19 19 20 19 19 19 21 24 23 23 22 22 22 22 22 20 19 20 21 21 25 27
85 79 79 74 74 71 64 62 59 56 48 46 44 40 37 36 35 33 35 34 30 23 21 19 18 18 18 18 20 21 21 21 25 25 24 23 23 22 21 21 24 26 30
82 84 80 82 83 78 72 73 74 69 66 57 49 45 39 35 35 35 33 33 32 31 26 22 21 20 19 19 19 20 19 20 21 25 24 21 21 21 20 20 21 24 33
72 82 87 84 82 82 81 79 79 80 76 65 55 48 41 38 37 34 35 33 30 29 27 26 25 24 23 21 21 21 21 21 22 22 23 21 20 19 19 19 19 24 33
72 69 71 78 74 78 80 78 79 78 75 70 65 56 48 43 42 41 41 42 41 38 31 26 26 26 26 25 23 23 25 24 22 22 22 21 21 21 21 19 20 26 31
63 70 65 67 73 72 72 76 76 76 75 72 65 63 56 49 44 48 46 47 46 46 45 42 33 26 25 25 26 26 25 23 21 21 22 23 25 24 23 22 24 29 31
62 65 70 65 66 70 68 66 72 72 77 77 72 69 63 56 49 53 53 48 48 49 54 51 39 34 28 24 23 23 22 23 22 23 24 23 24 25 24 24 26 31 32
56 59 64 73 70 67 66 61 60 69 73 74 74 70 65 61 59 54 58 60 58 56 58 54 48 41 34 31 28 24 22 22 23 25 26 26 26 28 29 28 29 32 34
51 56 54 69 66 65 67 60 58 63 74 74 73 69 65 63 63 62 68 72 72 69 64 61 58 52 47 43 33 26 24 24 28 30 31 31 31 31 32 31 31 33 36
46 49 47 61 59 60 60 57 56 67 68 71 70 67 61 65 63 63 71 73 68 63 67 69 65 63 57 54 53 45 35 38 41 44 44 40 39 35 31 29 30 31 32
39 42 46 46 43 48 53 56 55 54 60 63 68 64 62 64 64 64 67 68 65 63 63 60 59 62 63 59 57 60 64 56 46 42 42 45 43 38 36 34 32 26 27
41 38 41 43 42 41 53 54 53 50 48 51 55 64 64 65 66 67 66 65 64 62 60 61 60 59 64 61 61 62 63 68 62 45 37 38 40 41 40 41 46 48 46
40 37 37 38 41 43 41 43 47 51 55 59 58 55 59 58 59 66 70 68 66 66 64 64 68 65 64 66 68 70 69 70 67 57 53 48 49 54 62 68 69 72 72
43 41 38 35 36 36 37 41 40 50 54 64 64 55 55 56 55 54 60 62 66 67 65 66 66 67 70 73 72 72 71 71 70 64 70 65 66 66 69 73 76 78 81
47 45 44 43 41 38 37 40 38 45 55 59 59 54 53 52 48 45 49 56 61 63 64 66 69 69 72 75 77 77 71 73 72 71 74 73 73 75 74 72 71 73 70
57 53 50 48 47 46 44 44 42 43 50 58 58 52 50 42 37 41 43 50 53 55 56 58 63 68 71 74 80 81 80 83 85 81 76 73 72 73 75 76 74 76 78
68 62 59 58 55 54 54 50 46 46 48 55 61 57 55 50 47 45 44 49 53 54 54 56 58 60 63 68 73 85 89 89 87 84 84 79 82 81 82 84 83 84 91
82 73 70 66 63 59 58 55 54 54 54 55 60 61 57 57 53 51 52 57 60 57 61 63 75 83 85 85 88 91 93 94 95 92 90 84 93 96 95 91 92 91 98

GFSGL_prec_cthk_075.txt.gz
RH
47 47 46 46 42 40 37 38 42 44 46 45 51 51 48 50 49 47 48 42 36 36 34 34 34 35 36 37 39 40 41 41 40 38 33 33 32 33 34 33 31 30 31
52 51 47 50 47 42 40 36 37 40 42 42 44 44 43 47 49 50 50 46 45 37 33 31 29 31 33 34 36 37 37 36 35 36 34 32 29 29 31 30 28 28 28
53 49 53 54 53 48 43 38 34 34 37 41 40 41 39 35 40 43 42 48 43 37 34 31 31 27 27 31 33 34 34 31 32 31 32 33 29 31 29 28 26 25 26
53 48 45 52 53 50 48 44 39 34 32 33 35 37 39 36 34 36 38 38 37 37 33 29 27 28 30 31 32 32 32 32 34 33 35 35 35 33 29 29 29 28 24
54 53 48 47 49 56 48 46 45 42 37 30 30 32 36 37 36 34 33 33 32 32 33 31 29 26 25 26 29 31 32 33 36 36 34 34 33 32 30 29 29 28 26
68 58 56 56 52 48 48 46 44 43 42 40 35 29 29 32 33 31 31 30 29 28 28 28 29 29 28 27 26 26 27 27 26 30 30 29 28 29 30 29 27 26 25
76 74 68 62 56 50 47 47 44 41 41 39 38 37 33 27 26 29 30 31 28 27 26 24 24 24 24 25 25 25 25 24 24 25 23 23 22 23 23 21 24 24 23
84 79 76 72 69 68 60 54 50 45 43 41 39 38 36 34 31 26 24 26 27 25 24 23 23 22 21 21 22 23 22 22 22 23 22 21 21 20 20 19 18 18 18
88 88 82 76 75 75 72 62 55 48 45 43 42 39 38 35 35 34 34 32 26 22 20 20 19 20 19 19 20 19 20 19 20 21 21 20 20 21 23 24 23 23 21
78 84 84 82 81 77 76 74 71 58 50 47 44 42 39 36 36 37 38 38 37 33 28 23 19 18 18 18 20 20 17 16 18 19 20 21 23 23 24 24 24 24 22
70 76 83 87 88 83 80 78 78 72 63 55 48 47 46 41 39 38 38 39 37 35 32 29 25 22 21 19 19 18 17 17 18 18 18 18 21 21 21 22 23 22 23
65 73 75 79 84 85 87 88 85 82 77 69 64 60 56 51 46 44 40 35 36 37 33 30 28 27 25 24 22 21 21 20 19 20 21 21 22 23 23 23 24 23 21
58 62 69 75 74 81 84 86 89 89 82 77 76 72 72 69 57 50 46 44 41 38 36 31 27 25 24 25 24 25 26 24 21 20 20 19 19 21 21 21 24 25 22
51 62 64 67 71 74 80 82 83 86 83 80 77 82 82 76 69 63 56 54 54 50 45 43 40 36 30 26 25 26 27 26 24 22 21 20 20 18 18 19 23 26 25
46 53 58 67 67 71 72 73 77 76 77 77 80 84 81 74 72 73 68 62 59 60 57 51 44 39 35 33 31 29 27 24 24 22 22 22 21 19 19 21 22 24 26
42 46 52 54 60 67 70 71 68 66 66 70 74 78 78 75 78 75 73 69 71 74 63 49 40 42 40 37 37 35 32 28 25 23 21 20 20 21 23 24 24 24 26
40 42 47 48 52 54 59 63 67 64 66 63 66 71 75 72 78 78 80 72 77 76 65 54 55 54 52 53 53 53 48 39 30 27 26 22 22 22 24 27 31 30 29
48 41 42 45 47 49 48 48 60 71 63 63 66 61 66 75 70 76 78 80 77 73 71 65 64 66 64 64 62 58 58 55 50 47 40 31 28 31 35 38 40 38 38
42 44 42 44 44 45 46 43 48 58 64 54 56 62 61 69 66 74 78 77 78 75 66 65 62 61 59 60 60 61 60 58 54 53 55 58 59 49 42 42 43 45 42
45 42 45 43 43 44 42 44 41 46 64 52 48 53 54 54 67 71 75 76 77 73 66 61 59 58 56 56 57 56 57 58 56 54 56 62 67 70 60 47 42 41 42
51 45 42 41 41 42 44 42 41 41 48 59 49 54 50 55 61 67 77 75 73 76 73 69 64 61 62 60 60 58 59 60 60 58 59 63 68 70 67 61 56 58 58
60 53 48 42 42 41 42 41 40 44 45 51 47 46 51 49 48 54 59 59 68 66 72 74 69 65 66 67 68 68 66 63 66 67 68 70 69 70 70 68 68 70 69
67 61 54 49 45 42 42 40 40 40 42 43 42 44 52 45 46 56 57 60 59 65 70 71 64 66 65 65 67 70 70 70 71 72 71 72 72 74 73 70 67 72 75
74 76 65 58 52 46 43 42 41 42 43 44 43 45 51 45 45 55 52 65 66 65 62 58 57 61 62 64 63 61 65 68 69 69 72 75 76 77 75 75 79 83 82
78 82 81 72 64 56 51 47 43 42 45 47 42 46 49 44 46 55 55 60 70 67 60 56 54 50 51 55 56 55 55 57 58 62 67 72 79 85 88 89 89 88 86
85 86 85 88 77 67 59 55 50 47 47 49 48 47 45 47 49 53 60 67 67 68 62 52 48 50 52 54 58 62 63 68 69 77 78 80 83 84 93 94 97 92 92

GFSGL_prec_cthk_078.txt.gz
RH
49 50 52 51 50 46 44 41 41 46 50 53 51 53 60 53 49 46 44 43 39 42 39 38 35 35 38 42 41 39 41 43 44 43 40 39 33 32 29 27 30 29 34
54 52 52 51 52 53 45 43 42 41 47 50 52 54 60 61 52 48 48 48 46 42 37 35 34 33 31 33 38 38 39 41 41 40 36 35 36 31 31 25 29 28 27
57 54 56 53 51 51 50 46 45 41 38 44 47 48 51 53 53 46 47 48 47 46 40 35 32 30 30 32 35 39 40 40 39 39 37 35 35 32 32 30 29 27 28
56 54 53 57 47 50 47 46 47 44 41 35 38 43 43 50 47 45 39 42 46 44 43 36 32 30 30 29 29 30 32 33 36 36 36 35 35 36 34 34 31 29 29
65 61 54 51 48 53 47 55 46 45 43 41 37 33 35 39 41 41 38 38 43 42 37 34 33 31 27 26 29 32 32 34 35 36 39 36 36 38 34 32 30 29 28
62 64 64 59 56 48 46 44 58 44 42 41 39 36 34 32 36 37 37 41 38 37 36 33 29 29 29 28 26 24 26 29 29 28 30 30 29 28 31 30 27 27 23
71 71 67 63 64 59 56 50 44 42 46 40 37 38 34 31 30 28 30 33 36 36 33 33 31 31 26 25 25 24 24 24 24 23 24 24 23 24 24 25 23 24 20
84 81 80 74 70 76 69 62 53 49 45 43 40 36 34 31 29 28 27 26 27 29 32 31 30 29 29 26 24 24 21 20 20 21 20 19 19 21 19 22 24 22 21
83 87 87 86 82 73 80 72 67 60 56 52 46 41 38 33 31 29 30 30 28 23 21 22 24 24 23 23 22 23 23 22 25 22 20 19 20 20 21 22 23 27 25
69 80 83 83 85 81 83 83 83 78 71 64 58 51 42 36 35 35 36 35 35 32 30 26 22 20 20 19 19 19 19 18 23 22 24 20 17 18 19 21 21 23 25
61 62 71 77 81 83 88 85 85 83 79 76 70 64 49 42 39 38 40 41 38 37 36 36 32 29 27 26 23 20 17 17 21 22 22 22 23 23 24 22 19 19 23
51 52 57 64 75 81 84 87 93 84 80 81 82 79 73 54 48 44 44 43 41 40 38 38 38 37 32 31 28 26 25 24 24 23 25 25 24 24 25 27 26 20 20
44 48 51 51 58 69 76 78 78 82 84 80 81 83 79 71 60 56 55 55 56 50 42 38 36 35 35 33 29 28 29 30 28 27 26 27 26 25 25 27 27 23 20
38 42 44 48 50 53 61 70 72 73 73 76 87 86 87 85 81 77 75 70 69 64 49 47 44 42 39 36 31 25 25 26 28 28 27 26 29 29 28 30 29 29 29
33 37 38 41 45 50 53 59 68 67 67 69 79 83 83 85 87 89 90 86 81 72 70 61 55 51 48 44 40 38 34 29 26 27 28 29 32 32 31 31 30 30 29
29 30 40 38 38 46 49 53 55 61 60 62 69 72 82 76 79 82 87 86 83 86 83 71 60 56 55 52 50 50 47 42 39 37 33 28 27 30 30 30 30 30 30
35 30 27 35 39 37 43 46 49 55 57 55 60 65 71 74 73 75 81 84 83 89 84 71 64 71 70 55 51 50 52 50 46 46 46 41 36 33 32 31 30 31 32
38 35 32 29 32 40 37 38 40 45 53 56 57 61 61 66 66 69 79 79 79 77 82 76 71 71 69 57 61 64 64 62 61 60 59 54 53 49 46 43 39 37 39
50 43 40 37 33 35 37 38 36 37 40 44 56 63 64 60 63 64 66 70 81 81 76 79 74 73 72 65 67 71 74 72 71 68 66 63 60 58 56 56 58 61 60
57 56 50 44 39 35 36 38 38 37 35 37 43 51 61 60 62 67 67 63 76 81 78 76 74 76 68 68 67 66 69 71 69 65 61 60 60 57 55 60 62 68 70
59 62 62 55 46 43 38 34 36 39 37 34 35 42 46 54 53 59 55 62 68 76 80 77 75 76 72 65 67 70 72 68 68 64 62 63 62 62 60 60 61 65 68
62 63 65 66 59 49 44 39 35 35 36 36 35 38 40 41 51 61 57 53 54 65 78 76 71 73 74 73 70 73 73 72 71 71 70 69 70 71 71 71 69 69 70
62 62 64 67 70 63 53 48 42 37 34 37 37 35 36 39 42 50 59 54 52 55 60 61 64 70 70 71 74 74 78 80 73 72 76 76 75 75 76 74 74 76 75
63 65 64 64 67 70 66 56 49 43 39 36 37 38 37 39 40 41 53 61 53 54 53 55 51 49 58 68 73 74 73 69 71 71 69 71 71 70 69 70 73 74 73
68 69 71 71 70 73 73 69 59 52 46 40 39 38 39 40 43 44 48 60 57 54 56 50 54 55 60 65 60 63 63 61 66 65 62 59 62 63 63 63 66 70 77
74 76 76 78 75 75 74 76 75 65 54 49 46 44 43 42 44 43 46 53 52 53 54 53 52 55 55 61 64 60 56 57 56 53 57 56 57 59 65 70 73 74 78

GFSGL_prec_cthk_081.txt.gz
RH
49 50 50 52 52 51 47 46 43 43 48 51 54 52 57 55 52 53 45 60 46 42 42 45 41 34 39 48 47 45 46 48 49 46 45 40 34 29 29 25 25 27 32
57 54 52 54 56 56 52 49 48 42 43 44 48 52 57 59 59 51 50 50 45 45 43 40 37 40 32 32 41 43 42 43 43 40 38 32 33 33 31 28 27 27 31
60 57 54 53 52 53 51 52 49 46 43 41 46 49 54 56 58 57 53 49 51 47 45 43 38 35 34 34 36 38 39 38 37 38 38 36 33 33 33 32 30 30 29
66 59 56 54 55 52 51 51 51 47 46 43 39 40 45 51 52 53 52 54 54 50 46 42 40 37 34 33 28 30 30 33 35 35 34 34 39 40 37 35 34 31 29
61 64 62 58 55 54 53 50 48 47 45 44 44 40 37 41 42 45 45 43 48 45 48 47 38 34 33 29 31 32 32 35 34 36 36 37 38 38 39 33 29 29 27
75 67 63 61 61 58 53 55 51 48 51 47 43 41 39 37 34 33 37 39 38 38 42 43 36 35 32 28 25 24 25 27 25 28 30 29 28 28 28 28 27 23 22
86 85 69 66 70 66 60 53 51 50 50 53 57 46 38 33 33 31 28 30 32 35 37 36 33 37 34 28 25 24 24 23 22 21 21 20 20 20 21 21 23 22 20
81 84 85 72 66 66 67 62 58 56 54 50 50 48 47 38 33 31 30 30 30 28 29 31 31 28 28 33 31 27 23 20 19 19 17 17 18 18 19 21 22 21 21
66 75 79 83 79 78 77 73 70 72 67 62 55 51 52 43 41 38 35 33 31 28 26 24 24 27 27 24 27 30 28 23 26 26 23 21 20 20 20 21 21 24 23
51 55 64 74 82 82 81 82 82 82 82 77 71 66 62 57 52 44 41 40 37 33 30 27 25 22 21 23 25 24 23 21 24 24 25 25 24 22 22 22 20 21 22
42 44 50 55 65 75 81 81 82 79 78 80 77 77 77 73 67 56 45 43 42 40 38 37 34 31 30 29 27 26 22 23 26 26 22 21 24 26 26 26 25 24 22
34 38 43 46 51 56 67 76 79 79 77 79 81 80 84 85 85 76 64 46 44 45 43 44 42 41 39 37 35 32 33 33 32 33 30 26 26 25 27 30 30 27 25
27 30 35 40 44 46 49 56 68 72 70 71 75 76 80 86 89 87 87 78 65 59 50 47 48 48 44 41 38 36 36 38 35 34 32 29 26 24 24 26 26 29 27
21 21 25 29 34 39 42 47 48 57 69 70 74 81 78 82 88 94 92 82 80 74 66 61 60 57 53 45 40 36 34 34 34 32 29 28 28 28 28 28 28 28 31
24 22 21 23 28 31 35 40 44 45 50 56 64 67 69 70 73 78 84 88 85 85 79 77 74 69 60 54 49 45 44 40 36 35 34 31 31 31 30 29 30 31 33
28 26 25 27 25 26 30 33 38 40 42 42 49 54 58 58 62 66 71 81 84 86 85 97 90 84 75 69 61 57 57 56 51 49 45 41 38 38 35 34 34 35 34
27 29 32 30 29 28 26 28 31 35 41 44 42 44 50 54 55 55 61 63 71 82 82 78 91 90 85 80 67 67 64 64 63 54 48 49 47 45 44 41 38 40 39
29 29 30 34 36 34 30 26 25 29 34 42 45 44 42 47 50 50 48 55 63 66 75 82 83 86 85 83 77 74 73 70 66 61 60 60 61 62 67 68 63 60 57
26 26 28 32 33 37 38 35 30 27 26 32 41 43 38 40 46 47 49 49 54 70 72 79 86 85 90 84 82 82 74 67 67 66 63 64 65 68 66 67 71 66 64
27 25 26 28 31 37 42 44 38 35 28 25 30 40 44 41 41 48 55 58 58 64 71 71 78 85 80 74 82 88 88 73 64 69 71 71 75 78 77 73 68 69 72
31 28 29 29 32 35 39 47 48 45 40 34 27 28 40 42 37 35 43 49 54 58 59 67 71 78 73 74 78 85 89 83 76 68 67 72 77 75 74 72 70 70 70
32 30 29 31 35 37 41 46 50 51 48 43 35 30 28 37 38 35 33 39 49 52 56 54 59 73 79 78 81 85 85 83 82 76 68 69 71 74 76 71 68 75 76
33 34 33 34 39 42 44 46 51 53 52 50 47 39 34 32 38 43 43 40 45 47 46 48 49 53 60 73 76 77 77 82 84 79 80 75 73 69 70 70 72 75 78
32 35 36 38 44 50 51 52 54 54 54 54 53 49 42 38 34 35 40 37 33 41 45 42 45 52 52 54 60 63 69 72 78 80 77 74 75 75 78 77 74 73 71
37 43 45 48 54 56 57 58 60 60 57 56 55 56 50 43 38 34 33 40 38 36 40 41 43 55 54 49 54 55 53 54 62 69 76 75 74 75 74 77 74 72 67
50 52 56 58 63 64 64 66 65 64 63 62 60 61 61 56 46 39 35 33 41 40 40 41 41 50 58 55 53 53 51 52 53 58 64 64 64 62 61 62 58 56 54

GFSGL_prec_cthk_084.txt.gz
RH
40 42 41 41 42 40 40 37 40 49 54 58 57 56 45 51 51 47 47 54 55 44 40 46 48 33 36 41 39 36 39 44 46 44 41 39 33 29 26 27 27 24 26
42 41 41 42 44 44 41 42 39 38 37 40 47 48 48 58 55 58 46 42 49 44 39 40 38 32 28 36 41 46 40 36 38 35 32 32 28 29 29 30 28 28 28
52 49 49 44 45 46 43 45 45 42 41 37 36 42 47 52 50 55 55 47 46 50 46 42 38 32 31 32 27 32 36 37 35 34 34 34 31 29 31 32 32 33 28
76 81 63 58 48 47 48 51 47 46 44 42 39 39 39 42 43 44 47 50 46 49 49 44 38 35 33 32 28 25 28 30 34 34 33 31 32 34 38 39 37 33 25
83 80 66 74 56 53 53 52 50 49 44 43 42 41 40 37 39 36 39 41 41 43 46 44 42 37 32 29 27 24 28 29 30 30 30 33 37 39 38 37 34 27 22
74 86 78 86 69 56 58 60 59 50 54 49 44 42 40 38 37 39 37 38 37 33 36 38 34 39 39 36 29 25 23 26 27 28 27 29 29 30 28 28 24 20 16
87 84 84 80 79 73 63 64 64 60 54 50 50 51 50 46 41 38 39 36 34 36 39 38 37 39 31 29 29 28 27 25 22 21 20 19 18 18 20 19 19 18 17
82 81 82 83 82 75 72 71 68 63 58 57 50 49 49 47 48 45 42 40 37 31 31 33 36 33 31 34 36 35 30 26 24 22 21 19 18 18 20 21 21 20 19
68 72 72 74 78 80 78 73 69 69 65 60 58 56 54 51 49 48 49 48 43 37 32 30 31 31 31 30 29 30 29 28 26 24 23 22 23 23 24 25 22 24 20
49 50 52 53 61 68 77 82 78 75 73 72 71 75 71 68 66 56 56 54 47 45 42 37 33 31 29 29 30 29 26 20 22 24 25 23 22 22 22 23 22 21 21
32 35 40 42 40 46 51 61 76 81 79 81 80 80 80 80 79 77 67 67 64 55 46 43 40 37 36 38 37 35 31 31 28 27 26 23 23 22 22 22 22 23 23
29 28 27 32 36 35 34 38 43 58 71 76 77 76 76 74 80 85 82 79 78 75 66 51 46 48 46 44 45 40 39 40 39 36 36 34 31 29 28 29 27 25 25
18 19 23 24 24 29 32 30 35 41 47 62 73 77 76 74 72 75 83 86 85 87 82 71 59 45 44 48 52 45 45 47 47 44 39 34 32 31 30 29 28 27 25
21 20 18 18 19 20 23 27 33 35 41 45 48 54 65 66 70 75 81 84 86 82 79 81 77 69 61 54 47 47 49 46 45 42 39 37 36 34 30 27 27 27 28
23 23 23 22 22 23 23 23 26 27 30 34 38 39 40 46 56 62 70 78 78 77 79 81 82 80 78 67 59 59 59 56 49 42 42 42 42 41 36 34 31 31 32
21 22 22 23 23 23 23 21 20 20 22 26 26 31 36 36 39 46 55 59 63 63 62 62 70 82 82 80 71 73 78 70 60 54 50 50 48 49 48 44 41 39 36
20 18 19 20 20 21 22 23 22 20 20 19 19 23 27 32 36 37 39 47 54 54 51 52 53 60 74 81 78 70 74 83 83 79 70 66 63 53 45 44 43 43 43
20 19 19 20 20 20 21 21 21 22 22 23 24 23 23 26 30 34 36 37 40 46 47 45 48 48 54 62 75 75 81 90 93 88 88 81 80 66 60 54 56 61 60
21 20 20 19 19 20 20 21 21 22 23 23 24 24 23 21 25 29 37 37 37 38 42 47 46 48 45 53 61 73 86 93 93 85 98 85 76 77 72 66 69 73 74
21 21 21 22 23 22 21 22 21 21 21 25 27 28 31 32 27 25 32 40 47 45 40 45 48 49 48 49 53 70 79 83 87 90 94 89 73 75 71 69 73 75 76
26 24 23 23 24 25 25 24 24 23 23 24 24 26 31 36 33 29 26 28 36 45 44 40 39 45 49 48 56 75 89 83 81 83 89 87 80 77 74 76 83 84 85
30 27 23 22 22 22 25 25 27 26 26 26 26 26 28 32 38 37 33 29 27 34 40 50 42 38 48 49 43 59 82 84 85 89 87 89 88 81 81 83 85 86 86
31 30 26 23 22 22 24 26 28 28 29 30 31 32 33 34 38 40 41 38 37 36 41 46 43 39 43 47 44 39 50 61 75 78 87 91 90 88 93 85 85 86 83
29 31 31 28 26 26 27 29 30 32 35 35 36 38 39 40 40 42 45 44 40 37 32 34 40 40 34 36 42 39 38 43 54 67 76 79 83 85 89 89 84 80 82
36 37 37 36 35 33 34 37 40 42 43 45 45 46 45 47 46 46 47 47 44 39 34 29 25 29 35 32 42 45 39 42 46 50 62 68 68 71 78 82 85 83 84
41 40 41 41 44 45 44 47 50 53 53 53 55 56 56 56 55 54 52 51 49 46 41 36 32 28 34 39 36 47 47 45 48 49 56 63 65 64 62 64 68 74 77

GFSGL_prec_cthk_087.txt.gz
RH
42 46 43 39 42 39 39 43 46 48 52 54 63 64 48 49 44 46 45 50 50 46 40 37 34 32 34 36 38 42 40 43 45 45 48 41 39 35 31 25 27 29 28
43 38 39 42 40 40 41 39 39 42 43 42 48 50 53 50 51 53 52 45 45 50 40 36 38 39 32 34 34 34 35 38 39 40 41 39 35 31 26 30 31 32 33
63 55 50 44 43 42 44 45 41 41 39 38 39 42 43 44 53 51 57 56 46 45 44 40 37 31 25 30 30 33 34 35 36 36 36 36 32 27 33 33 32 33 33
75 69 67 63 61 56 50 51 50 46 44 42 39 36 39 39 44 45 46 48 51 47 49 51 44 37 31 27 29 27 26 27 31 33 32 31 33 32 37 34 34 34 31
90 75 68 75 75 69 69 56 61 60 53 48 45 42 39 40 40 40 39 40 43 46 47 45 44 39 37 35 32 27 25 23 23 23 25 29 28 33 36 35 33 30 27
93 89 83 75 71 91 77 64 60 65 64 60 54 47 45 41 40 39 39 40 40 40 39 41 39 39 35 36 37 32 28 27 26 23 24 25 24 23 24 23 21 18 16
91 93 96 93 96 86 85 75 63 65 65 61 63 60 58 51 52 49 49 43 41 39 38 36 40 41 40 39 34 30 32 31 31 29 26 24 23 21 22 21 19 19 18
82 85 88 86 88 86 84 85 75 71 74 67 63 60 56 57 60 59 61 57 48 43 38 37 38 39 38 37 36 31 31 30 30 30 28 25 24 23 23 25 25 24 22
78 79 75 70 74 78 82 86 81 72 70 70 68 63 62 58 57 59 62 62 57 53 48 44 39 33 31 33 35 32 29 27 27 28 25 23 22 24 25 25 23 24 21
45 56 64 63 64 64 63 68 77 82 77 71 70 66 64 67 65 66 64 65 62 53 56 52 47 44 42 40 38 36 33 30 32 32 31 30 31 26 26 27 26 23 23
32 32 35 39 38 38 38 40 44 54 68 77 76 74 76 74 73 76 79 77 73 72 61 60 60 51 44 42 41 39 36 38 39 39 36 34 33 31 30 31 31 32 29
25 24 24 24 25 26 27 28 30 34 40 48 62 77 81 80 78 77 77 75 74 76 77 70 71 71 63 54 44 38 37 37 38 37 35 35 36 34 33 33 33 33 32
19 17 15 16 19 20 22 24 26 28 31 36 43 50 61 72 76 76 76 76 73 72 74 78 75 72 73 71 67 53 44 41 43 44 41 39 40 42 40 37 35 35 33
18 17 18 17 17 17 18 19 21 24 26 28 32 37 39 41 46 51 58 63 70 68 65 71 78 80 72 70 75 72 67 54 43 42 44 46 45 42 40 40 39 37 36
17 18 18 19 19 20 21 20 20 22 22 21 22 23 25 28 31 33 34 40 45 53 54 58 67 70 73 69 70 74 71 69 63 54 49 48 49 47 40 40 42 43 41
16 16 17 17 18 19 19 17 22 22 22 22 22 20 18 20 21 25 28 31 34 36 35 41 47 53 62 64 64 61 71 71 76 74 69 68 70 67 55 50 49 49 48
14 15 15 15 13 12 11 11 10 10 13 15 17 21 23 22 21 20 20 21 24 28 30 32 33 38 42 47 49 50 47 57 71 76 81 78 80 82 76 65 62 65 60
14 14 12 11 11 11 10 10 10 10 9 8 10 13 16 20 20 20 22 21 19 20 22 26 29 30 33 37 41 44 44 46 56 68 77 78 82 87 88 88 80 83 71
16 16 14 13 13 14 13 13 13 12 11 10 9 9 11 14 16 18 18 19 20 21 20 23 30 35 36 40 41 42 43 43 48 57 68 71 76 80 80 89 87 87 84
21 20 17 16 15 15 15 14 14 14 14 13 13 12 12 12 12 13 18 20 21 22 25 24 24 28 36 38 35 32 37 47 52 52 57 63 66 76 81 82 94 94 94
23 21 20 20 19 19 18 17 16 15 15 15 15 15 16 17 15 15 14 16 21 24 24 26 26 24 25 32 36 37 34 34 46 55 61 67 76 82 91 97 96 88 86
30 27 27 26 25 23 22 21 20 19 18 18 17 17 17 18 18 19 20 21 20 21 25 30 29 28 25 24 31 40 40 35 38 43 45 58 71 85 91 89 88 91 91
34 31 30 30 29 27 25 24 23 22 21 21 21 22 22 22 23 24 24 24 23 23 23 29 31 30 32 29 29 37 49 45 39 39 37 36 42 60 87 92 91 93 92
37 34 33 32 28 26 24 24 22 21 22 23 25 27 28 29 29 29 29 29 28 27 29 29 31 30 31 34 32 31 38 48 44 37 40 40 37 39 50 68 77 90 93
33 32 33 35 33 32 29 27 25 25 27 29 30 31 33 35 36 37 38 38 38 37 36 35 33 31 32 33 36 30 27 32 41 37 37 42 43 40 40 49 60 65 73
40 37 37 40 40 36 32 30 29 30 34 37 41 43 45 47 47 49 49 50 48 47 45 42 40 38 38 38 37 33 26 22 23 33 36 40 42 44 48 45 48 59 68

GFSGL_prec_cthk_090.txt.gz
RH
30 29 33 38 39 37 40 50 49 50 52 66 76 72 54 45 45 45 47 48 42 40 40 34 31 30 34 38 39 42 45 44 44 50 49 46 47 41 39 36 30 34 36
42 41 43 40 41 43 38 39 45 45 51 56 62 65 54 52 51 49 51 49 47 56 43 36 38 38 36 31 35 40 43 42 42 38 41 42 42 42 39 35 32 34 36
57 53 58 57 51 47 46 45 42 40 40 43 45 53 52 51 55 57 59 63 52 47 46 44 38 37 33 28 30 32 32 35 35 36 37 36 36 37 37 35 33 36 38
75 71 71 61 59 58 54 53 55 47 45 44 43 43 44 46 48 51 53 58 54 54 47 47 46 44 38 33 33 33 29 28 31 29 27 26 26 25 27 31 33 35 32
86 82 79 79 73 70 63 65 62 61 56 51 50 45 42 42 42 44 48 46 47 49 51 52 49 46 42 38 36 36 37 30 27 26 23 23 24 25 25 26 24 22 19
91 90 87 89 88 86 83 78 70 65 71 68 64 56 50 46 47 47 47 44 41 41 44 46 45 48 44 40 36 34 36 31 32 34 33 29 26 25 23 23 22 20 18
88 90 89 89 89 91 90 92 85 75 71 72 69 67 62 60 55 51 57 52 48 44 41 39 38 41 43 42 40 37 33 31 31 32 30 28 28 26 26 23 21 22 21
78 86 94 97 94 92 89 84 82 83 78 73 70 70 66 65 62 63 63 64 60 51 46 43 41 39 37 38 39 37 35 30 28 30 28 26 25 25 25 24 24 21 19
62 71 79 82 84 87 88 93 93 92 83 84 82 78 72 66 63 58 58 65 67 66 61 54 46 44 43 41 44 38 36 33 34 32 31 31 32 32 35 35 31 30 23
52 56 61 61 76 88 86 86 84 80 86 88 84 77 72 70 65 63 62 60 59 61 65 62 59 58 53 46 41 37 33 31 34 34 32 31 31 32 34 34 33 32 32
42 40 37 42 50 57 63 65 61 68 70 73 82 81 73 72 68 63 64 63 63 68 74 74 74 66 60 61 60 53 45 42 38 36 34 33 32 33 32 34 37 39 36
30 30 31 32 32 31 31 32 34 38 42 49 54 61 75 81 79 78 75 72 73 78 80 74 72 74 75 67 67 72 69 65 54 44 38 34 34 35 37 37 38 40 39
23 21 20 20 21 22 22 23 26 27 28 31 35 41 45 50 59 71 72 69 68 71 72 73 71 70 73 75 76 78 78 76 69 63 55 44 40 40 41 41 42 43 40
20 20 19 19 18 18 19 19 19 18 20 22 24 27 31 34 36 39 41 47 56 59 60 63 65 66 67 71 74 77 73 67 67 71 70 66 59 49 42 43 48 50 47
17 18 18 18 18 19 20 20 21 23 22 19 19 19 19 20 22 24 26 27 28 30 31 36 41 44 48 55 57 59 65 72 68 66 73 75 74 74 69 58 54 51 49
17 17 17 17 17 16 17 18 19 20 22 23 23 22 21 21 19 17 16 16 18 20 21 22 23 27 29 31 35 44 50 60 63 63 61 69 74 73 74 72 71 72 68
15 15 14 13 13 12 11 11 11 12 11 12 12 13 15 16 17 16 17 18 18 17 16 15 14 15 18 23 27 31 35 43 48 57 58 57 59 60 68 75 76 77 79
13 11 10 9 9 9 8 8 8 8 7 6 7 7 7 8 9 10 12 13 14 15 16 16 16 16 14 14 20 27 33 36 38 40 49 54 54 57 59 58 67 70 72
15 14 13 12 11 11 10 10 10 9 9 9 8 7 7 7 7 7 8 9 10 14 16 17 19 20 21 22 20 19 22 30 34 38 46 49 53 55 51 51 54 58 61
20 18 18 17 16 15 14 14 13 12 12 11 10 10 9 8 8 7 7 8 8 9 10 12 16 19 20 22 23 25 21 22 25 31 33 37 47 51 50 58 58 56 59
24 22 21 22 22 21 20 19 18 17 16 15 14 14 13 12 11 10 10 10 10 10 11 11 12 13 15 19 21 22 24 23 20 22 27 31 35 36 41 49 57 61 66
29 28 27 28 28 28 26 24 23 21 20 18 17 16 15 15 15 14 14 14 14 14 13 14 14 16 18 19 20 22 22 23 23 23 24 28 32 36 34 31 35 43 62
35 35 36 36 36 35 32 29 26 23 20 18 17 17 17 18 18 18 18 18 18 19 20 22 21 20 19 21 22 22 22 23 23 23 23 25 29 33 37 33 29 31 39
44 41 39 40 40 40 35 30 27 24 21 20 20 21 22 22 22 22 23 23 24 25 27 28 28 27 25 25 26 25 24 23 24 25 27 28 27 29 36 39 33 30 33
50 44 42 41 42 38 36 31 26 22 18 17 18 21 23 25 27 28 29 30 31 32 33 34 34 34 35 34 33 32 31 27 25 26 27 27 28 28 28 35 41 35 35
50 46 43 42 42 41 38 34 31 25 22 22 23 25 29 33 37 39 40 41 43 44 45 45 45 45 44 43 40 38 36 34 30 29 30 28 28 27 22 23 36 41 40

GFSGL_prec_cthk_093.txt.gz
RH
41 32 30 36 42 53 50 56 58 62 62 59 76 75 60 50 44 49 50 50 46 47 46 39 36 34 34 37 43 43 43 44 45 47 47 52 49 45 45 44 39 36 35
50 36 31 30 42 51 50 43 48 51 55 57 69 83 74 57 53 53 49 52 51 47 51 49 43 39 37 35 34 37 41 40 42 41 41 42 43 42 42 39 36 38 36
80 48 40 36 36 43 49 46 44 45 51 55 62 65 67 59 57 57 58 62 55 50 53 47 44 42 42 38 35 32 33 37 38 36 33 31 31 31 30 29 29 33 32
94 71 50 47 51 48 49 54 50 47 47 47 49 51 58 58 53 55 57 64 64 57 57 51 46 46 45 43 35 33 34 33 31 30 28 26 24 25 25 24 24 25 22
92 89 70 65 64 61 58 60 60 60 56 53 53 50 52 52 48 48 50 51 59 56 54 54 55 55 51 45 43 38 38 37 34 31 29 28 26 26 26 25 22 20 18
90 90 83 80 80 74 72 70 71 69 71 65 59 57 58 51 48 48 48 47 46 47 47 48 51 55 55 50 44 41 37 43 36 31 30 30 28 29 28 28 25 23 21
83 86 86 87 88 86 86 84 84 79 81 79 76 72 71 69 60 55 51 50 50 48 44 43 45 46 44 46 46 45 41 38 38 33 31 30 29 28 28 25 23 22 19
69 76 82 90 92 90 90 93 94 89 86 90 84 82 81 79 71 68 62 60 60 60 60 53 47 43 42 43 43 42 41 40 40 38 32 28 29 29 30 29 27 24 23
59 72 74 84 80 86 89 90 92 95 94 92 85 84 82 83 77 77 72 67 66 65 69 66 55 51 48 46 45 41 40 41 41 42 39 36 35 33 33 31 30 32 27
55 57 59 60 60 68 77 87 86 89 88 88 86 87 86 88 90 87 78 67 63 61 68 70 70 67 62 57 53 49 43 42 41 39 38 36 36 35 36 38 38 37 36
54 54 56 59 61 61 61 62 78 80 83 84 84 82 88 89 90 86 73 69 66 63 63 68 69 70 70 72 68 65 62 59 56 50 44 41 39 38 39 40 43 46 42
42 42 40 40 38 38 39 38 43 49 62 66 74 78 83 85 88 88 76 71 65 61 60 63 64 69 77 76 73 75 75 68 68 70 67 66 62 49 41 41 42 44 46
29 27 26 27 28 30 31 32 32 32 32 38 46 50 51 50 54 58 63 74 76 75 70 67 69 73 77 75 74 70 71 72 71 71 74 73 74 71 62 55 48 45 43
25 23 24 25 24 23 23 22 22 22 23 25 26 28 32 35 34 35 38 38 42 49 59 63 65 65 66 66 66 67 64 62 64 66 68 66 65 66 69 72 71 70 66
23 22 22 22 22 22 22 22 22 21 20 19 19 19 18 19 19 20 18 18 19 21 23 26 29 34 39 43 46 49 50 52 56 58 57 58 63 67 68 69 70 72 74
18 18 18 18 18 18 18 18 19 19 20 20 20 20 19 18 17 17 17 18 18 16 15 15 15 17 18 18 19 20 23 29 34 37 42 49 52 57 64 66 67 67 70
19 18 16 15 15 14 14 14 14 14 14 13 13 12 11 11 11 10 9 9 10 10 12 12 13 13 13 14 15 15 15 16 20 26 30 33 35 41 48 54 60 63 60
18 17 15 15 14 14 13 12 12 12 11 11 11 11 11 11 10 10 10 9 8 8 8 8 8 10 12 13 14 14 16 19 20 20 23 28 34 40 40 43 48 50 51
16 15 15 14 13 13 12 11 11 10 10 10 9 9 8 8 8 9 8 8 8 9 9 9 9 10 10 11 12 14 15 16 17 18 20 22 25 25 34 39 42 43 45
19 18 18 18 17 17 16 15 14 13 12 11 10 10 9 9 8 8 8 8 7 7 7 8 9 9 10 10 11 12 13 15 16 17 16 17 19 22 23 25 28 35 38
23 21 20 20 20 19 18 18 17 16 16 15 14 14 13 12 12 12 11 11 11 11 11 11 11 11 11 11 11 11 14 18 19 19 19 17 17 18 19 21 21 21 26
26 25 25 25 25 25 23 22 21 21 20 18 17 17 16 16 15 15 14 14 14 14 14 14 14 14 15 16 19 20 20 19 20 22 21 20 20 19 18 19 19 19 21
36 33 32 31 32 31 30 28 27 26 24 22 20 19 18 17 16 15 15 15 15 15 16 17 16 16 17 17 19 22 22 22 23 23 23 23 22 20 20 21 18 18 19
46 44 43 42 42 42 41 39 36 33 29 26 21 19 17 17 17 17 17 17 18 19 21 22 23 23 23 24 25 26 26 26 27 28 29 29 27 25 22 20 18 17 18
54 51 50 49 46 45 44 42 40 36 31 27 23 20 20 20 20 20 21 23 24 25 27 29 30 31 32 33 34 34 33 34 34 34 34 34 32 29 26 23 21 19 18
67 61 57 55 52 48 46 45 44 39 32 27 25 25 23 24 25 26 28 29 31 33 35 38 41 44 46 47 48 47 47 46 44 45 45 40 36 32 31 28 26 24 22

GFSGL_prec_cthk_096.txt.gz
RH
50 46 38 39 43 50 55 61 64 68 77 79 74 81 71 56 46 47 49 49 46 44 41 39 37 36 34 36 38 40 43 46 45 44 44 44 44 42 41 40 38 37 36
56 50 38 37 38 44 52 57 54 60 64 70 68 67 77 63 53 47 52 52 56 51 47 50 54 47 38 34 34 35 37 37 35 35 35 38 37 36 33 31 30 29 30
79 65 43 34 35 35 45 53 48 43 46 53 62 64 81 76 60 57 56 56 59 58 58 55 53 47 43 41 40 37 38 38 38 35 34 32 29 26 24 25 26 25 25
92 94 76 43 37 37 39 44 47 44 46 52 57 60 66 73 61 56 56 57 64 64 59 59 56 50 49 49 46 40 38 36 35 35 34 32 30 28 29 29 25 24 21
92 96 92 80 52 44 42 44 50 52 48 48 48 49 50 54 59 59 52 53 56 61 61 57 55 54 51 52 52 47 41 39 40 39 36 32 29 30 31 30 26 23 19
90 94 95 89 69 57 57 56 52 55 56 55 56 56 54 53 54 58 56 52 51 49 52 53 50 50 55 58 61 55 48 44 39 43 37 32 28 29 31 29 26 23 20
69 85 91 88 83 77 72 70 65 62 62 62 67 65 64 64 63 58 56 56 54 52 52 51 49 50 53 55 51 47 47 45 41 40 35 32 30 29 30 28 29 26 24
69 71 78 86 89 84 85 86 81 76 74 74 77 80 82 83 73 72 70 63 63 61 61 62 56 55 50 45 43 42 43 44 43 42 41 39 36 31 31 31 31 30 28
59 57 68 73 82 83 75 85 94 86 83 85 88 86 87 85 79 81 77 74 73 72 67 70 69 69 65 56 53 51 46 45 44 44 42 40 38 37 38 35 33 35 32
56 56 59 60 60 56 64 70 84 89 88 90 90 89 89 87 88 84 83 84 85 87 75 70 68 69 75 74 68 62 57 54 55 51 46 43 41 38 39 39 37 38 40
59 56 55 53 54 54 54 56 60 63 73 86 91 93 91 92 92 89 88 88 87 89 83 78 73 69 69 71 72 70 68 67 69 64 60 58 58 55 52 52 50 47 44
48 46 44 43 44 47 48 49 54 58 61 70 75 79 81 83 82 84 89 88 89 89 78 73 71 66 65 64 64 66 71 72 72 69 70 65 62 67 70 72 73 70 62
35 33 32 31 31 33 34 35 38 38 38 40 44 59 68 72 67 65 64 67 71 74 71 70 71 70 64 62 61 61 64 71 70 66 61 64 65 64 69 68 67 72 70
35 32 30 28 27 24 23 24 25 26 28 29 30 30 30 33 38 49 49 47 45 40 39 42 46 50 60 64 66 68 66 67 66 66 65 63 60 60 63 67 68 70 69
37 35 32 29 25 23 22 23 23 22 21 21 20 19 18 18 17 16 17 19 21 25 25 23 23 23 26 31 35 37 39 41 42 43 45 48 50 50 51 55 57 58 62
29 26 25 21 21 20 20 20 20 20 20 20 19 18 17 16 15 14 13 12 11 10 11 12 12 11 11 11 10 11 13 14 17 18 20 25 29 29 31 34 38 42 49
26 24 23 18 17 16 16 15 15 15 14 14 13 12 11 11 10 9 9 9 8 8 9 9 8 8 9 9 9 9 9 10 10 12 13 15 18 20 22 24 27 32 35
22 20 19 17 16 15 15 15 14 14 14 13 13 12 12 11 11 11 10 10 10 9 9 8 8 8 8 8 8 8 8 8 8 10 12 13 13 14 15 18 20 25 27
21 19 18 17 17 16 15 15 15 14 14 14 14 13 13 12 12 11 11 11 10 10 10 10 10 10 9 9 9 9 9 9 9 9 14 14 14 14 12 13 14 17 20
18 18 17 16 16 16 16 16 16 16 15 14 13 12 12 11 11 10 10 10 10 11 11 11 11 11 11 12 12 12 11 11 11 12 13 14 16 18 18 17 16 14 14
21 20 20 21 20 21 20 18 18 17 16 15 14 13 12 12 12 12 12 12 12 12 12 12 12 12 12 12 13 13 14 14 14 15 15 15 20 21 20 20 19 18 18
23 23 23 24 24 24 24 23 22 21 20 19 17 16 16 17 16 16 16 15 15 15 14 14 14 14 14 15 16 16 17 18 21 21 22 22 22 22 22 21 21 20 20
34 31 29 27 27 27 28 28 28 28 27 25 22 21 20 20 20 19 19 18 17 16 16 16 16 16 16 17 18 19 20 22 24 26 26 25 25 25 25 25 25 25 22
47 44 43 42 42 42 41 40 39 38 35 33 30 27 26 25 24 22 21 20 19 19 19 18 18 19 19 20 20 22 24 26 28 29 31 31 30 29 30 32 32 31 30
59 56 55 54 52 50 48 47 47 47 45 40 36 33 31 28 24 22 21 22 22 21 21 21 21 21 22 24 26 28 29 31 35 37 39 39 38 36 36 36 37 36 34
67 62 61 59 57 57 57 55 53 49 45 41 37 34 32 29 27 25 23 23 25 26 26 25 25 26 27 30 33 37 42 46 47 50 53 52 53 51 50 48 47 46 43

GFSGL_prec_cthk_099.txt.gz
RH
53 52 51 44 45 47 60 63 64 73 72 76 71 68 69 66 56 50 49 44 46 41 38 35 34 32 31 32 34 35 36 37 41 43 40 36 37 37 38 35 32 31 32
60 54 54 55 45 44 48 60 62 64 71 77 77 72 77 76 58 46 47 50 52 52 50 45 44 44 38 34 33 32 32 31 32 33 33 33 30 31 30 27 27 29 26
74 61 62 59 46 39 40 48 55 56 60 58 63 69 67 75 69 59 52 54 56 59 61 52 53 54 50 43 37 40 41 34 34 35 33 33 30 30 27 27 27 25 26
91 86 85 73 61 39 37 38 48 52 48 43 47 53 59 71 78 70 57 54 58 64 68 63 60 58 55 51 50 48 46 43 39 40 37 33 32 30 28 30 27 27 23
95 97 94 90 83 56 38 37 42 43 47 45 47 52 55 59 63 67 63 54 53 53 60 67 64 62 57 52 51 54 55 51 48 45 44 40 36 34 33 31 29 26 24
95 92 93 95 96 92 58 46 46 45 47 50 50 52 54 50 47 48 54 58 55 50 49 53 58 56 55 54 55 55 58 56 53 52 44 42 38 35 31 30 29 27 24
88 86 90 97 97 95 84 67 60 53 51 50 55 55 54 55 55 54 54 53 58 58 56 57 55 57 51 49 50 54 51 47 44 42 43 37 35 36 34 30 31 30 28
77 74 79 97 99 91 91 85 69 63 66 62 59 58 59 60 62 65 68 66 66 60 59 59 57 58 58 55 54 52 49 45 45 45 42 40 40 41 42 43 37 33 31
72 67 64 66 81 89 90 84 79 80 84 83 81 72 66 67 71 73 77 76 79 75 72 68 68 65 69 68 66 66 61 55 53 51 48 46 46 46 46 44 42 43 37
70 60 58 59 70 76 87 70 68 68 74 85 89 84 80 77 80 82 85 86 86 85 86 84 79 76 72 73 73 71 71 68 64 62 58 61 62 58 54 54 54 52 49
65 54 52 57 59 56 51 50 54 55 59 73 83 83 86 89 88 88 91 89 91 88 88 87 80 79 77 73 69 67 67 69 70 68 69 67 68 68 70 65 64 67 68
60 54 54 52 51 50 49 48 47 51 53 58 65 68 73 84 84 85 87 86 85 88 89 85 83 81 76 72 65 62 57 57 60 62 67 74 75 75 74 75 69 66 69
52 50 49 46 44 43 43 41 43 46 46 41 39 42 43 52 69 72 73 78 72 72 69 65 68 68 60 56 54 58 58 54 52 56 60 66 69 67 64 63 64 66 70
38 37 36 33 31 31 31 31 32 32 32 32 32 32 31 31 33 43 48 52 55 57 53 54 49 44 40 35 34 35 39 47 50 54 56 50 54 57 58 56 55 59 61
40 39 38 38 35 34 32 31 30 28 26 25 23 22 22 21 19 17 16 16 18 19 20 27 29 30 31 29 25 24 24 25 26 27 30 31 38 38 37 36 37 39 44
36 36 36 35 36 36 34 32 30 26 23 22 21 20 18 18 16 15 14 13 12 11 11 12 13 15 15 17 16 16 15 13 13 12 11 13 18 20 21 20 23 21 23
42 41 37 38 35 32 30 28 24 22 18 16 14 13 13 12 11 10 10 9 9 8 8 8 8 8 8 8 8 8 8 8 8 8 8 8 13 15 14 15 15 16 13
40 34 28 25 24 22 21 20 19 18 16 15 14 13 12 11 11 10 10 10 9 9 9 9 9 9 9 9 9 9 9 9 9 9 9 9 11 14 13 13 12 16 16
32 27 24 21 20 20 18 18 17 17 16 16 15 14 13 13 13 12 11 10 10 11 11 11 11 11 11 11 12 12 12 12 11 12 14 15 15 17 17 17 17 17 17
27 26 25 22 21 20 20 19 18 17 17 16 16 15 14 13 13 13 13 13 13 13 13 13 13 13 13 13 14 14 14 14 15 16 15 15 17 19 19 19 20 20 20
21 22 23 24 24 23 21 20 19 19 18 16 15 14 14 14 14 14 13 13 13 13 13 13 13 13 13 13 13 13 14 15 15 15 16 17 20 21 21 19 19 21 23
22 21 20 21 21 22 21 21 22 21 21 20 18 17 16 15 14 14 15 15 16 16 16 16 15 15 15 15 15 15 15 16 16 18 18 19 20 22 22 23 24 24 25
34 32 29 26 25 24 24 25 26 26 25 24 21 20 20 20 20 20 20 20 20 20 20 19 19 19 19 19 19 19 19 20 21 22 23 23 24 26 27 28 29 29 29
57 49 44 40 39 37 37 35 33 33 33 32 30 27 26 27 27 27 27 26 26 26 25 24 23 23 23 23 23 24 24 24 24 23 24 25 26 28 31 33 34 35 35
73 68 61 55 54 53 54 52 49 48 49 48 46 42 40 39 38 37 35 33 30 28 27 27 28 27 27 26 26 25 24 24 24 26 26 28 31 34 37 39 42 43 43
76 72 70 66 61 60 59 60 60 61 59 55 53 50 47 45 43 42 40 38 34 31 29 28 29 29 30 29 28 28 28 28 29 30 33 36 41 45 49 52 55 56 57

GFSGL_prec_cthk_102.txt.gz
RH
50 48 46 49 52 53 60 69 71 77 77 66 71 53 56 64 63 52 48 48 42 42 39 37 36 34 34 38 38 36 40 42 42 39 42 40 36 35 31 30 32 33 37
55 50 53 59 54 54 53 63 69 70 74 73 80 77 71 72 76 61 52 51 49 52 50 49 45 47 43 43 39 38 38 38 36 34 35 39 40 36 34 30 34 36 31
73 65 55 62 63 54 52 50 62 67 69 73 70 69 72 74 78 72 62 54 53 57 58 60 56 54 57 57 52 47 47 50 48 45 42 43 42 40 35 33 35 34 35
87 76 71 64 66 64 53 47 47 54 63 64 59 56 55 60 67 82 74 65 62 61 62 64 66 64 62 61 57 55 55 55 55 53 49 48 48 45 42 42 39 37 35
92 80 82 83 74 72 60 48 42 42 50 57 54 51 49 52 60 67 71 67 62 57 56 61 68 69 65 63 61 61 60 61 63 60 56 56 52 49 43 43 39 37 35
90 91 93 94 89 90 81 61 43 39 45 46 48 48 52 57 52 53 52 57 62 63 59 56 58 62 63 59 55 51 53 58 61 61 57 55 47 47 46 40 40 40 37
93 93 93 89 91 91 88 88 66 54 53 51 51 51 50 50 51 55 53 52 55 56 58 63 60 55 57 57 55 51 51 53 53 50 48 48 47 46 46 44 46 43 39
82 78 75 83 89 93 94 93 92 79 67 68 63 56 53 51 53 54 57 59 59 63 64 65 63 63 62 63 65 61 59 59 62 57 52 50 50 47 46 47 50 47 46
71 71 71 75 87 96 99 96 94 90 82 74 65 63 65 67 66 61 59 62 65 66 70 77 71 63 64 65 66 62 66 66 63 59 57 55 54 53 54 53 56 56 55
76 77 71 68 70 74 81 86 91 88 85 81 74 72 80 82 82 81 70 68 72 75 76 79 79 78 76 69 70 68 65 69 67 65 63 62 63 62 60 61 63 63 64
82 82 72 64 62 67 73 80 68 64 67 71 62 65 81 86 93 90 82 79 81 81 83 83 81 79 78 76 74 70 68 69 68 70 69 68 68 69 70 71 71 68 67
85 82 70 63 61 62 59 58 57 58 58 57 56 59 66 71 76 80 82 77 79 81 79 82 81 78 75 74 73 70 68 66 70 66 65 65 66 64 63 64 67 68 67
80 75 64 57 55 56 57 56 55 55 53 50 50 45 46 44 43 47 55 61 64 66 74 72 71 63 60 58 55 54 56 55 54 52 59 58 51 51 51 55 51 53 57
68 67 59 53 51 51 51 52 50 46 46 45 44 42 39 36 34 33 30 29 31 35 40 44 48 49 48 48 50 49 46 44 44 44 38 37 38 46 46 41 39 38 39
61 58 52 47 44 37 37 37 35 34 34 36 35 33 31 28 26 23 20 18 16 16 16 21 21 21 26 27 35 36 36 32 35 31 29 28 28 29 29 29 29 29 30
54 49 46 46 45 42 39 37 37 37 36 34 32 29 27 24 20 18 17 15 14 13 12 12 10 10 10 11 12 13 16 20 19 19 19 19 20 20 19 17 17 17 17
51 47 45 44 42 40 37 34 33 34 32 30 28 26 25 22 17 15 13 11 10 11 14 14 14 13 12 11 11 11 11 9 10 12 12 17 18 18 18 17 16 16 16
50 47 48 44 43 41 38 38 38 34 32 27 26 24 22 20 18 16 13 12 14 13 14 14 14 14 14 14 15 15 15 16 16 15 16 15 15 15 14 15 15 16 16
64 61 54 50 47 43 43 41 37 31 27 24 19 17 16 16 15 15 14 17 17 16 16 15 14 14 14 15 15 17 17 17 16 17 16 16 16 16 16 16 16 16 17
47 49 49 47 45 41 37 31 29 27 25 23 21 20 20 16 19 19 16 15 17 17 16 16 15 15 15 14 14 15 18 18 18 18 18 19 19 18 18 18 18 18 18
40 36 34 39 35 35 33 31 28 27 25 23 21 17 18 22 21 20 20 20 20 21 19 18 18 18 20 20 19 19 21 21 21 22 22 22 22 22 22 22 22 23 24
35 32 29 28 29 29 30 28 25 26 26 26 25 21 20 22 21 21 21 20 17 16 17 16 19 19 20 18 17 17 18 21 21 20 18 18 20 22 23 23 23 23 24
59 50 40 36 33 29 25 28 27 27 28 28 27 26 24 24 22 22 21 21 20 20 19 20 21 23 23 21 21 20 21 21 21 21 21 21 22 23 24 25 24 24 26
65 66 62 56 49 43 39 40 39 35 34 32 30 27 25 25 26 26 27 28 28 30 28 27 26 27 28 28 28 27 26 26 26 26 26 26 26 27 28 28 29 29 30
67 66 69 68 63 59 56 53 50 49 47 46 46 43 41 39 39 40 42 44 44 43 42 39 35 33 32 30 30 31 30 30 30 30 29 29 30 32 33 34 35 33 34
71 79 75 72 72 70 67 66 64 65 62 61 61 59 58 59 58 57 54 53 52 50 47 45 43 37 35 33 31 30 29 29 29 30 31 32 33 36 39 40 42 43 44

GFSGL_prec_cthk_105.txt.gz
RH
47 45 47 47 49 49 49 53 65 67 73 75 72 74 70 65 67 66 53 66 47 44 41 40 38 37 37 39 46 46 43 43 43 44 43 39 35 39 35 31 32 37 45
58 52 50 47 48 51 50 55 66 67 74 79 76 82 78 76 75 73 66 64 55 52 52 53 51 48 47 42 45 44 40 35 35 36 38 42 44 48 40 32 38 39 38
68 75 60 49 50 51 53 56 55 65 68 76 78 81 88 82 77 81 80 65 60 54 55 61 61 56 54 55 55 52 52 52 57 52 48 47 47 49 44 42 44 43 43
89 89 76 74 57 57 61 55 57 56 65 68 72 75 73 72 74 74 80 78 75 67 62 67 67 66 65 64 63 63 58 57 56 60 60 61 52 67 57 47 46 41 40
93 93 88 86 91 69 63 68 60 52 51 57 66 63 61 62 58 57 68 84 81 75 69 66 63 68 71 66 62 62 58 60 62 61 60 62 59 54 46 43 45 40 38
85 90 91 91 93 85 76 69 69 63 53 50 50 57 58 60 53 56 59 65 65 71 76 76 63 60 55 55 56 57 53 47 47 52 55 58 51 48 48 48 46 45 43
84 86 92 92 89 83 89 95 85 75 63 58 56 57 58 57 55 52 51 52 57 58 61 64 67 75 63 60 57 57 59 59 57 58 58 60 58 57 58 56 52 53 53
87 82 82 91 93 86 87 92 95 89 87 73 68 66 64 57 53 52 53 54 56 58 61 66 66 64 65 62 62 64 65 66 67 64 61 61 60 55 54 54 50 51 56
84 82 71 70 76 84 90 93 95 92 92 92 85 78 70 64 59 58 60 60 59 56 58 62 71 66 73 77 71 66 66 67 64 61 63 62 59 58 56 54 57 57 63
84 76 66 71 70 71 79 94 90 93 94 92 85 82 79 73 69 72 75 82 77 76 69 66 68 70 73 75 76 77 73 68 65 64 67 69 68 67 65 62 63 62 63
85 79 75 77 73 66 69 78 81 82 85 87 80 73 72 65 66 78 80 89 91 91 87 76 75 76 76 75 75 75 73 71 69 69 73 76 76 75 72 69 67 63 62
84 86 80 81 77 69 68 74 77 74 74 65 65 67 64 62 63 72 81 84 85 85 80 76 78 78 72 73 72 68 65 63 66 69 65 68 75 70 62 55 57 55 50
83 83 84 87 80 71 65 63 64 64 63 64 62 58 51 48 50 47 43 44 49 53 53 56 54 60 68 67 64 55 59 63 58 59 65 60 49 50 55 56 47 43 44
74 76 80 82 82 71 65 61 64 63 61 58 57 53 49 46 41 38 35 34 30 28 26 25 22 22 25 27 37 42 42 42 42 44 43 42 42 39 38 38 34 31 30
70 70 68 70 75 69 62 58 57 55 53 53 52 46 43 40 34 32 29 25 22 20 18 18 15 14 15 16 18 19 21 23 21 22 26 29 29 30 31 30 27 26 25
60 68 71 71 68 64 55 49 42 41 40 39 38 37 34 34 32 29 26 24 21 18 20 20 18 15 16 13 12 10 12 10 9 9 9 13 18 24 24 24 22 21 21
59 55 54 57 62 63 53 47 46 43 41 39 37 35 33 30 29 27 24 22 20 19 21 19 19 18 15 14 14 14 14 14 12 14 15 14 14 14 14 14 17 20 20
61 57 55 55 55 53 52 50 44 38 39 34 31 30 29 27 28 26 23 22 26 24 24 22 20 19 17 16 15 15 15 15 15 16 15 16 16 16 15 16 16 16 15
71 71 65 69 65 56 50 46 44 44 43 45 36 33 30 31 29 24 22 25 26 24 21 19 19 19 19 18 18 18 17 17 17 18 18 18 18 18 17 17 17 17 17
69 67 66 66 59 59 59 55 58 53 47 44 44 46 39 32 30 26 23 21 22 22 19 19 18 18 19 19 19 19 19 19 19 19 19 19 19 18 19 19 19 19 18
54 50 48 51 54 56 56 55 55 54 52 53 53 44 37 33 31 29 27 22 20 20 20 20 20 20 20 21 19 20 21 22 23 23 22 20 18 19 22 23 23 23 23
59 54 45 40 37 37 42 44 42 44 49 49 47 39 28 25 30 30 28 25 23 23 23 21 22 22 22 22 20 22 25 25 25 22 21 21 21 21 23 24 25 26 26
45 46 47 49 46 43 38 35 32 35 38 37 36 33 30 32 31 29 27 27 24 23 24 23 23 23 24 25 24 24 26 27 23 23 23 23 23 23 24 25 26 27 29
44 45 50 48 50 51 48 46 44 43 41 39 37 32 30 28 28 28 26 26 24 25 26 27 28 27 29 30 31 32 34 31 29 28 27 27 28 29 32 32 33 34 35
52 54 50 50 55 55 56 57 58 59 56 52 53 47 41 38 36 36 38 39 39 40 40 41 43 42 41 39 36 36 34 32 31 30 30 30 32 35 35 37 39 40 42
51 55 56 59 60 63 73 75 71 64 64 67 67 67 64 58 53 52 54 56 59 60 62 58 54 52 48 45 43 39 36 33 32 32 33 34 35 37 38 39 42 47 52

GFSGL_prec_cthk_108.txt.gz
RH
31 35 35 35 35 36 45 52 53 68 72 68 67 64 62 59 67 58 57 63 62 38 36 43 42 34 30 33 36 42 42 38 39 37 36 31 29 36 34 33 33 29 33
39 42 37 39 39 38 37 44 45 54 59 70 73 69 69 64 65 67 67 63 61 47 46 44 45 47 48 43 39 44 45 48 39 46 40 37 35 40 42 39 45 38 39
61 63 65 50 47 42 46 41 45 51 57 58 69 75 78 82 81 69 70 75 68 60 51 52 59 57 55 56 57 53 52 50 49 47 48 49 47 50 61 58 40 45 43
79 87 80 83 71 53 50 52 50 49 51 59 69 75 77 79 79 74 68 71 72 71 67 57 59 64 65 66 66 64 64 60 57 57 57 56 55 59 60 58 35 34 34
89 89 87 88 86 78 67 57 54 58 57 50 55 62 68 67 60 56 55 57 73 80 73 75 68 61 66 69 68 62 59 56 53 51 50 50 51 48 44 40 38 38 36
82 82 79 85 87 86 88 92 69 65 66 58 50 50 59 60 59 59 56 53 68 73 65 73 84 73 57 56 53 53 55 57 57 55 54 57 55 56 54 53 51 48 44
79 80 82 83 88 87 88 90 88 76 80 75 70 60 50 51 56 58 58 53 53 54 57 60 68 70 69 71 65 62 59 59 64 68 68 67 66 64 61 56 54 53 53
82 80 80 80 80 85 86 87 91 90 91 92 85 73 66 64 61 61 59 59 54 55 58 64 61 62 69 66 65 67 67 66 64 64 64 65 63 63 60 58 58 58 59
86 83 82 75 76 82 88 88 85 86 91 92 90 87 83 79 76 72 66 63 57 54 61 62 62 66 70 68 69 69 72 73 71 70 70 70 71 70 67 66 65 64 62
85 86 84 72 63 64 70 78 83 85 93 97 95 89 86 84 79 73 68 66 68 73 76 75 73 70 70 64 64 66 68 69 70 72 75 76 73 76 73 72 74 71 69
82 82 81 80 66 72 69 65 70 81 87 91 90 91 86 79 79 76 67 66 78 80 79 83 87 84 80 72 68 72 71 69 69 72 73 77 81 82 74 76 72 70 65
81 81 84 86 71 72 74 68 67 70 77 80 89 84 74 71 73 66 67 74 81 83 83 84 84 79 74 71 67 64 61 61 60 57 60 64 61 62 58 53 56 57 55
83 83 83 84 83 79 77 73 74 72 76 72 68 67 70 67 58 54 54 50 51 47 52 50 50 48 43 40 36 44 53 50 49 46 53 55 50 45 45 45 44 42 40
83 87 87 86 83 81 79 78 73 69 64 63 62 62 60 58 55 49 44 40 40 38 33 30 27 25 22 20 19 18 18 20 21 21 24 29 28 26 26 28 29 30 30
80 82 83 84 81 80 82 83 80 79 73 65 60 57 57 52 49 45 42 38 33 28 25 23 21 19 19 19 18 17 13 11 11 10 10 10 12 12 12 12 14 16 19
67 65 67 68 70 73 76 79 75 73 72 67 59 53 46 40 36 31 27 26 27 26 26 29 27 25 23 18 16 15 14 12 10 10 10 10 10 10 10 11 10 11 10
64 67 68 70 70 72 64 65 61 59 57 55 53 46 40 35 32 32 30 28 26 25 27 31 30 28 24 23 22 20 19 17 15 16 16 14 12 12 12 11 11 11 10
61 60 57 56 57 60 64 66 63 59 55 49 45 42 40 38 33 29 28 27 28 29 32 31 29 27 26 24 23 22 22 19 18 18 17 15 14 13 12 13 13 13 13
70 70 66 65 63 61 61 59 53 52 51 51 45 39 34 32 31 32 35 38 39 38 36 33 31 29 25 21 19 18 19 17 17 17 17 17 15 14 15 15 16 16 16
68 67 72 76 80 82 76 74 71 71 66 58 58 50 45 37 32 32 35 37 41 44 39 35 31 26 21 19 18 17 18 18 18 17 15 15 16 16 16 16 17 17 18
56 53 53 54 53 59 64 70 68 69 72 71 67 66 66 54 55 54 53 47 48 46 40 38 31 26 23 21 19 21 22 23 22 19 19 19 19 19 19 19 19 20 20
50 55 51 48 44 43 39 40 46 49 50 53 52 50 48 44 50 53 55 54 48 45 40 36 33 29 25 23 21 22 24 25 23 21 21 21 21 22 23 24 23 23 23
38 38 41 44 40 42 44 44 42 40 38 39 39 37 36 30 33 40 41 40 37 35 34 35 33 33 30 25 21 21 23 23 24 25 25 25 25 26 26 26 27 27 30
52 49 41 41 39 43 44 47 46 43 43 46 46 42 37 33 36 35 32 33 33 31 27 26 27 29 31 30 29 30 31 30 31 31 31 30 30 30 32 32 33 35 35
69 61 58 55 48 44 48 47 47 49 45 45 47 49 48 45 46 43 39 35 32 32 31 31 33 35 37 39 40 41 42 41 39 36 35 34 34 35 35 38 39 39 40
63 58 54 52 45 42 47 49 52 54 57 62 61 57 56 56 54 53 53 55 55 54 54 54 55 56 54 54 52 49 46 43 40 38 35 35 36 35 36 37 40 41 42

GFSGL_prec_cthk_111.txt.gz
RH
38 33 36 38 40 42 43 48 57 56 73 67 72 70 51 53 59 58 55 56 59 45 34 35 40 38 35 40 39 38 39 39 42 41 43 45 43 44 46 45 41 39 42
47 34 36 39 37 36 38 42 44 47 62 69 76 76 71 69 63 65 66 61 59 61 48 45 42 43 43 45 43 45 50 53 51 51 47 48 53 51 56 68 44 38 34
58 43 37 39 34 33 37 39 42 49 54 63 69 74 72 73 72 70 68 68 74 66 58 54 52 58 56 54 60 58 58 59 59 57 56 60 61 57 60 58 46 40 34
77 63 59 59 68 64 54 49 40 41 44 53 61 63 71 74 75 79 73 64 70 72 75 65 58 56 61 63 69 66 63 60 59 56 57 58 58 55 52 47 39 36 32
86 82 79 84 90 89 87 83 63 49 46 49 50 58 66 73 77 70 59 56 57 65 76 77 72 74 61 63 62 61 58 56 55 54 51 48 50 51 52 50 49 45 41
86 86 88 93 92 93 94 95 85 73 68 55 53 52 53 61 66 68 63 59 53 57 63 67 68 71 79 66 60 55 54 52 53 56 62 63 59 59 59 57 53 48 46
89 93 91 88 88 90 92 95 96 87 86 92 74 62 55 53 55 59 60 61 60 53 51 54 62 64 68 71 72 67 64 62 60 58 56 58 58 58 57 57 56 57 57
81 81 81 86 87 86 86 89 95 94 94 95 91 88 85 75 71 63 60 57 56 58 54 54 57 66 64 63 65 66 64 65 67 67 63 61 61 61 64 65 63 63 63
87 83 83 83 80 79 76 81 92 93 92 91 89 88 87 86 83 85 77 71 68 64 62 60 62 64 61 60 62 65 65 66 65 65 64 66 66 66 69 67 66 66 67
93 94 90 84 77 73 67 70 78 86 85 84 87 86 87 86 88 83 79 77 76 73 70 70 71 71 70 71 70 65 65 63 58 64 68 71 73 74 74 71 69 69 70
92 92 89 83 78 71 66 67 64 65 70 77 82 88 91 86 83 79 78 81 82 79 76 75 75 75 75 80 79 79 74 69 64 68 67 69 64 63 65 67 65 61 52
90 88 89 84 81 80 75 73 71 66 67 73 74 79 82 84 85 80 76 82 73 64 76 79 82 81 79 77 75 71 61 54 54 47 51 53 53 55 57 54 51 47 44
81 83 86 85 82 82 84 76 74 75 69 72 75 73 75 78 71 69 71 64 63 65 70 69 65 57 54 50 42 34 26 20 22 27 27 27 26 28 30 31 32 29 28
81 80 83 84 85 86 83 84 84 83 78 73 72 70 65 67 68 66 59 52 46 43 42 39 36 33 27 24 22 21 20 19 17 16 14 15 13 13 13 14 14 12 11
74 77 85 86 87 89 90 90 89 86 81 75 76 72 70 65 62 58 54 47 42 38 34 30 26 24 22 23 24 24 22 17 15 13 12 11 10 9 9 9 9 8 8
69 71 74 79 80 80 86 90 89 85 86 82 81 81 75 67 57 51 46 39 31 26 25 25 27 26 26 25 24 23 22 20 17 16 15 15 14 13 12 11 10 10 9
60 67 69 74 73 67 67 64 66 71 70 76 83 82 77 72 61 48 39 34 29 26 30 30 30 30 29 28 27 25 22 19 17 17 16 15 15 15 14 13 13 13 12
72 67 71 72 66 65 73 67 64 64 58 54 59 62 62 57 52 49 45 38 34 35 34 32 32 33 32 32 30 28 25 23 20 18 18 17 16 14 13 13 13 13 14
65 63 68 73 77 75 69 68 66 62 55 54 52 50 53 53 50 45 42 42 41 40 40 38 37 37 36 34 33 32 28 26 24 21 19 18 16 15 15 15 15 15 15
72 69 69 72 76 76 74 76 72 73 72 73 68 62 60 54 44 41 41 42 41 40 40 39 37 36 36 33 32 31 31 32 29 25 20 17 16 16 17 18 19 19 20
55 54 54 54 58 54 55 59 63 65 66 68 71 73 77 74 76 74 71 64 59 51 51 50 44 43 41 39 36 35 36 34 29 27 25 21 21 22 22 23 23 23 23
30 31 38 44 51 55 53 53 48 40 40 42 46 49 52 56 58 61 62 59 57 56 54 53 53 49 44 40 38 39 37 35 35 35 32 29 28 28 25 24 25 25 25
40 38 37 35 34 33 32 38 43 47 47 47 45 41 37 38 36 40 42 44 47 48 46 43 41 39 37 34 31 32 31 31 31 31 32 32 34 36 36 37 35 32 29
58 52 52 51 49 45 41 36 38 40 39 36 36 37 39 39 37 36 34 32 32 32 34 36 36 35 34 33 31 30 31 33 34 35 37 39 38 36 34 33 32 33 37
66 64 62 62 55 49 44 44 37 40 45 45 45 47 45 43 43 43 45 45 44 44 42 37 34 32 32 32 31 33 35 38 42 45 45 43 41 39 39 39 38 38 41
60 57 58 58 64 52 50 45 42 40 46 47 50 52 53 56 58 54 51 51 50 50 49 49 49 49 51 52 53 54 56 61 59 55 52 50 46 43 42 40 39 41 40

GFSGL_prec_cthk_114.txt.gz
RH
40 32 31 34 38 42 40 41 47 63 72 73 77 57 53 50 55 55 50 50 52 45 34 29 34 39 39 37 39 42 43 48 46 48 51 48 50 50 50 60 45 41 43
57 53 33 29 31 30 32 32 39 44 54 70 71 74 70 63 64 68 66 65 64 62 56 47 42 42 44 45 48 49 50 50 49 49 55 54 54 53 59 64 60 45 46
63 68 47 30 29 29 30 28 28 35 42 57 68 73 73 73 75 73 72 75 67 73 75 59 53 53 56 58 56 61 63 66 64 58 55 60 60 57 60 59 54 48 38
63 71 58 44 36 34 31 35 35 33 33 42 58 65 73 76 79 84 85 80 75 77 83 76 70 62 62 60 67 66 67 66 62 57 54 54 53 52 50 50 49 49 44
79 81 72 69 56 54 68 78 81 73 46 38 42 51 70 69 76 81 81 80 68 70 72 80 81 79 81 68 74 68 59 55 56 55 54 54 55 55 57 60 59 53 53
81 79 80 87 81 79 88 92 90 94 88 68 57 51 50 60 70 81 80 72 67 61 61 66 70 72 75 80 73 65 61 59 55 54 56 61 64 62 60 58 58 58 57
74 84 91 89 91 90 90 94 91 93 98 91 82 76 70 56 53 57 62 67 64 65 62 64 63 62 64 72 77 79 75 71 68 64 62 58 59 59 59 62 64 63 61
79 82 86 90 89 88 91 88 89 91 95 97 94 88 85 87 73 63 60 58 60 61 60 58 56 56 59 66 66 69 67 68 67 65 64 63 65 66 66 65 65 64 64
82 82 80 82 85 89 91 88 83 85 91 97 95 93 94 95 90 87 81 81 81 76 66 62 60 60 63 63 63 65 66 66 62 60 62 62 62 63 67 71 68 66 68
92 92 87 91 93 94 92 80 70 78 89 93 98 97 96 96 92 88 87 89 90 85 80 76 74 73 71 70 70 72 71 69 69 66 65 66 62 68 70 66 61 58 60
98 94 93 94 93 93 87 77 71 67 69 72 77 78 79 84 89 90 89 89 86 81 83 85 82 82 78 77 77 78 78 78 78 76 71 65 62 60 59 58 59 58 53
79 89 96 95 97 92 85 83 79 74 75 70 69 68 70 75 78 82 87 88 87 84 87 92 90 84 79 79 77 76 78 73 67 55 51 48 42 42 38 32 33 37 37
89 92 89 91 93 93 92 91 86 80 77 78 74 74 73 74 75 75 82 81 80 85 83 82 76 79 81 80 79 73 59 46 34 24 20 19 20 23 24 24 18 16 16
81 86 87 88 86 90 92 92 90 88 87 83 79 77 78 71 75 73 72 72 70 63 56 51 50 50 42 37 32 28 23 20 19 19 19 19 18 17 15 13 12 12 13
73 76 77 82 83 87 88 87 91 89 87 86 86 85 84 78 71 72 70 71 64 54 48 41 36 32 29 25 25 25 24 23 21 20 19 19 18 17 15 14 14 13 12
70 71 73 70 76 77 83 87 92 91 92 91 91 87 90 87 77 71 69 65 60 51 44 36 31 27 26 26 27 25 24 23 22 22 22 21 19 18 16 15 15 14 14
62 64 66 65 64 64 66 68 77 83 87 87 93 86 84 85 86 80 71 61 56 50 45 38 34 30 29 28 25 25 24 23 22 23 24 23 22 21 20 18 16 16 15
64 63 63 60 63 65 64 66 65 67 67 65 66 63 65 74 71 64 68 66 52 49 53 50 45 39 36 35 31 29 28 26 26 26 27 28 27 25 22 20 20 21 20
64 65 68 71 71 69 68 66 69 70 71 67 60 61 57 54 52 51 48 53 56 60 54 50 50 50 48 45 42 37 34 32 31 30 29 28 28 27 27 24 21 23 24
65 65 68 69 67 68 70 69 70 72 74 77 77 76 70 67 61 55 60 61 58 58 58 57 56 52 49 47 43 39 35 33 31 30 30 29 27 27 29 30 32 30 28
44 47 50 52 52 53 54 56 56 57 60 64 71 78 79 78 73 66 62 63 65 65 67 68 66 52 45 44 42 41 41 38 36 36 36 36 34 33 33 32 32 31 32
36 32 30 29 32 37 39 42 44 46 47 49 49 45 44 49 58 58 63 67 67 67 68 69 70 70 70 66 62 61 54 50 46 41 39 38 38 39 39 39 38 38 37
57 52 50 46 42 40 36 34 33 30 30 31 30 34 39 44 46 43 39 42 42 45 48 51 55 53 49 46 45 44 43 43 42 41 40 41 40 39 39 39 40 41 40
58 57 55 47 55 59 54 53 51 46 42 41 40 39 39 38 37 35 35 38 41 40 37 37 36 35 34 36 38 39 39 40 38 37 37 38 38 39 40 41 44 44 42
56 57 57 58 59 59 58 55 55 49 43 39 41 41 40 41 42 45 44 41 41 42 41 41 40 39 35 35 33 33 32 31 33 34 36 37 38 39 43 46 47 48 48
60 65 59 56 60 58 54 55 55 49 46 42 42 46 45 44 47 48 50 55 56 54 52 49 45 45 45 46 45 46 46 51 53 56 57 58 59 61 59 55 53 53 52

GFSGL_prec_cthk_117.txt.gz
RH
37 33 35 38 42 51 51 47 48 52 66 72 75 71 60 53 52 50 51 50 47 44 41 39 38 36 38 35 34 34 35 39 44 45 43 46 48 51 53 54 59 52 44
56 43 30 31 34 38 43 45 40 45 56 67 75 78 62 56 54 62 61 60 60 64 60 53 41 38 40 42 43 44 43 47 50 47 54 58 55 58 56 61 66 55 41
70 69 63 55 38 32 35 36 39 38 43 47 63 75 76 76 73 70 71 74 74 66 69 67 60 51 48 50 55 52 54 58 59 59 60 56 59 62 59 58 51 49 42
71 70 68 64 52 39 31 33 34 35 37 44 50 66 73 73 73 77 79 80 82 79 81 80 77 67 68 67 59 61 62 63 64 60 56 53 52 51 52 50 52 51 53
82 80 68 71 53 47 38 34 36 42 44 39 41 46 61 67 74 73 80 86 87 81 75 76 80 81 76 78 76 73 73 65 58 55 55 56 55 57 57 57 58 60 62
86 83 88 83 76 73 66 50 55 71 83 82 61 47 50 55 65 71 77 83 84 80 73 63 65 71 74 82 79 73 67 65 63 61 59 57 58 59 59 60 62 63 64
89 92 87 83 88 83 79 68 90 89 93 91 90 78 65 57 53 56 69 77 80 81 84 72 69 69 67 68 72 73 73 72 69 68 67 64 61 61 63 64 65 64 66
95 96 91 83 85 88 90 89 90 93 93 95 96 90 88 87 85 75 59 57 57 60 65 69 66 66 63 60 64 66 68 66 64 64 64 64 65 66 69 69 69 68 68
99 90 85 88 87 88 93 90 92 96 96 94 95 97 96 92 90 87 82 80 80 74 72 82 83 81 73 67 65 71 68 66 65 65 62 61 62 64 65 65 62 63 62
99 91 87 89 91 92 91 92 95 95 88 89 92 97 99 97 95 92 95 92 91 87 84 88 86 84 83 80 76 76 75 73 70 72 73 70 69 66 67 67 63 61 60
90 96 91 98 94 94 97 97 97 90 75 77 86 95 95 90 91 86 90 89 90 91 89 88 88 85 85 84 83 83 80 80 80 80 77 79 78 73 70 67 61 53 50
86 88 86 93 98 99 98 94 95 91 86 81 77 70 70 74 75 76 75 80 86 90 93 92 90 88 89 90 87 84 82 80 81 75 79 75 59 47 39 27 24 25 22
85 85 85 89 90 92 94 91 94 94 95 92 85 83 82 79 78 78 76 75 75 78 84 87 89 93 94 92 83 86 82 82 80 70 61 44 27 22 22 22 23 21 17
78 82 85 91 92 94 98 97 97 94 92 93 95 93 92 87 84 80 78 75 76 74 76 78 73 68 64 63 63 56 52 43 40 33 25 20 20 23 23 23 20 18 17
78 79 80 81 82 85 86 86 90 92 94 95 92 93 91 88 85 85 82 81 74 72 74 68 57 47 42 39 36 32 28 25 25 25 22 22 23 22 21 20 20 19 18
76 75 78 81 78 79 79 81 85 90 96 93 92 93 91 94 90 85 83 83 78 72 72 69 63 57 47 37 31 27 26 27 27 25 24 24 23 22 21 20 20 20 20
70 66 65 69 66 64 66 70 71 71 74 80 85 90 92 93 93 96 92 86 79 71 66 62 60 59 55 47 39 35 32 30 28 25 23 23 22 21 20 21 21 22 23
61 62 61 64 65 64 63 62 60 61 59 61 62 68 67 67 71 72 72 67 67 65 63 60 62 58 59 56 51 45 41 37 34 31 28 25 24 23 24 25 25 25 27
58 60 63 65 65 64 63 62 60 59 57 58 59 60 60 54 53 52 48 50 54 59 58 61 59 62 61 60 57 52 50 49 47 44 42 38 34 31 30 30 30 30 30
54 58 62 64 66 68 68 68 69 69 69 69 69 70 71 73 81 75 72 67 61 65 65 63 64 63 56 55 56 54 52 51 50 46 43 38 35 34 32 30 29 31 32
34 34 37 38 43 46 47 46 49 51 52 52 54 58 64 65 69 74 74 73 72 72 72 73 73 72 73 72 63 56 53 50 46 43 40 36 35 35 36 37 38 38 41
41 41 39 37 35 33 32 33 34 34 37 39 40 42 46 51 51 50 49 49 52 57 64 67 69 69 74 73 72 71 64 64 68 66 62 57 52 51 49 47 46 45 47
55 52 51 50 47 44 43 42 42 41 39 36 33 30 29 30 31 32 34 36 39 42 44 46 46 45 45 48 52 54 53 51 48 46 47 47 46 46 47 49 50 50 50
57 59 57 55 54 53 47 47 50 49 49 47 44 43 41 39 39 38 39 39 38 39 39 38 37 36 35 34 31 29 28 28 31 35 37 38 39 41 43 44 44 45 45
53 57 61 60 57 56 56 56 54 52 51 53 53 48 42 40 39 39 40 43 45 48 45 44 44 43 41 39 39 39 36 35 35 34 35 37 38 39 40 41 42 45 50
49 50 55 58 61 61 59 51 53 51 53 53 55 50 46 44 46 47 48 51 53 54 54 54 53 54 53 49 45 45 44 44 46 49 51 54 57 59 61 61 60 61 62